Darstellungsparameter: Aktuell verwendete Einstellungen:
Skalierung der Graphiken ... ?
xyx+y,   Skalierungsfaktor:      Skalierung: Modus: x, Faktor: 1
Darstellungszeitraum ... ?
Vom - - bis: - -   Zeitraum: 25.02.2020 - 24.03.2020
Min/Max/Avg-Anzeige ... ?
Zeige MMA aktuell
Zeige MMA Monat
Zeige MMA alles
Zeige --A aktuell
Zeige --A Monat
Zeige --A alles
Keine MMA-Anzeige
MMA:
Average (ber die Originaldaten)
MMA-Basis: 25.02.2020 - 24.03.2020
Quicknavigation für Darstellung... ?
Tage:      1T, 2T, 3T, 5T -1T -2T -3T -5T +1T +2T +3T +5T
Wochen: 1W, 2W, 3W -1W -2W -3W +1W +2W +3W
Monate: 1M, 3M, 6M -1M -3M -6M +1M +3M +6M
Jahre:    1J, 3J, 5J, 10J -1J -3J -5J -10J +1J +3J +5J +10J
Nutze für die Darstellung ... ?
Originaldaten oder Mittelwerte auf ...
Stundenbasis Tagesbasis Wochenbasis
Monatsbasis Jahresbasis      Datenbasis: Original-Daten
Darstellen als:
Statistik (Auto) Statistik J:M      Darstellung:
Zur Graphik,    zurück zur Übersicht aller Sensoren.
 
Tabellarische Datenbersicht: ?
 
Sensor: Nr:Datum:Temp:Feuchte:
Aussen-T/F 1 25-02-2020 00:08:17 10.5 C 34 %
2 25-02-2020 00:17:17 10.4 C 34 %
3 25-02-2020 00:27:17 10.2 C 35 %
4 25-02-2020 00:37:18 10.4 C 35 %
5 25-02-2020 00:47:17 10.6 C 35 %
6 25-02-2020 00:57:17 10.5 C 35 %
7 25-02-2020 01:08:17 10.5 C 35 %
8 25-02-2020 01:18:17 10.5 C 35 %
9 25-02-2020 01:28:17 10.5 C 35 %
10 25-02-2020 01:38:17 10.6 C 35 %
11 25-02-2020 01:48:17 10.4 C 35 %
12 25-02-2020 01:58:17 10.5 C 35 %
13 25-02-2020 02:08:17 10.4 C 35 %
14 25-02-2020 02:18:17 10.3 C 35 %
15 25-02-2020 02:28:17 10.4 C 35 %
16 25-02-2020 02:38:17 10.3 C 35 %
17 25-02-2020 02:48:17 10.3 C 35 %
18 25-02-2020 02:58:17 10.1 C 35 %
19 25-02-2020 03:08:17 9.7 C 36 %
20 25-02-2020 03:18:17 9.8 C 36 %
21 25-02-2020 03:28:18 10 C 36 %
22 25-02-2020 03:38:18 10 C 35 %
23 25-02-2020 03:48:17 10 C 35 %
24 25-02-2020 03:58:18 10 C 35 %
25 25-02-2020 04:08:18 10 C 35 %
Sensor: Nr:Datum:Temp:Feuchte:
Aussen-T/F 26 25-02-2020 04:18:18 9.9 C 36 %
27 25-02-2020 04:28:18 9.9 C 36 %
28 25-02-2020 04:38:18 9.9 C 36 %
29 25-02-2020 04:48:17 9.9 C 36 %
30 25-02-2020 04:58:17 9.9 C 36 %
31 25-02-2020 05:08:18 9.9 C 36 %
32 25-02-2020 05:18:17 9.8 C 36 %
33 25-02-2020 05:28:18 9.7 C 36 %
34 25-02-2020 05:38:18 9.7 C 36 %
35 25-02-2020 05:48:18 9.7 C 36 %
36 25-02-2020 05:58:18 9.7 C 35 %
37 25-02-2020 06:08:18 9.7 C 35 %
38 25-02-2020 06:18:17 9.6 C 35 %
39 25-02-2020 06:28:18 9.5 C 35 %
40 25-02-2020 06:38:18 9.4 C 36 %
41 25-02-2020 06:48:17 9.4 C 36 %
42 25-02-2020 06:58:17 9.3 C 36 %
43 25-02-2020 07:08:17 9.2 C 36 %
44 25-02-2020 07:18:17 9.1 C 36 %
45 25-02-2020 07:28:18 9.1 C 36 %
46 25-02-2020 07:38:18 8.6 C 38 %
47 25-02-2020 07:48:17 8.4 C 40 %
48 25-02-2020 07:58:17 8.2 C 42 %
49 25-02-2020 08:08:18 8.1 C 43 %
50 25-02-2020 08:18:17 8 C 44 %
Sensor: Nr:Datum:Temp:Feuchte:
Aussen-T/F 51 25-02-2020 08:28:17 8 C 42 %
52 25-02-2020 08:38:17 8 C 42 %
53 25-02-2020 08:48:17 8.1 C 42 %
54 25-02-2020 08:58:17 8.2 C 41 %
55 25-02-2020 09:08:18 8.2 C 41 %
56 25-02-2020 09:18:17 8.2 C 40 %
57 25-02-2020 09:28:17 8.5 C 38 %
58 25-02-2020 09:38:18 8.7 C 38 %
59 25-02-2020 09:48:17 8.7 C 36 %
60 25-02-2020 09:58:17 8.6 C 34 %
61 25-02-2020 10:08:17 8.6 C 33 %
62 25-02-2020 10:18:17 8.2 C 33 %
63 25-02-2020 10:28:17 8.7 C 33 %
64 25-02-2020 10:38:18 8.7 C 33 %
65 25-02-2020 10:48:17 9.2 C 32 %
66 25-02-2020 10:58:17 9.6 C 31 %
67 25-02-2020 11:08:18 9.1 C 32 %
68 25-02-2020 11:18:17 8 C 32 %
69 25-02-2020 11:28:17 8.3 C 32 %
70 25-02-2020 11:38:17 8.2 C 31 %
71 25-02-2020 11:48:17 8.5 C 31 %
72 25-02-2020 11:58:18 8.9 C 30 %
73 25-02-2020 12:08:18 11.2 C 26 %
74 25-02-2020 12:18:18 10.4 C 22 %
75 25-02-2020 12:28:18 10.7 C 21 %
Sensor: Nr:Datum:Temp:Feuchte:
Aussen-T/F 76 25-02-2020 12:38:18 10.2 C 23 %
77 25-02-2020 12:48:18 10.2 C 22 %
78 25-02-2020 12:58:18 10.6 C 25 %
79 25-02-2020 13:08:18 10.1 C 25 %
80 25-02-2020 13:18:17 11.1 C 25 %
81 25-02-2020 13:28:17 11.1 C 25 %
82 25-02-2020 13:38:17 11.4 C 23 %
83 25-02-2020 13:48:17 10 C 22 %
84 25-02-2020 13:58:17 10.7 C 23 %
85 25-02-2020 14:08:17 10.7 C 22 %
86 25-02-2020 14:18:17 10.4 C 20 %
87 25-02-2020 14:28:17 10.2 C 22 %
88 25-02-2020 14:38:18 10.2 C 21 %
89 25-02-2020 14:48:17 11 C 21 %
90 25-02-2020 14:58:17 10.4 C 22 %
91 25-02-2020 15:08:17 10.1 C 25 %
92 25-02-2020 15:18:17 11.1 C 22 %
93 25-02-2020 15:28:17 11.1 C 22 %
94 25-02-2020 15:38:17 11.2 C 20 %
95 25-02-2020 15:48:18 11.5 C 20 %
96 25-02-2020 15:58:18 11.7 C 20 %
97 25-02-2020 16:08:18 10.3 C 21 %
98 25-02-2020 16:18:18 10.1 C 21 %
99 25-02-2020 16:28:18 10.1 C 20 %
100 25-02-2020 16:38:18 12.4 C 20 %
Sensor: Nr:Datum:Temp:Feuchte:
Aussen-T/F 101 25-02-2020 16:48:17 11.5 C 20 %
102 25-02-2020 16:58:18 10 C 20 %
103 25-02-2020 17:08:18 9.9 C 20 %
104 25-02-2020 17:18:17 10.8 C 20 %
105 25-02-2020 17:28:18 9.5 C 25 %
106 25-02-2020 17:38:18 9.1 C 25 %
107 25-02-2020 17:48:18 9 C 25 %
108 25-02-2020 17:58:18 8.9 C 27 %
109 25-02-2020 18:08:18 8.8 C 26 %
110 25-02-2020 18:18:18 8.5 C 27 %
111 25-02-2020 18:28:18 8.4 C 28 %
112 25-02-2020 18:38:18 8.6 C 27 %
113 25-02-2020 18:48:17 8.4 C 28 %
114 25-02-2020 18:58:17 7.1 C 31 %
115 25-02-2020 19:08:18 6.5 C 35 %
116 25-02-2020 19:18:18 6.3 C 35 %
117 25-02-2020 19:28:18 6.2 C 35 %
118 25-02-2020 19:38:18 6 C 37 %
119 25-02-2020 19:48:17 5.8 C 40 %
120 25-02-2020 19:58:17 5.7 C 40 %
121 25-02-2020 20:08:18 5.6 C 40 %
122 25-02-2020 20:18:17 5.5 C 41 %
123 25-02-2020 20:28:18 5.6 C 41 %
124 25-02-2020 20:38:18 5.9 C 39 %
125 25-02-2020 20:48:17 6 C 38 %
Sensor: Nr:Datum:Temp:Feuchte:
Aussen-T/F 126 25-02-2020 20:58:17 5.9 C 39 %
127 25-02-2020 21:08:17 5.3 C 40 %
128 25-02-2020 21:18:17 5.3 C 40 %
129 25-02-2020 21:28:17 5.3 C 40 %
130 25-02-2020 21:38:17 5.2 C 41 %
131 25-02-2020 21:48:18 5.8 C 36 %
132 25-02-2020 21:58:18 5.8 C 35 %
133 25-02-2020 22:08:18 5.6 C 34 %
134 25-02-2020 22:18:17 5.6 C 33 %
135 25-02-2020 22:28:17 5.3 C 33 %
136 25-02-2020 22:38:17 4.8 C 34 %
137 25-02-2020 22:48:18 4.4 C 35 %
138 25-02-2020 22:58:18 4.2 C 35 %
139 25-02-2020 23:08:18 4.2 C 35 %
140 25-02-2020 23:18:18 4.4 C 35 %
141 25-02-2020 23:28:18 4.6 C 35 %
142 25-02-2020 23:38:18 5.4 C 34 %
143 25-02-2020 23:48:17 5.5 C 34 %
144 25-02-2020 23:58:17 5.4 C 33 %
145 26-02-2020 00:08:17 5.3 C 35 %
146 26-02-2020 00:18:17 5 C 35 %
147 26-02-2020 00:28:17 4.9 C 36 %
148 26-02-2020 00:38:18 5.1 C 35 %
149 26-02-2020 00:48:17 5.4 C 35 %
150 26-02-2020 00:58:17 5.3 C 35 %
Sensor: Nr:Datum:Temp:Feuchte:
Aussen-T/F 151 26-02-2020 01:08:17 5.4 C 35 %
152 26-02-2020 01:18:17 5.5 C 35 %
153 26-02-2020 01:28:17 5.4 C 35 %
154 26-02-2020 01:38:17 5.3 C 35 %
155 26-02-2020 01:48:17 5.1 C 35 %
156 26-02-2020 01:58:17 5 C 35 %
157 26-02-2020 02:08:18 5.2 C 35 %
158 26-02-2020 02:18:18 5.2 C 34 %
159 26-02-2020 02:28:18 5.2 C 34 %
160 26-02-2020 02:38:17 5 C 34 %
161 26-02-2020 02:48:18 5.1 C 33 %
162 26-02-2020 02:58:18 5 C 32 %
163 26-02-2020 03:08:17 4.8 C 33 %
164 26-02-2020 03:18:17 4.7 C 33 %
165 26-02-2020 03:28:17 4.3 C 34 %
166 26-02-2020 03:38:18 3.8 C 35 %
167 26-02-2020 03:48:18 3.7 C 35 %
168 26-02-2020 03:58:18 4 C 34 %
169 26-02-2020 04:08:18 3.9 C 35 %
170 26-02-2020 04:18:18 3.9 C 35 %
171 26-02-2020 04:28:18 3.9 C 35 %
172 26-02-2020 04:38:18 3.8 C 35 %
173 26-02-2020 04:48:17 3.9 C 35 %
174 26-02-2020 04:58:18 3.9 C 35 %
175 26-02-2020 05:08:18 4 C 33 %
Sensor: Nr:Datum:Temp:Feuchte:
Aussen-T/F 176 26-02-2020 05:18:18 3.9 C 35 %
177 26-02-2020 05:28:18 4 C 33 %
178 26-02-2020 05:38:18 3.9 C 35 %
179 26-02-2020 05:48:17 3.7 C 35 %
180 26-02-2020 05:58:18 3.9 C 34 %
181 26-02-2020 06:08:18 3.9 C 34 %
182 26-02-2020 06:18:18 4 C 32 %
183 26-02-2020 06:28:18 3.7 C 34 %
184 26-02-2020 06:38:18 3.9 C 33 %
185 26-02-2020 06:48:17 3.7 C 33 %
186 26-02-2020 06:58:17 3.6 C 33 %
187 26-02-2020 07:08:18 3.4 C 34 %
188 26-02-2020 07:18:18 3.4 C 34 %
189 26-02-2020 07:28:18 3.2 C 35 %
190 26-02-2020 07:38:17 3.4 C 35 %
191 26-02-2020 07:48:18 3.4 C 35 %
192 26-02-2020 07:58:18 3.4 C 35 %
193 26-02-2020 08:08:18 3.5 C 35 %
194 26-02-2020 08:18:17 3.5 C 35 %
195 26-02-2020 08:28:17 3.6 C 35 %
196 26-02-2020 08:38:18 3.6 C 34 %
197 26-02-2020 08:48:18 3.5 C 35 %
198 26-02-2020 08:58:18 3.3 C 35 %
199 26-02-2020 09:08:17 2.9 C 36 %
200 26-02-2020 09:18:17 2.9 C 37 %
Sensor: Nr:Datum:Temp:Feuchte:
Aussen-T/F 201 26-02-2020 09:28:17 3 C 37 %
202 26-02-2020 09:38:18 3.2 C 36 %
203 26-02-2020 09:48:18 3.6 C 36 %
204 26-02-2020 09:58:18 3.4 C 36 %
205 26-02-2020 10:08:18 3.4 C 36 %
206 26-02-2020 10:18:17 3.4 C 36 %
207 26-02-2020 10:28:17 3.3 C 37 %
208 26-02-2020 10:38:17 3.5 C 36 %
209 26-02-2020 10:48:17 4.2 C 35 %
210 26-02-2020 10:58:17 4.4 C 35 %
211 26-02-2020 11:08:17 4.5 C 34 %
212 26-02-2020 11:18:17 5 C 33 %
213 26-02-2020 11:28:17 5.1 C 33 %
214 26-02-2020 11:38:18 5.4 C 32 %
215 26-02-2020 11:48:18 5.3 C 32 %
216 26-02-2020 11:58:18 5.9 C 32 %
217 26-02-2020 12:08:17 6.1 C 31 %
218 26-02-2020 12:18:17 6.4 C 31 %
219 26-02-2020 12:28:17 5.7 C 31 %
220 26-02-2020 12:38:17 5.7 C 31 %
221 26-02-2020 12:48:17 5.7 C 31 %
222 26-02-2020 12:58:17 6.7 C 29 %
223 26-02-2020 13:08:17 6.7 C 29 %
224 26-02-2020 13:18:18 6.1 C 30 %
225 26-02-2020 13:28:18 5 C 31 %
Sensor: Nr:Datum:Temp:Feuchte:
Aussen-T/F 226 26-02-2020 13:38:17 5.3 C 31 %
227 26-02-2020 13:48:17 5.3 C 31 %
228 26-02-2020 13:58:17 5.1 C 31 %
229 26-02-2020 14:08:17 5.1 C 32 %
230 26-02-2020 14:18:17 5.1 C 32 %
231 26-02-2020 14:28:17 5.1 C 32 %
232 26-02-2020 14:38:17 5.6 C 32 %
233 26-02-2020 14:48:17 5.8 C 32 %
234 26-02-2020 14:58:17 5.6 C 32 %
235 26-02-2020 15:08:17 5.6 C 32 %
236 26-02-2020 15:18:17 6.4 C 31 %
237 26-02-2020 15:28:17 7.6 C 29 %
238 26-02-2020 15:38:17 6.3 C 30 %
239 26-02-2020 15:48:17 6.2 C 30 %
240 26-02-2020 15:58:17 5.8 C 30 %
241 26-02-2020 16:08:17 5.9 C 30 %
242 26-02-2020 16:18:17 5.5 C 30 %
243 26-02-2020 16:28:17 5.5 C 30 %
244 26-02-2020 16:38:17 5.4 C 30 %
245 26-02-2020 16:48:18 5.6 C 30 %
246 26-02-2020 16:58:18 5.4 C 30 %
247 26-02-2020 17:08:18 5.3 C 30 %
248 26-02-2020 17:18:18 5.1 C 30 %
249 26-02-2020 17:28:18 5.1 C 30 %
250 26-02-2020 17:38:17 4.8 C 30 %
Sensor: Nr:Datum:Temp:Feuchte:
Aussen-T/F 251 26-02-2020 17:48:18 4.5 C 31 %
252 26-02-2020 17:58:18 4.2 C 31 %
253 26-02-2020 18:08:18 4 C 32 %
254 26-02-2020 18:18:18 4 C 32 %
255 26-02-2020 18:28:18 4 C 32 %
256 26-02-2020 18:38:18 4 C 32 %
257 26-02-2020 18:48:18 4.1 C 32 %
258 26-02-2020 18:58:18 4.1 C 32 %
259 26-02-2020 19:08:18 4 C 32 %
260 26-02-2020 19:18:17 4 C 33 %
261 26-02-2020 19:28:17 3.9 C 35 %
262 26-02-2020 19:38:17 3.8 C 35 %
263 26-02-2020 19:48:17 3.6 C 35 %
264 26-02-2020 19:58:17 3.4 C 35 %
265 26-02-2020 20:08:17 3.3 C 35 %
266 26-02-2020 20:18:17 3.6 C 35 %
267 26-02-2020 20:28:17 3.6 C 35 %
268 26-02-2020 20:38:17 3.6 C 35 %
269 26-02-2020 20:48:17 3.4 C 35 %
270 26-02-2020 20:58:17 3.6 C 35 %
271 26-02-2020 21:08:18 3.6 C 35 %
272 26-02-2020 21:18:18 3.5 C 35 %
273 26-02-2020 21:28:18 3.2 C 35 %
274 26-02-2020 21:38:18 3.4 C 35 %
275 26-02-2020 21:48:17 3.4 C 35 %
Sensor: Nr:Datum:Temp:Feuchte:
Aussen-T/F 276 26-02-2020 21:58:17 3.5 C 35 %
277 26-02-2020 22:08:18 3.3 C 36 %
278 26-02-2020 22:18:18 3.3 C 36 %
279 26-02-2020 22:28:18 3.3 C 36 %
280 26-02-2020 22:38:18 3.4 C 36 %
281 26-02-2020 22:48:17 3.2 C 37 %
282 26-02-2020 22:58:17 3.3 C 37 %
283 26-02-2020 23:08:18 3.1 C 37 %
284 26-02-2020 23:18:18 3 C 37 %
285 26-02-2020 23:28:18 2.9 C 38 %
286 26-02-2020 23:38:17 2.8 C 38 %
287 26-02-2020 23:48:17 2.9 C 37 %
288 26-02-2020 23:58:17 2.7 C 38 %
289 27-02-2020 00:08:17 2.9 C 37 %
290 27-02-2020 00:18:17 3.1 C 37 %
291 27-02-2020 00:28:17 2.8 C 37 %
292 27-02-2020 00:38:18 3.1 C 36 %
293 27-02-2020 00:48:18 2.9 C 37 %
294 27-02-2020 00:58:18 2.8 C 37 %
295 27-02-2020 01:08:18 2.3 C 38 %
296 27-02-2020 01:18:18 2.2 C 38 %
297 27-02-2020 01:28:18 2.2 C 38 %
298 27-02-2020 01:38:18 2 C 38 %
299 27-02-2020 01:48:17 2.6 C 38 %
300 27-02-2020 01:58:17 2.7 C 38 %
Sensor: Nr:Datum:Temp:Feuchte:
Aussen-T/F 301 27-02-2020 02:08:18 2.6 C 38 %
302 27-02-2020 02:18:17 2.9 C 37 %
303 27-02-2020 02:28:17 2.9 C 37 %
304 27-02-2020 02:38:17 2.5 C 38 %
305 27-02-2020 02:48:17 2.7 C 38 %
306 27-02-2020 02:58:17 3.1 C 36 %
307 27-02-2020 03:08:18 3.1 C 37 %
308 27-02-2020 03:18:17 2.6 C 40 %
309 27-02-2020 03:28:17 2.6 C 40 %
310 27-02-2020 03:38:17 2.6 C 40 %
311 27-02-2020 03:48:17 2.7 C 40 %
312 27-02-2020 03:58:17 2.7 C 40 %
313 27-02-2020 04:08:18 2.7 C 40 %
314 27-02-2020 04:18:18 2.7 C 40 %
315 27-02-2020 04:28:18 2.6 C 40 %
316 27-02-2020 04:38:18 2.7 C 39 %
317 27-02-2020 04:48:17 2.3 C 40 %
318 27-02-2020 04:58:17 2.3 C 39 %
319 27-02-2020 05:08:18 2.1 C 40 %
320 27-02-2020 05:18:17 2.3 C 40 %
321 27-02-2020 05:28:18 2 C 40 %
322 27-02-2020 05:38:17 2 C 40 %
323 27-02-2020 05:48:17 2.3 C 40 %
324 27-02-2020 05:58:17 2.4 C 39 %
325 27-02-2020 06:08:17 2.2 C 39 %
Sensor: Nr:Datum:Temp:Feuchte:
Aussen-T/F 326 27-02-2020 06:18:17 2.2 C 38 %
327 27-02-2020 06:28:17 2.3 C 38 %
328 27-02-2020 06:38:18 2.3 C 38 %
329 27-02-2020 06:48:17 2.3 C 38 %
330 27-02-2020 06:58:17 2.1 C 38 %
331 27-02-2020 07:08:18 2.3 C 38 %
332 27-02-2020 07:18:18 2.3 C 38 %
333 27-02-2020 07:28:18 2.4 C 39 %
334 27-02-2020 07:38:18 2.5 C 38 %
335 27-02-2020 07:48:17 2.4 C 39 %
336 27-02-2020 07:58:17 2.6 C 39 %
337 27-02-2020 08:08:17 2.5 C 39 %
338 27-02-2020 08:18:17 2.6 C 40 %
339 27-02-2020 08:28:17 2.9 C 40 %
340 27-02-2020 08:38:17 3.2 C 38 %
341 27-02-2020 08:48:17 3.5 C 37 %
342 27-02-2020 08:58:17 3.8 C 37 %
343 27-02-2020 09:08:17 4.2 C 35 %
344 27-02-2020 09:18:17 4.3 C 35 %
345 27-02-2020 09:28:17 4.6 C 35 %
346 27-02-2020 09:38:17 4.7 C 35 %
347 27-02-2020 09:48:17 4.9 C 35 %
348 27-02-2020 09:58:17 5.2 C 34 %
349 27-02-2020 10:08:17 5.1 C 34 %
350 27-02-2020 10:18:17 5.3 C 33 %
Sensor: Nr:Datum:Temp:Feuchte:
Aussen-T/F 351 27-02-2020 10:28:17 5.2 C 33 %
352 27-02-2020 10:38:17 5.4 C 33 %
353 27-02-2020 10:48:17 5.4 C 33 %
354 27-02-2020 10:58:17 5 C 33 %
355 27-02-2020 11:08:17 4.6 C 35 %
356 27-02-2020 11:18:17 4.2 C 35 %
357 27-02-2020 11:28:17 3.7 C 36 %
358 27-02-2020 11:38:17 3.7 C 38 %
359 27-02-2020 11:48:18 3.9 C 39 %
360 27-02-2020 11:58:18 3.9 C 39 %
361 27-02-2020 12:08:18 3.8 C 39 %
362 27-02-2020 12:18:18 3.9 C 39 %
363 27-02-2020 12:28:18 3.8 C 40 %
364 27-02-2020 12:38:18 3.8 C 40 %
365 27-02-2020 12:48:17 3.5 C 40 %
366 27-02-2020 12:58:17 3.4 C 41 %
367 27-02-2020 13:08:18 3.3 C 41 %
368 27-02-2020 13:18:18 3.2 C 41 %
369 27-02-2020 13:28:18 3 C 42 %
370 27-02-2020 13:38:17 2.8 C 42 %
371 27-02-2020 13:48:17 2.6 C 43 %
372 27-02-2020 13:58:17 2.6 C 43 %
373 27-02-2020 14:08:17 2.6 C 44 %
374 27-02-2020 14:18:17 2.7 C 44 %
375 27-02-2020 14:28:17 2.5 C 44 %
Sensor: Nr:Datum:Temp:Feuchte:
Aussen-T/F 376 27-02-2020 14:38:18 2.5 C 44 %
377 27-02-2020 14:48:18 2.5 C 44 %
378 27-02-2020 14:58:18 2.4 C 44 %
379 27-02-2020 15:08:18 2.3 C 44 %
380 27-02-2020 15:18:18 2.2 C 44 %
381 27-02-2020 15:28:18 2.3 C 45 %
382 27-02-2020 15:38:18 2.1 C 44 %
383 27-02-2020 15:48:17 2.1 C 45 %
384 27-02-2020 15:58:17 1.8 C 46 %
385 27-02-2020 16:08:17 1.6 C 46 %
386 27-02-2020 16:18:17 1.1 C 46 %
387 27-02-2020 16:28:17 0.8 C 47 %
388 27-02-2020 16:38:18 0.4 C 48 %
389 27-02-2020 16:48:17 0.2 C 48 %
390 27-02-2020 16:58:17 0.2 C 48 %
391 27-02-2020 17:08:18 0 C 49 %
392 27-02-2020 17:18:18 0 C 48 %
393 27-02-2020 17:28:18 0 C 48 %
394 27-02-2020 17:38:17 0 C 48 %
395 27-02-2020 17:48:17 0 C 48 %
396 27-02-2020 17:58:17 0 C 48 %
397 27-02-2020 18:08:18 0.1 C 48 %
398 27-02-2020 18:18:17 0.1 C 48 %
399 27-02-2020 18:28:17 0.1 C 48 %
400 27-02-2020 18:38:17 0.1 C 48 %
Sensor: Nr:Datum:Temp:Feuchte:
Aussen-T/F 401 27-02-2020 18:48:18 0.1 C 48 %
402 27-02-2020 18:58:18 0.1 C 48 %
403 27-02-2020 19:08:18 0.3 C 48 %
404 27-02-2020 19:18:18 0.4 C 48 %
405 27-02-2020 19:28:18 0.3 C 48 %
406 27-02-2020 19:38:18 0.6 C 48 %
407 27-02-2020 19:48:18 0.6 C 48 %
408 27-02-2020 19:58:18 0.6 C 48 %
409 27-02-2020 20:08:18 0.7 C 48 %
410 27-02-2020 20:18:18 0.6 C 48 %
411 27-02-2020 20:28:18 0.8 C 48 %
412 27-02-2020 20:38:17 0.6 C 48 %
413 27-02-2020 20:48:17 0.5 C 48 %
414 27-02-2020 20:58:17 0.6 C 48 %
415 27-02-2020 21:08:17 0.6 C 48 %
416 27-02-2020 21:18:17 0.7 C 47 %
417 27-02-2020 21:28:17 0.7 C 47 %
418 27-02-2020 21:38:17 0.7 C 47 %
419 27-02-2020 21:48:17 0.7 C 47 %
420 27-02-2020 21:58:17 0.7 C 48 %
421 27-02-2020 22:08:18 0.7 C 48 %
422 27-02-2020 22:18:17 0.6 C 48 %
423 27-02-2020 22:28:18 0.7 C 49 %
424 27-02-2020 22:38:18 1 C 47 %
425 27-02-2020 22:48:17 1 C 45 %
Sensor: Nr:Datum:Temp:Feuchte:
Aussen-T/F 426 27-02-2020 22:58:18 1 C 46 %
427 27-02-2020 23:08:18 1.1 C 46 %
428 27-02-2020 23:18:18 1.4 C 46 %
429 27-02-2020 23:28:18 1.6 C 45 %
430 27-02-2020 23:38:18 1.5 C 44 %
431 27-02-2020 23:48:18 1.7 C 44 %
432 27-02-2020 23:58:18 1.6 C 43 %
433 28-02-2020 00:08:18 1.7 C 43 %
434 28-02-2020 00:18:17 1.9 C 43 %
435 28-02-2020 00:28:17 1.7 C 43 %
436 28-02-2020 00:38:18 1.6 C 45 %
437 28-02-2020 00:48:17 1.5 C 45 %
438 28-02-2020 00:58:17 1.7 C 45 %
439 28-02-2020 01:08:17 1.4 C 46 %
440 28-02-2020 01:18:17 1.4 C 46 %
441 28-02-2020 01:28:17 1.3 C 46 %
442 28-02-2020 01:38:17 1.5 C 45 %
443 28-02-2020 01:48:18 1.5 C 45 %
444 28-02-2020 01:58:18 1.4 C 45 %
445 28-02-2020 02:08:18 1.4 C 46 %
446 28-02-2020 02:18:18 1.4 C 45 %
447 28-02-2020 02:28:18 1.5 C 45 %
448 28-02-2020 02:38:18 1.4 C 44 %
449 28-02-2020 02:48:17 1.4 C 44 %
450 28-02-2020 02:58:18 1.4 C 43 %
Sensor: Nr:Datum:Temp:Feuchte:
Aussen-T/F 451 28-02-2020 03:08:18 1.5 C 42 %
452 28-02-2020 03:18:18 1.3 C 43 %
453 28-02-2020 03:28:18 1.1 C 43 %
454 28-02-2020 03:38:18 1 C 43 %
455 28-02-2020 03:48:17 0.9 C 44 %
456 28-02-2020 03:58:17 1.1 C 44 %
457 28-02-2020 04:08:17 1.2 C 43 %
458 28-02-2020 04:18:17 1.3 C 43 %
459 28-02-2020 04:28:18 1.3 C 43 %
460 28-02-2020 04:38:18 1.3 C 43 %
461 28-02-2020 04:48:17 1.3 C 43 %
462 28-02-2020 04:58:17 1.4 C 42 %
463 28-02-2020 05:08:17 1.2 C 42 %
464 28-02-2020 05:18:17 1 C 43 %
465 28-02-2020 05:28:17 0.9 C 45 %
466 28-02-2020 05:38:17 1 C 43 %
467 28-02-2020 05:48:17 1.1 C 42 %
468 28-02-2020 05:58:17 1.1 C 43 %
469 28-02-2020 06:08:17 0.8 C 44 %
470 28-02-2020 06:18:17 0.6 C 45 %
471 28-02-2020 06:28:17 0.8 C 44 %
472 28-02-2020 06:38:18 0.8 C 43 %
473 28-02-2020 06:48:18 0.7 C 44 %
474 28-02-2020 06:58:18 0.5 C 43 %
475 28-02-2020 07:08:18 0.6 C 43 %
Sensor: Nr:Datum:Temp:Feuchte:
Aussen-T/F 476 28-02-2020 07:18:17 0.2 C 45 %
477 28-02-2020 07:28:17 0.7 C 43 %
478 28-02-2020 07:38:17 0.7 C 43 %
479 28-02-2020 07:48:18 0.4 C 44 %
480 28-02-2020 07:58:18 0.4 C 44 %
481 28-02-2020 08:08:18 0.2 C 45 %
482 28-02-2020 08:18:18 0.4 C 44 %
483 28-02-2020 08:28:18 0.2 C 45 %
484 28-02-2020 08:38:17 0.7 C 44 %
485 28-02-2020 08:48:17 0.8 C 43 %
486 28-02-2020 08:58:17 1.1 C 42 %
487 28-02-2020 09:08:17 1.4 C 41 %
488 28-02-2020 09:18:17 1.3 C 42 %
489 28-02-2020 09:28:17 1.5 C 41 %
490 28-02-2020 09:38:17 1.7 C 41 %
491 28-02-2020 09:48:18 1.8 C 41 %
492 28-02-2020 09:58:18 1.9 C 41 %
493 28-02-2020 10:08:18 2.1 C 40 %
494 28-02-2020 10:18:18 2.5 C 40 %
495 28-02-2020 10:28:18 2.8 C 39 %
496 28-02-2020 10:38:17 3.2 C 37 %
497 28-02-2020 10:48:17 3.1 C 37 %
498 28-02-2020 10:58:17 3.3 C 37 %
499 28-02-2020 11:08:17 3.6 C 37 %
500 28-02-2020 11:18:17 3.8 C 37 %
Sensor: Nr:Datum:Temp:Feuchte:
Aussen-T/F 501 28-02-2020 11:28:17 4.2 C 36 %
502 28-02-2020 11:38:17 4.5 C 36 %
503 28-02-2020 11:48:18 3.8 C 37 %
504 28-02-2020 11:58:18 4.1 C 35 %
505 28-02-2020 12:08:18 4.3 C 35 %
506 28-02-2020 12:18:18 4.3 C 36 %
507 28-02-2020 12:28:18 4.6 C 35 %
508 28-02-2020 12:38:18 5.1 C 34 %
509 28-02-2020 12:48:18 6.3 C 33 %
510 28-02-2020 12:58:18 6.5 C 33 %
511 28-02-2020 13:08:18 6.8 C 32 %
512 28-02-2020 13:18:18 7.2 C 31 %
513 28-02-2020 13:28:18 6.7 C 31 %
514 28-02-2020 13:38:18 7 C 30 %
515 28-02-2020 13:48:17 7.8 C 29 %
516 28-02-2020 13:58:17 8 C 28 %
517 28-02-2020 14:08:18 8.1 C 27 %
518 28-02-2020 14:18:18 8 C 28 %
519 28-02-2020 14:28:18 8.2 C 28 %
520 28-02-2020 14:38:18 8.1 C 27 %
521 28-02-2020 14:48:17 8.3 C 27 %
522 28-02-2020 14:58:18 7.7 C 27 %
523 28-02-2020 15:08:18 8 C 27 %
524 28-02-2020 15:18:17 8 C 27 %
525 28-02-2020 15:28:17 8.8 C 26 %
Sensor: Nr:Datum:Temp:Feuchte:
Aussen-T/F 526 28-02-2020 15:38:18 8.5 C 25 %
527 28-02-2020 15:48:18 7.8 C 26 %
528 28-02-2020 15:58:18 7.8 C 26 %
529 28-02-2020 16:08:18 7.3 C 26 %
530 28-02-2020 16:18:18 7.5 C 27 %
531 28-02-2020 16:28:18 7 C 30 %
532 28-02-2020 16:38:18 6.8 C 31 %
533 28-02-2020 16:48:17 6.6 C 32 %
534 28-02-2020 16:58:18 6.7 C 31 %
535 28-02-2020 17:08:18 6.1 C 32 %
536 28-02-2020 17:18:18 5.8 C 35 %
537 28-02-2020 17:28:18 5.1 C 35 %
538 28-02-2020 17:38:18 5.2 C 35 %
539 28-02-2020 17:48:17 4.8 C 37 %
540 28-02-2020 17:58:18 4.6 C 37 %
541 28-02-2020 18:08:17 4.5 C 37 %
542 28-02-2020 18:18:17 4.5 C 37 %
543 28-02-2020 18:28:17 4.7 C 36 %
544 28-02-2020 18:38:18 5.1 C 34 %
545 28-02-2020 18:48:17 5.1 C 33 %
546 28-02-2020 18:58:17 4.9 C 35 %
547 28-02-2020 19:08:17 5 C 32 %
548 28-02-2020 19:18:17 5 C 32 %
549 28-02-2020 19:28:18 4.8 C 35 %
550 28-02-2020 19:38:17 5.3 C 33 %
Sensor: Nr:Datum:Temp:Feuchte:
Aussen-T/F 551 28-02-2020 19:48:17 5 C 34 %
552 28-02-2020 19:58:17 5 C 34 %
553 28-02-2020 20:08:17 4.7 C 35 %
554 28-02-2020 20:18:18 4.9 C 33 %
555 28-02-2020 20:28:18 4.5 C 35 %
556 28-02-2020 20:38:18 4.4 C 36 %
557 28-02-2020 20:48:17 4.1 C 36 %
558 28-02-2020 20:58:17 4 C 38 %
559 28-02-2020 21:08:18 3.7 C 40 %
560 28-02-2020 21:18:18 3.7 C 41 %
561 28-02-2020 21:28:18 3.8 C 40 %
562 28-02-2020 21:38:18 3.8 C 40 %
563 28-02-2020 21:48:17 4.2 C 37 %
564 28-02-2020 21:58:17 4 C 38 %
565 28-02-2020 22:08:18 3.9 C 39 %
566 28-02-2020 22:18:18 3.7 C 40 %
567 28-02-2020 22:28:18 3.7 C 41 %
568 28-02-2020 22:38:17 3.6 C 42 %
569 28-02-2020 22:48:17 3.5 C 44 %
570 28-02-2020 22:58:17 3.6 C 45 %
571 28-02-2020 23:08:17 3.4 C 46 %
572 28-02-2020 23:18:17 3.5 C 46 %
573 28-02-2020 23:28:18 3.6 C 45 %
574 28-02-2020 23:38:18 3.8 C 43 %
575 28-02-2020 23:48:18 3.9 C 44 %
Sensor: Nr:Datum:Temp:Feuchte:
Aussen-T/F 576 28-02-2020 23:58:18 3.9 C 44 %
577 29-02-2020 00:08:18 4.3 C 42 %
578 29-02-2020 00:18:18 4.5 C 42 %
579 29-02-2020 00:28:18 4.7 C 41 %
580 29-02-2020 00:38:18 5.1 C 40 %
581 29-02-2020 00:48:17 5 C 41 %
582 29-02-2020 00:58:17 4.8 C 42 %
583 29-02-2020 01:08:18 5 C 42 %
584 29-02-2020 01:18:18 4.8 C 43 %
585 29-02-2020 01:28:18 4.9 C 45 %
586 29-02-2020 01:38:18 5 C 44 %
587 29-02-2020 01:48:17 5.1 C 45 %
588 29-02-2020 01:58:17 5.1 C 45 %
589 29-02-2020 02:08:18 5.2 C 44 %
590 29-02-2020 02:18:18 5.2 C 45 %
591 29-02-2020 02:28:18 5.3 C 45 %
592 29-02-2020 02:38:18 5.6 C 44 %
593 29-02-2020 02:48:17 5.9 C 43 %
594 29-02-2020 02:58:17 7 C 41 %
595 29-02-2020 03:08:18 7.5 C 40 %
596 29-02-2020 03:18:18 7.8 C 39 %
597 29-02-2020 03:28:18 8.5 C 38 %
598 29-02-2020 03:38:18 8.3 C 38 %
599 29-02-2020 03:48:17 8.8 C 38 %
600 29-02-2020 03:58:17 8.9 C 38 %
Sensor: Nr:Datum:Temp:Feuchte:
Aussen-T/F 601 29-02-2020 04:08:18 9.1 C 37 %
602 29-02-2020 04:18:17 9.4 C 37 %
603 29-02-2020 04:28:18 9.5 C 37 %
604 29-02-2020 04:38:18 9 C 37 %
605 29-02-2020 04:48:17 9.3 C 37 %
606 29-02-2020 04:58:17 9 C 37 %
607 29-02-2020 05:08:18 9.1 C 37 %
608 29-02-2020 05:18:17 9 C 37 %
609 29-02-2020 05:28:17 9.2 C 36 %
610 29-02-2020 05:38:17 8.6 C 37 %
611 29-02-2020 05:48:18 8.8 C 37 %
612 29-02-2020 05:58:18 9.1 C 36 %
613 29-02-2020 06:08:17 8.8 C 37 %
614 29-02-2020 06:18:17 8.4 C 37 %
615 29-02-2020 06:28:17 8.6 C 37 %
616 29-02-2020 06:38:17 8.7 C 37 %
617 29-02-2020 06:48:17 8.6 C 37 %
618 29-02-2020 06:58:17 8.4 C 37 %
619 29-02-2020 07:08:17 8.1 C 37 %
620 29-02-2020 07:18:17 8 C 37 %
621 29-02-2020 07:28:17 8.3 C 37 %
622 29-02-2020 07:38:17 7.8 C 38 %
623 29-02-2020 07:48:17 7.6 C 38 %
624 29-02-2020 07:58:17 7.3 C 39 %
625 29-02-2020 08:08:17 7.6 C 38 %
Sensor: Nr:Datum:Temp:Feuchte:
Aussen-T/F 626 29-02-2020 08:18:17 7.4 C 39 %
627 29-02-2020 08:28:17 7.5 C 39 %
628 29-02-2020 08:38:17 7.4 C 39 %
629 29-02-2020 08:48:17 7.6 C 39 %
630 29-02-2020 08:58:17 8 C 38 %
631 29-02-2020 09:08:17 8.3 C 37 %
632 29-02-2020 09:18:17 8.9 C 36 %
633 29-02-2020 09:28:17 9.2 C 36 %
634 29-02-2020 09:38:17 9.6 C 35 %
635 29-02-2020 09:48:17 10 C 33 %
636 29-02-2020 09:58:17 10 C 32 %
637 29-02-2020 10:08:17 10 C 32 %
638 29-02-2020 10:18:17 9.9 C 33 %
639 29-02-2020 10:28:17 10.1 C 31 %
640 29-02-2020 10:38:18 10.4 C 31 %
641 29-02-2020 10:48:17 10.7 C 31 %
642 29-02-2020 10:58:17 10.7 C 31 %
643 29-02-2020 11:08:18 11.1 C 30 %
644 29-02-2020 11:18:17 12.1 C 30 %
645 29-02-2020 11:28:17 13.9 C 25 %
646 29-02-2020 11:38:17 13.7 C 23 %
647 29-02-2020 11:48:17 13.4 C 24 %
648 29-02-2020 11:58:17 14.3 C 23 %
649 29-02-2020 12:08:17 15.5 C 20 %
650 29-02-2020 12:18:18 15.4 C 20 %
Sensor: Nr:Datum:Temp:Feuchte:
Aussen-T/F 651 29-02-2020 12:28:18 15.1 C 20 %
652 29-02-2020 12:38:17 16.2 C 20 %
653 29-02-2020 12:48:17 15.1 C 20 %
654 29-02-2020 12:58:17 15.4 C 20 %
655 29-02-2020 13:08:17 15.5 C 20 %
656 29-02-2020 13:18:17 15 C 20 %
657 29-02-2020 13:28:17 14.8 C 20 %
658 29-02-2020 13:38:18 15.4 C 20 %
659 29-02-2020 13:48:18 15.6 C 20 %
660 29-02-2020 13:58:18 16.4 C 20 %
661 29-02-2020 14:08:18 15.1 C 20 %
662 29-02-2020 14:18:17 15.1 C 20 %
663 29-02-2020 14:28:17 14.8 C 21 %
664 29-02-2020 14:38:17 13.1 C 26 %
665 29-02-2020 14:48:17 12 C 32 %
666 29-02-2020 14:58:17 10.5 C 38 %
667 29-02-2020 15:08:17 10.4 C 39 %
668 29-02-2020 15:18:17 10.8 C 39 %
669 29-02-2020 15:28:17 10.6 C 40 %
670 29-02-2020 15:38:18 10.4 C 39 %
671 29-02-2020 15:48:17 10.7 C 37 %
672 29-02-2020 15:58:17 11.3 C 35 %
673 29-02-2020 16:08:18 12.6 C 32 %
674 29-02-2020 16:18:17 12 C 32 %
675 29-02-2020 16:28:18 10.7 C 35 %
Sensor: Nr:Datum:Temp:Feuchte:
Aussen-T/F 676 29-02-2020 16:38:18 10.1 C 37 %
677 29-02-2020 16:48:17 9.9 C 37 %
678 29-02-2020 16:58:17 9.5 C 36 %
679 29-02-2020 17:08:18 9 C 35 %
680 29-02-2020 17:18:17 8.9 C 35 %
681 29-02-2020 17:28:18 8.8 C 34 %
682 29-02-2020 17:38:18 8.6 C 34 %
683 29-02-2020 17:48:18 8.6 C 35 %
684 29-02-2020 17:58:18 8.7 C 34 %
685 29-02-2020 18:08:18 8.6 C 35 %
686 29-02-2020 18:18:18 8.2 C 35 %
687 29-02-2020 18:28:18 8.1 C 35 %
688 29-02-2020 18:38:18 8 C 35 %
689 29-02-2020 18:48:17 6.7 C 36 %
690 29-02-2020 18:58:17 5.9 C 36 %
691 29-02-2020 19:08:17 5.9 C 37 %
692 29-02-2020 19:18:18 6 C 36 %
693 29-02-2020 19:28:18 6.3 C 35 %
694 29-02-2020 19:38:18 6.7 C 34 %
695 29-02-2020 19:48:18 6.6 C 34 %
696 29-02-2020 19:58:18 6.7 C 34 %
697 29-02-2020 20:08:18 6.6 C 34 %
698 29-02-2020 20:18:18 6.3 C 34 %
699 29-02-2020 20:28:18 6.3 C 34 %
700 29-02-2020 20:38:18 5.9 C 35 %
Sensor: Nr:Datum:Temp:Feuchte:
Aussen-T/F 701 29-02-2020 20:48:18 5.7 C 35 %
702 29-02-2020 20:58:18 5.3 C 35 %
703 29-02-2020 21:08:18 5.2 C 35 %
704 29-02-2020 21:18:17 5.7 C 34 %
705 29-02-2020 21:28:17 5 C 35 %
706 29-02-2020 21:38:17 5 C 35 %
707 29-02-2020 21:48:17 4.3 C 36 %
708 29-02-2020 21:58:17 3.9 C 38 %
709 29-02-2020 22:08:17 3.7 C 38 %
710 29-02-2020 22:18:18 3.4 C 39 %
711 29-02-2020 22:28:18 3.3 C 40 %
712 29-02-2020 22:38:18 3.3 C 41 %
713 29-02-2020 22:48:17 3.7 C 40 %
714 29-02-2020 22:58:18 4 C 39 %
715 29-02-2020 23:08:18 4.2 C 38 %
716 29-02-2020 23:18:18 4.4 C 38 %
717 29-02-2020 23:28:18 4.5 C 38 %
718 29-02-2020 23:38:18 4.7 C 38 %
719 29-02-2020 23:48:18 5.4 C 36 %
720 29-02-2020 23:58:18 6.3 C 35 %
721 01-03-2020 00:08:18 6.6 C 35 %
722 01-03-2020 00:18:18 6.6 C 35 %
723 01-03-2020 00:28:18 6.3 C 35 %
724 01-03-2020 00:38:18 6.2 C 35 %
725 01-03-2020 00:48:17 6.2 C 35 %
Sensor: Nr:Datum:Temp:Feuchte:
Aussen-T/F 726 01-03-2020 00:58:18 6.2 C 35 %
727 01-03-2020 01:08:17 6.1 C 35 %
728 01-03-2020 01:18:18 6 C 35 %
729 01-03-2020 01:28:18 5.7 C 35 %
730 01-03-2020 01:38:18 5.5 C 36 %
731 01-03-2020 01:48:17 5.8 C 36 %
732 01-03-2020 01:58:17 5.8 C 35 %
733 01-03-2020 02:08:17 5.3 C 36 %
734 01-03-2020 02:18:17 5.8 C 36 %
735 01-03-2020 02:28:17 5.7 C 36 %
736 01-03-2020 02:38:17 5.8 C 36 %
737 01-03-2020 02:48:17 6.2 C 35 %
738 01-03-2020 02:58:17 6.5 C 35 %
739 01-03-2020 03:08:18 6.5 C 35 %
740 01-03-2020 03:18:17 6.6 C 35 %
741 01-03-2020 03:28:17 6.7 C 35 %
742 01-03-2020 03:38:18 6.5 C 35 %
743 01-03-2020 03:48:17 6.4 C 35 %
744 01-03-2020 03:58:17 6.8 C 35 %
745 01-03-2020 04:08:17 6.6 C 35 %
746 01-03-2020 04:18:17 6.9 C 34 %
747 01-03-2020 04:28:17 7 C 33 %
748 01-03-2020 04:38:18 6.9 C 34 %
749 01-03-2020 04:48:17 7.1 C 33 %
750 01-03-2020 04:58:17 7 C 33 %
Sensor: Nr:Datum:Temp:Feuchte:
Aussen-T/F 751 01-03-2020 05:08:17 7.1 C 33 %
752 01-03-2020 05:18:18 6.8 C 34 %
753 01-03-2020 05:28:18 7.2 C 32 %
754 01-03-2020 05:38:18 6.8 C 34 %
755 01-03-2020 05:48:17 6.9 C 34 %
756 01-03-2020 05:58:18 6.6 C 34 %
757 01-03-2020 06:08:18 6.7 C 34 %
758 01-03-2020 06:18:17 6.8 C 34 %
759 01-03-2020 06:28:17 7 C 33 %
760 01-03-2020 06:38:17 7.1 C 33 %
761 01-03-2020 06:48:17 6.4 C 35 %
762 01-03-2020 06:58:17 5.9 C 36 %
763 01-03-2020 07:08:17 5.4 C 38 %
764 01-03-2020 07:18:17 5.4 C 39 %
765 01-03-2020 07:28:18 5.2 C 39 %
766 01-03-2020 07:38:18 5.1 C 41 %
767 01-03-2020 07:48:18 5.2 C 41 %
768 01-03-2020 07:58:18 5.2 C 42 %
769 01-03-2020 08:08:18 5.2 C 42 %
770 01-03-2020 08:18:17 5.3 C 42 %
771 01-03-2020 08:28:17 5 C 40 %
772 01-03-2020 08:38:17 4.7 C 41 %
773 01-03-2020 08:48:17 4 C 41 %
774 01-03-2020 08:58:17 4 C 42 %
775 01-03-2020 09:08:17 4.1 C 42 %
Sensor: Nr:Datum:Temp:Feuchte:
Aussen-T/F 776 01-03-2020 09:18:17 4.3 C 41 %
777 01-03-2020 09:28:17 4.8 C 40 %
778 01-03-2020 09:38:17 4.8 C 41 %
779 01-03-2020 09:48:18 4.7 C 41 %
780 01-03-2020 09:58:18 4.8 C 41 %
781 01-03-2020 10:08:17 5.3 C 40 %
782 01-03-2020 10:18:17 5.7 C 39 %
783 01-03-2020 10:28:17 7.1 C 36 %
784 01-03-2020 10:38:17 7.6 C 36 %
785 01-03-2020 10:48:17 7.8 C 35 %
786 01-03-2020 10:58:17 8 C 34 %
787 01-03-2020 11:08:17 8.1 C 33 %
788 01-03-2020 11:18:17 8.6 C 33 %
789 01-03-2020 11:28:18 10 C 30 %
790 01-03-2020 11:38:18 10.2 C 28 %
791 01-03-2020 11:48:17 8.8 C 29 %
792 01-03-2020 11:58:17 10.2 C 27 %
793 01-03-2020 12:08:17 8.9 C 30 %
794 01-03-2020 12:18:17 9.3 C 28 %
795 01-03-2020 12:28:17 9.7 C 27 %
796 01-03-2020 12:38:18 9.2 C 28 %
797 01-03-2020 12:48:18 11.4 C 26 %
798 01-03-2020 12:58:18 12.3 C 21 %
799 01-03-2020 13:08:18 11.4 C 24 %
800 01-03-2020 13:18:17 10.4 C 25 %
Sensor: Nr:Datum:Temp:Feuchte:
Aussen-T/F 801 01-03-2020 13:28:17 10.4 C 25 %
802 01-03-2020 13:38:17 10.6 C 22 %
803 01-03-2020 13:48:17 10.2 C 22 %
804 01-03-2020 13:58:17 10.8 C 22 %
805 01-03-2020 14:08:18 10.1 C 23 %
806 01-03-2020 14:18:18 9.9 C 25 %
807 01-03-2020 14:28:18 10.9 C 25 %
808 01-03-2020 14:38:18 10.5 C 23 %
809 01-03-2020 14:48:17 10.9 C 25 %
810 01-03-2020 14:58:18 10.1 C 25 %
811 01-03-2020 15:08:18 10.1 C 25 %
812 01-03-2020 15:18:17 12.6 C 20 %
813 01-03-2020 15:28:17 11.9 C 22 %
814 01-03-2020 15:38:18 12 C 20 %
815 01-03-2020 15:48:18 12.8 C 20 %
816 01-03-2020 15:58:18 11.7 C 21 %
817 01-03-2020 16:08:18 10.8 C 25 %
818 01-03-2020 16:18:18 10.5 C 25 %
819 01-03-2020 16:28:18 10.7 C 25 %
820 01-03-2020 16:38:18 10.3 C 30 %
821 01-03-2020 16:48:18 10.2 C 29 %
822 01-03-2020 16:58:18 9.7 C 31 %
823 01-03-2020 17:08:18 8.4 C 35 %
824 01-03-2020 17:18:17 7.8 C 39 %
825 01-03-2020 17:28:17 7.6 C 42 %
Sensor: Nr:Datum:Temp:Feuchte:
Aussen-T/F 826 01-03-2020 17:38:17 7.3 C 43 %
827 01-03-2020 17:48:17 7 C 44 %
828 01-03-2020 17:58:17 6.9 C 45 %
829 01-03-2020 18:08:18 6.8 C 45 %
830 01-03-2020 18:18:18 6.7 C 45 %
831 01-03-2020 18:28:18 6.7 C 45 %
832 01-03-2020 18:38:18 6.7 C 45 %
833 01-03-2020 18:48:18 6.6 C 45 %
834 01-03-2020 18:58:18 6.5 C 45 %
835 01-03-2020 19:08:18 6.5 C 45 %
836 01-03-2020 19:18:17 6.5 C 45 %
837 01-03-2020 19:28:17 6.4 C 45 %
838 01-03-2020 19:38:17 6.3 C 45 %
839 01-03-2020 19:48:17 6.3 C 45 %
840 01-03-2020 19:58:17 6.2 C 45 %
841 01-03-2020 20:08:17 6.3 C 45 %
842 01-03-2020 20:18:17 6.2 C 45 %
843 01-03-2020 20:28:17 6 C 45 %
844 01-03-2020 20:38:17 5.8 C 45 %
845 01-03-2020 20:48:17 5.7 C 45 %
846 01-03-2020 20:58:17 5.6 C 45 %
847 01-03-2020 21:08:17 5.6 C 45 %
848 01-03-2020 21:18:17 5.5 C 45 %
849 01-03-2020 21:28:17 5.4 C 45 %
850 01-03-2020 21:38:17 5.7 C 45 %
Sensor: Nr:Datum:Temp:Feuchte:
Aussen-T/F 851 01-03-2020 21:48:17 5.8 C 45 %
852 01-03-2020 21:58:17 5.9 C 45 %
853 01-03-2020 22:08:17 6 C 45 %
854 01-03-2020 22:18:17 6 C 45 %
855 01-03-2020 22:28:17 6.1 C 45 %
856 01-03-2020 22:38:18 6.2 C 45 %
857 01-03-2020 22:48:17 6.2 C 45 %
858 01-03-2020 22:58:17 6.3 C 45 %
859 01-03-2020 23:08:18 6.4 C 45 %
860 01-03-2020 23:18:18 5.8 C 45 %
861 01-03-2020 23:28:18 4.3 C 40 %
862 01-03-2020 23:38:18 3.1 C 41 %
863 01-03-2020 23:48:18 2.9 C 44 %
864 01-03-2020 23:58:18 3.1 C 44 %
865 02-03-2020 00:08:18 3.3 C 44 %
866 02-03-2020 00:18:17 3.3 C 43 %
867 02-03-2020 00:28:17 3.5 C 43 %
868 02-03-2020 00:38:17 3.5 C 43 %
869 02-03-2020 00:48:17 3.7 C 42 %
870 02-03-2020 00:58:18 3.6 C 42 %
871 02-03-2020 01:08:18 3.7 C 42 %
872 02-03-2020 01:18:17 3.9 C 41 %
873 02-03-2020 01:28:17 3.8 C 42 %
874 02-03-2020 01:38:17 3.8 C 41 %
875 02-03-2020 01:48:18 4 C 40 %
Sensor: Nr:Datum:Temp:Feuchte:
Aussen-T/F 876 02-03-2020 01:58:18 3.5 C 42 %
877 02-03-2020 02:08:18 3.7 C 42 %
878 02-03-2020 02:18:17 3.6 C 42 %
879 02-03-2020 02:28:17 3.5 C 42 %
880 02-03-2020 02:38:17 4 C 40 %
881 02-03-2020 02:48:17 3.8 C 41 %
882 02-03-2020 02:58:18 3.5 C 42 %
883 02-03-2020 03:08:18 3.3 C 43 %
884 02-03-2020 03:18:18 3.4 C 42 %
885 02-03-2020 03:28:18 2.9 C 44 %
886 02-03-2020 03:38:18 2.4 C 45 %
887 02-03-2020 03:48:18 2.9 C 45 %
888 02-03-2020 03:58:18 2.6 C 45 %
889 02-03-2020 04:08:18 2.3 C 45 %
890 02-03-2020 04:18:17 2 C 46 %
891 02-03-2020 04:28:17 2.2 C 46 %
892 02-03-2020 04:38:18 2.3 C 47 %
893 02-03-2020 04:48:18 2.2 C 46 %
894 02-03-2020 04:58:18 1.9 C 48 %
895 02-03-2020 05:08:18 1.7 C 48 %
896 02-03-2020 05:18:17 1.5 C 48 %
897 02-03-2020 05:28:17 1.3 C 48 %
898 02-03-2020 05:38:18 1.4 C 48 %
899 02-03-2020 05:48:18 1.4 C 48 %
900 02-03-2020 05:58:18 1.3 C 48 %
Sensor: Nr:Datum:Temp:Feuchte:
Aussen-T/F 901 02-03-2020 06:08:18 1.1 C 48 %
902 02-03-2020 06:18:18 1.3 C 48 %
903 02-03-2020 06:28:18 1.3 C 48 %
904 02-03-2020 06:38:18 1.4 C 48 %
905 02-03-2020 06:48:17 1.4 C 48 %
906 02-03-2020 06:58:17 1.5 C 48 %
907 02-03-2020 07:08:18 1.5 C 48 %
908 02-03-2020 07:18:18 1.7 C 48 %
909 02-03-2020 07:28:18 1.8 C 48 %
910 02-03-2020 07:38:18 2.1 C 47 %
911 02-03-2020 07:48:18 2.3 C 47 %
912 02-03-2020 07:58:18 2.5 C 47 %
913 02-03-2020 08:08:18 2.5 C 47 %
914 02-03-2020 08:18:17 2.7 C 47 %
915 02-03-2020 08:28:17 3 C 46 %
916 02-03-2020 08:38:18 3.2 C 46 %
917 02-03-2020 08:48:18 3.5 C 46 %
918 02-03-2020 08:58:18 3.8 C 45 %
919 02-03-2020 09:08:17 4.1 C 43 %
920 02-03-2020 09:18:17 4.5 C 42 %
921 02-03-2020 09:28:17 4.9 C 40 %
922 02-03-2020 09:38:17 5.4 C 39 %
923 02-03-2020 09:48:17 5.7 C 39 %
924 02-03-2020 09:58:17 6.1 C 38 %
925 02-03-2020 10:08:17 6.6 C 37 %
Sensor: Nr:Datum:Temp:Feuchte:
Aussen-T/F 926 02-03-2020 10:18:17 6.9 C 36 %
927 02-03-2020 10:28:17 7.4 C 35 %
928 02-03-2020 10:38:18 8.2 C 34 %
929 02-03-2020 10:48:17 8.9 C 34 %
930 02-03-2020 10:58:17 9 C 33 %
931 02-03-2020 11:08:17 9 C 33 %
932 02-03-2020 11:18:17 11.5 C 30 %
933 02-03-2020 11:28:17 13 C 26 %
934 02-03-2020 11:38:17 13.9 C 25 %
935 02-03-2020 11:48:17 11.8 C 27 %
936 02-03-2020 11:58:17 13.6 C 24 %
937 02-03-2020 12:08:17 13.3 C 21 %
938 02-03-2020 12:18:17 13.2 C 21 %
939 02-03-2020 12:28:17 12.3 C 23 %
940 02-03-2020 12:38:18 13 C 23 %
941 02-03-2020 12:48:18 11.8 C 24 %
942 02-03-2020 12:58:18 11.7 C 25 %
943 02-03-2020 13:08:18 12.4 C 23 %
944 02-03-2020 13:18:18 14.7 C 20 %
945 02-03-2020 13:28:18 14.2 C 20 %
946 02-03-2020 13:38:17 15.6 C 20 %
947 02-03-2020 13:48:17 14.1 C 20 %
948 02-03-2020 13:58:17 12.3 C 21 %
949 02-03-2020 14:08:17 11.8 C 23 %
950 02-03-2020 14:18:17 12.1 C 23 %
Sensor: Nr:Datum:Temp:Feuchte:
Aussen-T/F 951 02-03-2020 14:28:17 11.7 C 25 %
952 02-03-2020 14:38:17 11.2 C 25 %
953 02-03-2020 14:48:17 10.9 C 25 %
954 02-03-2020 14:58:17 10.8 C 26 %
955 02-03-2020 15:08:18 10.9 C 26 %
956 02-03-2020 15:18:18 10.9 C 26 %
957 02-03-2020 15:28:18 10.2 C 26 %
958 02-03-2020 15:38:18 9.2 C 30 %
959 02-03-2020 15:48:17 8.7 C 33 %
960 02-03-2020 15:58:18 8.4 C 36 %
961 02-03-2020 16:08:18 8 C 40 %
962 02-03-2020 16:18:18 7.6 C 41 %
963 02-03-2020 16:28:18 7.3 C 42 %
964 02-03-2020 16:38:18 7.2 C 43 %
965 02-03-2020 16:48:17 7.1 C 43 %
966 02-03-2020 16:58:17 7 C 44 %
967 02-03-2020 17:08:17 6.9 C 45 %
968 02-03-2020 17:18:17 6.6 C 45 %
969 02-03-2020 17:28:17 6.6 C 45 %
970 02-03-2020 17:38:18 6.4 C 45 %
971 02-03-2020 17:48:17 6.3 C 45 %
972 02-03-2020 17:58:18 6.3 C 45 %
973 02-03-2020 18:08:18 6.2 C 45 %
974 02-03-2020 18:18:18 6.1 C 45 %
975 02-03-2020 18:28:18 6 C 45 %
Sensor: Nr:Datum:Temp:Feuchte:
Aussen-T/F 976 02-03-2020 18:38:18 5.9 C 46 %
977 02-03-2020 18:48:17 5.9 C 46 %
978 02-03-2020 18:58:18 5.8 C 46 %
979 02-03-2020 19:08:18 5.7 C 46 %
980 02-03-2020 19:18:18 5.7 C 46 %
981 02-03-2020 19:28:18 5.7 C 46 %
982 02-03-2020 19:38:18 5.7 C 46 %
983 02-03-2020 19:48:17 5.7 C 45 %
984 02-03-2020 19:58:18 5.7 C 45 %
985 02-03-2020 20:08:18 5.7 C 45 %
986 02-03-2020 20:18:17 5.7 C 45 %
987 02-03-2020 20:28:18 5.6 C 45 %
988 02-03-2020 20:38:18 5.6 C 45 %
989 02-03-2020 20:48:17 5.6 C 45 %
990 02-03-2020 20:58:17 5.5 C 45 %
991 02-03-2020 21:08:18 5.4 C 45 %
992 02-03-2020 21:18:18 5.4 C 45 %
993 02-03-2020 21:28:18 5.4 C 45 %
994 02-03-2020 21:38:18 5.4 C 45 %
995 02-03-2020 21:48:18 5.4 C 45 %
996 02-03-2020 21:58:18 5.4 C 45 %
997 02-03-2020 22:08:18 5.4 C 45 %
998 02-03-2020 22:18:17 5.4 C 45 %
999 02-03-2020 22:28:17 5.5 C 45 %
1000 02-03-2020 22:38:17 5.4 C 45 %
Sensor: Nr:Datum:Temp:Feuchte:
Aussen-T/F 1001 02-03-2020 22:48:17 5.5 C 45 %
1002 02-03-2020 22:58:17 5.5 C 45 %
1003 02-03-2020 23:08:17 5.5 C 45 %
1004 02-03-2020 23:18:17 5.2 C 45 %
1005 02-03-2020 23:28:17 5.2 C 45 %
1006 02-03-2020 23:38:17 5.2 C 45 %
1007 02-03-2020 23:48:17 5.3 C 45 %
1008 02-03-2020 23:58:17 5.3 C 45 %
1009 03-03-2020 00:08:18 5.2 C 45 %
1010 03-03-2020 00:18:18 5.1 C 44 %
1011 03-03-2020 00:28:18 5 C 44 %
1012 03-03-2020 00:38:18 5 C 44 %
1013 03-03-2020 00:48:17 4.9 C 45 %
1014 03-03-2020 00:58:17 4.9 C 45 %
1015 03-03-2020 01:08:17 5.1 C 44 %
1016 03-03-2020 01:18:17 5 C 43 %
1017 03-03-2020 01:28:17 5 C 43 %
1018 03-03-2020 01:38:18 4.6 C 41 %
1019 03-03-2020 01:48:17 4.5 C 42 %
1020 03-03-2020 01:58:17 4.4 C 43 %
1021 03-03-2020 02:08:17 4.4 C 43 %
1022 03-03-2020 02:18:17 4.2 C 42 %
1023 03-03-2020 02:28:17 4.1 C 41 %
1024 03-03-2020 02:38:18 4.1 C 41 %
1025 03-03-2020 02:48:18 4.1 C 41 %
Sensor: Nr:Datum:Temp:Feuchte:
Aussen-T/F 1026 03-03-2020 02:58:18 3.9 C 42 %
1027 03-03-2020 03:08:17 3.8 C 41 %
1028 03-03-2020 03:18:17 3.7 C 40 %
1029 03-03-2020 03:28:17 3.4 C 41 %
1030 03-03-2020 03:38:18 3.5 C 41 %
1031 03-03-2020 03:48:18 3 C 42 %
1032 03-03-2020 03:58:18 3.1 C 42 %
1033 03-03-2020 04:08:17 2.8 C 43 %
1034 03-03-2020 04:18:17 3.2 C 41 %
1035 03-03-2020 04:28:17 3.2 C 41 %
1036 03-03-2020 04:38:18 2.9 C 42 %
1037 03-03-2020 04:48:17 2.9 C 43 %
1038 03-03-2020 04:58:18 3.2 C 41 %
1039 03-03-2020 05:08:18 3.1 C 41 %
1040 03-03-2020 05:18:18 2.7 C 43 %
1041 03-03-2020 05:28:18 2.3 C 44 %
1042 03-03-2020 05:38:17 2.6 C 43 %
1043 03-03-2020 05:48:18 2.7 C 42 %
1044 03-03-2020 05:58:18 2.4 C 44 %
1045 03-03-2020 06:08:17 3 C 42 %
1046 03-03-2020 06:18:18 3.1 C 41 %
1047 03-03-2020 06:28:18 2.8 C 42 %
1048 03-03-2020 06:38:17 2.6 C 43 %
1049 03-03-2020 06:48:18 2.7 C 42 %
1050 03-03-2020 06:58:18 2.8 C 42 %
Sensor: Nr:Datum:Temp:Feuchte:
Aussen-T/F 1051 03-03-2020 07:08:18 2.8 C 42 %
1052 03-03-2020 07:18:18 2.6 C 43 %
1053 03-03-2020 07:28:18 2.7 C 43 %
1054 03-03-2020 07:38:18 2.6 C 43 %
1055 03-03-2020 07:48:17 2.5 C 43 %
1056 03-03-2020 07:58:17 2.5 C 43 %
1057 03-03-2020 08:08:18 2.7 C 43 %
1058 03-03-2020 08:18:18 3.3 C 41 %
1059 03-03-2020 08:28:18 3.2 C 41 %
1060 03-03-2020 08:38:17 3.5 C 40 %
1061 03-03-2020 08:48:17 3.6 C 40 %
1062 03-03-2020 08:58:18 3.4 C 40 %
1063 03-03-2020 09:08:18 3.5 C 40 %
1064 03-03-2020 09:18:17 3.2 C 40 %
1065 03-03-2020 09:28:17 3.5 C 40 %
1066 03-03-2020 09:38:17 3.6 C 40 %
1067 03-03-2020 09:48:18 4.1 C 39 %
1068 03-03-2020 09:58:18 4.6 C 38 %
1069 03-03-2020 10:08:18 5.3 C 36 %
1070 03-03-2020 10:18:18 5.1 C 36 %
1071 03-03-2020 10:28:18 5.2 C 35 %
1072 03-03-2020 10:38:18 5.4 C 35 %
1073 03-03-2020 10:48:17 4.9 C 35 %
1074 03-03-2020 10:58:18 5 C 35 %
1075 03-03-2020 11:08:17 5.2 C 35 %
Sensor: Nr:Datum:Temp:Feuchte:
Aussen-T/F 1076 03-03-2020 11:18:17 5.2 C 35 %
1077 03-03-2020 11:28:17 5.3 C 35 %
1078 03-03-2020 11:38:17 5.1 C 35 %
1079 03-03-2020 11:48:17 5.8 C 35 %
1080 03-03-2020 11:58:17 5.7 C 35 %
1081 03-03-2020 12:08:17 6.1 C 35 %
1082 03-03-2020 12:18:17 6.4 C 34 %
1083 03-03-2020 12:28:17 6.6 C 34 %
1084 03-03-2020 12:38:17 6.5 C 33 %
1085 03-03-2020 12:48:17 7.1 C 33 %
1086 03-03-2020 12:58:17 6.6 C 33 %
1087 03-03-2020 13:08:17 6.6 C 33 %
1088 03-03-2020 13:18:17 9.6 C 28 %
1089 03-03-2020 13:28:18 9.8 C 27 %
1090 03-03-2020 13:38:18 8.9 C 27 %
1091 03-03-2020 13:48:17 9.7 C 25 %
1092 03-03-2020 13:58:17 6.2 C 31 %
1093 03-03-2020 14:08:18 5.8 C 35 %
1094 03-03-2020 14:18:18 5.4 C 39 %
1095 03-03-2020 14:28:18 5.7 C 38 %
1096 03-03-2020 14:38:18 5 C 37 %
1097 03-03-2020 14:48:18 4.7 C 39 %
1098 03-03-2020 14:58:18 4.7 C 40 %
1099 03-03-2020 15:08:18 4.7 C 39 %
1100 03-03-2020 15:18:18 6.8 C 36 %
Sensor: Nr:Datum:Temp:Feuchte:
Aussen-T/F 1101 03-03-2020 15:28:18 6.9 C 35 %
1102 03-03-2020 15:38:18 8.9 C 32 %
1103 03-03-2020 15:48:17 8.9 C 30 %
1104 03-03-2020 15:58:17 7.4 C 32 %
1105 03-03-2020 16:08:18 11.8 C 23 %
1106 03-03-2020 16:18:18 9.3 C 25 %
1107 03-03-2020 16:28:18 7.4 C 30 %
1108 03-03-2020 16:38:18 7.2 C 30 %
1109 03-03-2020 16:48:17 7.3 C 31 %
1110 03-03-2020 16:58:17 7.6 C 30 %
1111 03-03-2020 17:08:17 6.7 C 32 %
1112 03-03-2020 17:18:17 6.7 C 33 %
1113 03-03-2020 17:28:18 6.5 C 34 %
1114 03-03-2020 17:38:18 6.4 C 34 %
1115 03-03-2020 17:48:17 6 C 35 %
1116 03-03-2020 17:58:18 5.4 C 36 %
1117 03-03-2020 18:08:18 4.3 C 38 %
1118 03-03-2020 18:18:18 4.4 C 39 %
1119 03-03-2020 18:28:18 4 C 39 %
1120 03-03-2020 18:38:18 3.7 C 41 %
1121 03-03-2020 18:48:17 3.5 C 41 %
1122 03-03-2020 18:58:17 3.6 C 41 %
1123 03-03-2020 19:08:17 3.6 C 40 %
1124 03-03-2020 19:18:17 3.8 C 40 %
1125 03-03-2020 19:28:17 3.1 C 41 %
Sensor: Nr:Datum:Temp:Feuchte:
Aussen-T/F 1126 03-03-2020 19:38:17 3.2 C 41 %
1127 03-03-2020 19:48:17 2.7 C 42 %
1128 03-03-2020 19:58:17 2.3 C 42 %
1129 03-03-2020 20:08:17 1.7 C 45 %
1130 03-03-2020 20:18:17 1.8 C 47 %
1131 03-03-2020 20:28:17 1.7 C 47 %
1132 03-03-2020 20:38:17 1.3 C 46 %
1133 03-03-2020 20:48:17 1.4 C 47 %
1134 03-03-2020 20:58:17 1.3 C 47 %
1135 03-03-2020 21:08:17 1.2 C 47 %
1136 03-03-2020 21:18:17 1.6 C 48 %
1137 03-03-2020 21:28:17 2 C 47 %
1138 03-03-2020 21:38:17 2.1 C 45 %
1139 03-03-2020 21:48:17 2 C 45 %
1140 03-03-2020 21:58:17 2.2 C 45 %
1141 03-03-2020 22:08:17 1.9 C 46 %
1142 03-03-2020 22:18:17 1.5 C 46 %
1143 03-03-2020 22:28:17 1.4 C 47 %
1144 03-03-2020 22:38:17 1.2 C 47 %
1145 03-03-2020 22:48:17 1 C 47 %
1146 03-03-2020 22:58:17 1.2 C 48 %
1147 03-03-2020 23:08:17 1.7 C 48 %
1148 03-03-2020 23:18:18 2.3 C 46 %
1149 03-03-2020 23:28:18 2.4 C 44 %
1150 03-03-2020 23:38:17 2.6 C 44 %
Sensor: Nr:Datum:Temp:Feuchte:
Aussen-T/F 1151 03-03-2020 23:48:17 2.7 C 43 %
1152 03-03-2020 23:58:17 2.8 C 43 %
1153 04-03-2020 00:08:17 3.1 C 42 %
1154 04-03-2020 00:18:18 3 C 41 %
1155 04-03-2020 00:28:18 2.9 C 42 %
1156 04-03-2020 00:38:18 3.1 C 41 %
1157 04-03-2020 00:48:17 2.5 C 42 %
1158 04-03-2020 00:58:17 2.3 C 44 %
1159 04-03-2020 01:08:17 2.6 C 43 %
1160 04-03-2020 01:18:17 2.6 C 42 %
1161 04-03-2020 01:28:17 2.4 C 42 %
1162 04-03-2020 01:38:17 2.5 C 42 %
1163 04-03-2020 01:48:17 2.6 C 42 %
1164 04-03-2020 01:58:17 2.6 C 42 %
1165 04-03-2020 02:08:17 2.7 C 42 %
1166 04-03-2020 02:18:17 2.8 C 42 %
1167 04-03-2020 02:28:18 2.7 C 42 %
1168 04-03-2020 02:38:18 3.2 C 41 %
1169 04-03-2020 02:48:17 3.6 C 40 %
1170 04-03-2020 02:58:18 3.4 C 40 %
1171 04-03-2020 03:08:17 3.3 C 40 %
1172 04-03-2020 03:18:17 3 C 41 %
1173 04-03-2020 03:28:17 3.2 C 41 %
1174 04-03-2020 03:38:17 2.9 C 42 %
1175 04-03-2020 03:48:17 2.6 C 42 %
Sensor: Nr:Datum:Temp:Feuchte:
Aussen-T/F 1176 04-03-2020 03:58:18 2.5 C 44 %
1177 04-03-2020 04:08:18 3.4 C 41 %
1178 04-03-2020 04:18:18 3.4 C 41 %
1179 04-03-2020 04:28:18 3.6 C 40 %
1180 04-03-2020 04:38:18 3.6 C 40 %
1181 04-03-2020 04:48:17 3.7 C 40 %
1182 04-03-2020 04:58:18 3.5 C 41 %
1183 04-03-2020 05:08:18 3.4 C 41 %
1184 04-03-2020 05:18:18 3.2 C 42 %
1185 04-03-2020 05:28:18 3.1 C 44 %
1186 04-03-2020 05:38:18 3.2 C 44 %
1187 04-03-2020 05:48:17 3.2 C 43 %
1188 04-03-2020 05:58:18 3.2 C 43 %
1189 04-03-2020 06:08:18 3.3 C 43 %
1190 04-03-2020 06:18:18 3.3 C 42 %
1191 04-03-2020 06:28:18 3.4 C 42 %
1192 04-03-2020 06:38:18 3.6 C 42 %
1193 04-03-2020 06:48:17 3.6 C 42 %
1194 04-03-2020 06:58:17 3.7 C 41 %
1195 04-03-2020 07:08:17 3.7 C 41 %
1196 04-03-2020 07:18:17 3.9 C 41 %
1197 04-03-2020 07:28:17 3.9 C 41 %
1198 04-03-2020 07:38:18 4 C 40 %
1199 04-03-2020 07:48:17 3.9 C 41 %
1200 04-03-2020 07:58:17 3.7 C 41 %
Sensor: Nr:Datum:Temp:Feuchte:
Aussen-T/F 1201 04-03-2020 08:08:18 3.3 C 42 %
1202 04-03-2020 08:18:17 3.4 C 42 %
1203 04-03-2020 08:28:17 3.8 C 41 %
1204 04-03-2020 08:38:18 3.7 C 41 %
1205 04-03-2020 08:48:18 4.1 C 40 %
1206 04-03-2020 08:58:18 3.7 C 41 %
1207 04-03-2020 09:08:18 3.9 C 41 %
1208 04-03-2020 09:18:18 4.2 C 40 %
1209 04-03-2020 09:28:18 4.6 C 40 %
1210 04-03-2020 09:38:18 4.7 C 39 %
1211 04-03-2020 09:48:17 5.1 C 38 %
1212 04-03-2020 09:58:18 5.4 C 37 %
1213 04-03-2020 10:08:18 5.6 C 37 %
1214 04-03-2020 10:18:18 5.8 C 37 %
1215 04-03-2020 10:28:18 6 C 36 %
1216 04-03-2020 10:38:17 6.6 C 36 %
1217 04-03-2020 10:48:18 6.4 C 36 %
1218 04-03-2020 10:58:18 6.5 C 36 %
1219 04-03-2020 11:08:18 6.8 C 35 %
1220 04-03-2020 11:18:18 7.7 C 34 %
1221 04-03-2020 11:28:18 8.2 C 33 %
1222 04-03-2020 11:38:18 8.3 C 32 %
1223 04-03-2020 11:48:18 8.8 C 32 %
1224 04-03-2020 11:58:18 9.5 C 31 %
1225 04-03-2020 12:08:18 9.6 C 31 %
Sensor: Nr:Datum:Temp:Feuchte:
Aussen-T/F 1226 04-03-2020 12:18:18 10.1 C 30 %
1227 04-03-2020 12:28:18 9 C 30 %
1228 04-03-2020 12:38:18 9.9 C 29 %
1229 04-03-2020 12:48:17 10.9 C 28 %
1230 04-03-2020 12:58:17 9.1 C 29 %
1231 04-03-2020 13:08:17 9.3 C 28 %
1232 04-03-2020 13:18:17 9.4 C 28 %
1233 04-03-2020 13:28:17 10.7 C 27 %
1234 04-03-2020 13:38:18 9.5 C 28 %
1235 04-03-2020 13:48:17 9.6 C 28 %
1236 04-03-2020 13:58:17 10.2 C 26 %
1237 04-03-2020 14:08:18 10.6 C 26 %
1238 04-03-2020 14:18:18 9.6 C 27 %
1239 04-03-2020 14:28:18 9.6 C 27 %
1240 04-03-2020 14:38:18 10.1 C 26 %
1241 04-03-2020 14:48:18 9.5 C 28 %
1242 04-03-2020 14:58:18 9 C 28 %
1243 04-03-2020 15:08:18 9.4 C 28 %
1244 04-03-2020 15:18:18 9.5 C 28 %
1245 04-03-2020 15:28:18 9.7 C 27 %
1246 04-03-2020 15:38:18 9.4 C 29 %
1247 04-03-2020 15:48:17 9.5 C 28 %
1248 04-03-2020 15:58:18 10.6 C 26 %
1249 04-03-2020 16:08:17 10.1 C 26 %
1250 04-03-2020 16:18:17 10.9 C 26 %
Sensor: Nr:Datum:Temp:Feuchte:
Aussen-T/F 1251 04-03-2020 16:28:17 10 C 26 %
1252 04-03-2020 16:38:17 10.9 C 26 %
1253 04-03-2020 16:48:17 11 C 25 %
1254 04-03-2020 16:58:17 11.5 C 25 %
1255 04-03-2020 17:08:17 10.6 C 25 %
1256 04-03-2020 17:18:17 8.8 C 27 %
1257 04-03-2020 17:28:18 8 C 29 %
1258 04-03-2020 17:38:18 7.3 C 32 %
1259 04-03-2020 17:48:17 6.4 C 35 %
1260 04-03-2020 17:58:17 5.7 C 36 %
1261 04-03-2020 18:08:17 5.2 C 37 %
1262 04-03-2020 18:18:17 4.8 C 38 %
1263 04-03-2020 18:28:17 4.7 C 39 %
1264 04-03-2020 18:38:17 4.5 C 39 %
1265 04-03-2020 18:48:17 4.3 C 39 %
1266 04-03-2020 18:58:17 4 C 39 %
1267 04-03-2020 19:08:17 3.9 C 40 %
1268 04-03-2020 19:18:17 4 C 40 %
1269 04-03-2020 19:28:17 4.1 C 40 %
1270 04-03-2020 19:38:17 4.1 C 40 %
1271 04-03-2020 19:48:18 4 C 40 %
1272 04-03-2020 19:58:18 3.7 C 41 %
1273 04-03-2020 20:08:17 3.8 C 41 %
1274 04-03-2020 20:18:17 3.7 C 41 %
1275 04-03-2020 20:28:17 3.4 C 41 %
Sensor: Nr:Datum:Temp:Feuchte:
Aussen-T/F 1276 04-03-2020 20:38:17 3.1 C 42 %
1277 04-03-2020 20:48:18 3.1 C 42 %
1278 04-03-2020 20:58:18 2.9 C 43 %
1279 04-03-2020 21:08:18 3.3 C 42 %
1280 04-03-2020 21:18:18 3 C 42 %
1281 04-03-2020 21:28:18 3.1 C 42 %
1282 04-03-2020 21:38:18 3.3 C 42 %
1283 04-03-2020 21:48:18 3.1 C 42 %
1284 04-03-2020 21:58:18 3.1 C 42 %
1285 04-03-2020 22:08:18 2.6 C 44 %
1286 04-03-2020 22:18:17 2.5 C 45 %
1287 04-03-2020 22:28:17 2.4 C 45 %
1288 04-03-2020 22:38:17 2.9 C 46 %
1289 04-03-2020 22:48:17 2.9 C 46 %
1290 04-03-2020 22:58:17 3.2 C 45 %
1291 04-03-2020 23:08:17 3.3 C 43 %
1292 04-03-2020 23:18:17 3.6 C 43 %
1293 04-03-2020 23:28:18 3.5 C 43 %
1294 04-03-2020 23:38:18 3.6 C 43 %
1295 04-03-2020 23:48:18 3.7 C 45 %
1296 04-03-2020 23:58:18 3.6 C 45 %
1297 05-03-2020 00:08:18 3.6 C 46 %
1298 05-03-2020 00:18:18 3.6 C 46 %
1299 05-03-2020 00:28:18 3.8 C 47 %
1300 05-03-2020 00:38:17 3.8 C 47 %
Sensor: Nr:Datum:Temp:Feuchte:
Aussen-T/F 1301 05-03-2020 00:48:17 3.6 C 47 %
1302 05-03-2020 00:58:17 3.5 C 47 %
1303 05-03-2020 01:08:17 3.5 C 47 %
1304 05-03-2020 01:18:17 3.5 C 47 %
1305 05-03-2020 01:28:17 3.4 C 47 %
1306 05-03-2020 01:38:17 3.4 C 47 %
1307 05-03-2020 01:48:18 3.5 C 47 %
1308 05-03-2020 01:58:18 3.5 C 47 %
1309 05-03-2020 02:08:18 3.6 C 46 %
1310 05-03-2020 02:18:18 3.7 C 46 %
1311 05-03-2020 02:28:18 3.7 C 45 %
1312 05-03-2020 02:38:18 3.7 C 44 %
1313 05-03-2020 02:48:18 3.9 C 43 %
1314 05-03-2020 02:58:18 3.9 C 43 %
1315 05-03-2020 03:08:18 4 C 42 %
1316 05-03-2020 03:18:17 4.1 C 42 %
1317 05-03-2020 03:28:17 4 C 41 %
1318 05-03-2020 03:38:17 4.1 C 41 %
1319 05-03-2020 03:48:17 4 C 42 %
1320 05-03-2020 03:58:17 3.8 C 43 %
1321 05-03-2020 04:08:17 3.8 C 44 %
1322 05-03-2020 04:18:17 3.9 C 44 %
1323 05-03-2020 04:28:18 3.9 C 43 %
1324 05-03-2020 04:38:18 3.9 C 43 %
1325 05-03-2020 04:48:17 3.8 C 43 %
Sensor: Nr:Datum:Temp:Feuchte:
Aussen-T/F 1326 05-03-2020 04:58:18 3.8 C 43 %
1327 05-03-2020 05:08:18 3.9 C 44 %
1328 05-03-2020 05:18:18 3.9 C 44 %
1329 05-03-2020 05:28:18 3.8 C 44 %
1330 05-03-2020 05:38:18 3.9 C 44 %
1331 05-03-2020 05:48:17 3.7 C 44 %
1332 05-03-2020 05:58:18 3.9 C 44 %
1333 05-03-2020 06:08:18 4 C 43 %
1334 05-03-2020 06:18:18 3.9 C 43 %
1335 05-03-2020 06:28:18 4 C 42 %
1336 05-03-2020 06:38:18 4 C 42 %
1337 05-03-2020 06:48:17 4.1 C 42 %
1338 05-03-2020 06:58:17 4.1 C 42 %
1339 05-03-2020 07:08:18 4.2 C 42 %
1340 05-03-2020 07:18:17 4.3 C 42 %
1341 05-03-2020 07:28:18 4.4 C 42 %
1342 05-03-2020 07:38:18 4.5 C 41 %
1343 05-03-2020 07:48:17 4.7 C 41 %
1344 05-03-2020 07:58:17 4.8 C 41 %
1345 05-03-2020 08:08:18 4.7 C 41 %
1346 05-03-2020 08:18:18 4.8 C 41 %
1347 05-03-2020 08:28:18 4.8 C 41 %
1348 05-03-2020 08:38:17 5.1 C 40 %
1349 05-03-2020 08:48:17 5.3 C 40 %
1350 05-03-2020 08:58:17 5.4 C 40 %
Sensor: Nr:Datum:Temp:Feuchte:
Aussen-T/F 1351 05-03-2020 09:08:17 5.9 C 40 %
1352 05-03-2020 09:18:17 6.1 C 38 %
1353 05-03-2020 09:28:17 6.4 C 38 %
1354 05-03-2020 09:38:17 6.4 C 38 %
1355 05-03-2020 09:48:17 6.6 C 38 %
1356 05-03-2020 09:58:17 6.6 C 38 %
1357 05-03-2020 10:08:18 6.9 C 38 %
1358 05-03-2020 10:18:17 6.4 C 38 %
1359 05-03-2020 10:28:17 6.3 C 38 %
1360 05-03-2020 10:38:18 6.2 C 38 %
1361 05-03-2020 10:48:18 6.3 C 39 %
1362 05-03-2020 10:58:18 6.7 C 38 %
1363 05-03-2020 11:08:17 7 C 38 %
1364 05-03-2020 11:18:17 7.1 C 37 %
1365 05-03-2020 11:28:17 7.3 C 37 %
1366 05-03-2020 11:38:18 7.7 C 37 %
1367 05-03-2020 11:48:18 7.8 C 37 %
1368 05-03-2020 11:58:18 7.4 C 37 %
1369 05-03-2020 12:08:17 7.5 C 37 %
1370 05-03-2020 12:18:17 7.5 C 37 %
1371 05-03-2020 12:28:18 6.9 C 38 %
1372 05-03-2020 12:38:18 7.1 C 38 %
1373 05-03-2020 12:48:17 7 C 39 %
1374 05-03-2020 12:58:17 6.8 C 40 %
1375 05-03-2020 13:08:17 6.8 C 41 %
Sensor: Nr:Datum:Temp:Feuchte:
Aussen-T/F 1376 05-03-2020 13:18:17 6.9 C 41 %
1377 05-03-2020 13:28:17 6.9 C 41 %
1378 05-03-2020 13:38:17 7 C 41 %
1379 05-03-2020 13:48:17 6.6 C 42 %
1380 05-03-2020 13:58:17 6.4 C 42 %
1381 05-03-2020 14:08:17 6.4 C 43 %
1382 05-03-2020 14:18:17 6.4 C 43 %
1383 05-03-2020 14:28:17 6.3 C 42 %
1384 05-03-2020 14:38:17 6.3 C 43 %
1385 05-03-2020 14:48:18 6.3 C 44 %
1386 05-03-2020 14:58:18 6.3 C 44 %
1387 05-03-2020 15:08:18 6.3 C 45 %
1388 05-03-2020 15:18:18 6.3 C 45 %
1389 05-03-2020 15:28:18 6.3 C 45 %
1390 05-03-2020 15:38:18 6.4 C 45 %
1391 05-03-2020 15:48:17 6.5 C 45 %
1392 05-03-2020 15:58:17 6.7 C 45 %
1393 05-03-2020 16:08:17 6.7 C 44 %
1394 05-03-2020 16:18:17 6.7 C 43 %
1395 05-03-2020 16:28:17 6.5 C 43 %
1396 05-03-2020 16:38:17 6.4 C 43 %
1397 05-03-2020 16:48:18 6.3 C 44 %
1398 05-03-2020 16:58:18 6.2 C 45 %
1399 05-03-2020 17:08:17 6.1 C 45 %
1400 05-03-2020 17:18:17 6 C 45 %
Sensor: Nr:Datum:Temp:Feuchte:
Aussen-T/F 1401 05-03-2020 17:28:17 6 C 45 %
1402 05-03-2020 17:38:17 5.9 C 46 %
1403 05-03-2020 17:48:17 5.9 C 46 %
1404 05-03-2020 17:58:17 5.9 C 46 %
1405 05-03-2020 18:08:18 5.8 C 46 %
1406 05-03-2020 18:18:17 5.9 C 46 %
1407 05-03-2020 18:28:17 5.8 C 46 %
1408 05-03-2020 18:38:17 5.7 C 46 %
1409 05-03-2020 18:48:17 5.7 C 46 %
1410 05-03-2020 18:58:17 5.7 C 46 %
1411 05-03-2020 19:08:18 5.7 C 46 %
1412 05-03-2020 19:18:17 5.6 C 46 %
1413 05-03-2020 19:28:17 5.5 C 46 %
1414 05-03-2020 19:38:17 5.5 C 46 %
1415 05-03-2020 19:48:18 5.7 C 46 %
1416 05-03-2020 19:58:18 5.7 C 46 %
1417 05-03-2020 20:08:17 5.8 C 45 %
1418 05-03-2020 20:18:17 5.9 C 45 %
1419 05-03-2020 20:28:17 6.1 C 45 %
1420 05-03-2020 20:38:18 6.1 C 45 %
1421 05-03-2020 20:48:17 6 C 45 %
1422 05-03-2020 20:58:17 6 C 45 %
1423 05-03-2020 21:08:18 6.1 C 45 %
1424 05-03-2020 21:18:17 6.1 C 45 %
1425 05-03-2020 21:28:17 6.1 C 45 %
Sensor: Nr:Datum:Temp:Feuchte:
Aussen-T/F 1426 05-03-2020 21:38:17 6.1 C 45 %
1427 05-03-2020 21:48:17 6 C 45 %
1428 05-03-2020 21:58:17 6.1 C 45 %
1429 05-03-2020 22:08:17 6 C 45 %
1430 05-03-2020 22:18:17 6.2 C 45 %
1431 05-03-2020 22:28:17 6.1 C 45 %
1432 05-03-2020 22:38:18 6 C 45 %
1433 05-03-2020 22:48:17 6.1 C 45 %
1434 05-03-2020 22:58:17 6 C 45 %
1435 05-03-2020 23:08:17 6.2 C 45 %
1436 05-03-2020 23:18:17 6.1 C 45 %
1437 05-03-2020 23:28:18 6.1 C 45 %
1438 05-03-2020 23:38:18 6.1 C 45 %
1439 05-03-2020 23:48:18 6.1 C 45 %
1440 05-03-2020 23:58:18 6.1 C 44 %
1441 06-03-2020 00:08:17 6.1 C 44 %
1442 06-03-2020 00:18:17 6.2 C 44 %
1443 06-03-2020 00:28:18 6.2 C 44 %
1444 06-03-2020 00:38:18 6.2 C 44 %
1445 06-03-2020 00:48:17 6.3 C 44 %
1446 06-03-2020 00:58:17 6.4 C 44 %
1447 06-03-2020 01:08:18 6.6 C 44 %
1448 06-03-2020 01:18:17 6.7 C 44 %
1449 06-03-2020 01:28:17 7 C 43 %
1450 06-03-2020 01:38:18 7.1 C 43 %
Sensor: Nr:Datum:Temp:Feuchte:
Aussen-T/F 1451 06-03-2020 01:48:17 7.3 C 40 %
1452 06-03-2020 01:58:18 6.9 C 40 %
1453 06-03-2020 02:08:18 6.9 C 40 %
1454 06-03-2020 02:18:18 6.9 C 40 %
1455 06-03-2020 02:28:18 6.5 C 40 %
1456 06-03-2020 02:38:17 6.4 C 41 %
1457 06-03-2020 02:48:17 6.4 C 40 %
1458 06-03-2020 02:58:17 6.4 C 40 %
1459 06-03-2020 03:08:17 6.2 C 40 %
1460 06-03-2020 03:18:18 6.2 C 40 %
1461 06-03-2020 03:28:18 6.4 C 40 %
1462 06-03-2020 03:38:18 6 C 40 %
1463 06-03-2020 03:48:17 5.8 C 41 %
1464 06-03-2020 03:58:18 5.6 C 43 %
1465 06-03-2020 04:08:17 5.5 C 44 %
1466 06-03-2020 04:18:17 5.4 C 45 %
1467 06-03-2020 04:28:17 5.5 C 45 %
1468 06-03-2020 04:38:18 5.4 C 45 %
1469 06-03-2020 04:48:17 5.4 C 46 %
1470 06-03-2020 04:58:18 5.5 C 45 %
1471 06-03-2020 05:08:18 5.6 C 44 %
1472 06-03-2020 05:18:18 5.6 C 44 %
1473 06-03-2020 05:28:18 5.6 C 45 %
1474 06-03-2020 05:38:18 5.8 C 44 %
1475 06-03-2020 05:48:17 5.8 C 44 %
Sensor: Nr:Datum:Temp:Feuchte:
Aussen-T/F 1476 06-03-2020 05:58:17 5.8 C 44 %
1477 06-03-2020 06:08:17 5.8 C 45 %
1478 06-03-2020 06:18:17 5.8 C 45 %
1479 06-03-2020 06:28:17 5.9 C 45 %
1480 06-03-2020 06:38:18 6 C 44 %
1481 06-03-2020 06:48:17 6 C 44 %
1482 06-03-2020 06:58:17 6.1 C 45 %
1483 06-03-2020 07:08:17 6 C 45 %
1484 06-03-2020 07:18:18 6 C 45 %
1485 06-03-2020 07:28:18 6 C 45 %
1486 06-03-2020 07:38:18 6 C 45 %
1487 06-03-2020 07:48:17 5.9 C 45 %
1488 06-03-2020 07:58:18 5.6 C 43 %
1489 06-03-2020 08:08:17 5.3 C 42 %
1490 06-03-2020 08:18:17 5 C 41 %
1491 06-03-2020 08:28:17 4.9 C 42 %
1492 06-03-2020 08:38:17 4.9 C 43 %
1493 06-03-2020 08:48:18 4.8 C 44 %
1494 06-03-2020 08:58:18 4.8 C 44 %
1495 06-03-2020 09:08:17 4.9 C 44 %
1496 06-03-2020 09:18:17 4.9 C 43 %
1497 06-03-2020 09:28:17 4.9 C 42 %
1498 06-03-2020 09:38:18 4.8 C 42 %
1499 06-03-2020 09:48:18 4.9 C 42 %
1500 06-03-2020 09:58:18 4.8 C 41 %
Sensor: Nr:Datum:Temp:Feuchte:
Aussen-T/F 1501 06-03-2020 10:08:18 4.9 C 41 %
1502 06-03-2020 10:18:18 4.7 C 42 %
1503 06-03-2020 10:28:18 4.7 C 41 %
1504 06-03-2020 10:38:18 4.7 C 41 %
1505 06-03-2020 10:48:17 4.8 C 41 %
1506 06-03-2020 10:58:18 4.9 C 41 %
1507 06-03-2020 11:08:18 5 C 40 %
1508 06-03-2020 11:18:18 5.2 C 40 %
1509 06-03-2020 11:28:18 5.3 C 40 %
1510 06-03-2020 11:38:18 5.1 C 40 %
1511 06-03-2020 11:48:17 4.9 C 41 %
1512 06-03-2020 11:58:17 4.7 C 41 %
1513 06-03-2020 12:08:17 4.6 C 41 %
1514 06-03-2020 12:18:17 4.5 C 41 %
1515 06-03-2020 12:28:17 4.6 C 41 %
1516 06-03-2020 12:38:18 4.4 C 41 %
1517 06-03-2020 12:48:18 4.6 C 41 %
1518 06-03-2020 12:58:18 4.5 C 41 %
1519 06-03-2020 13:08:18 4.7 C 41 %
1520 06-03-2020 13:18:18 5 C 40 %
1521 06-03-2020 13:28:18 5.1 C 40 %
1522 06-03-2020 13:38:17 5.3 C 40 %
1523 06-03-2020 13:48:17 5.1 C 40 %
1524 06-03-2020 13:58:17 5 C 40 %
1525 06-03-2020 14:08:17 4.8 C 41 %
Sensor: Nr:Datum:Temp:Feuchte:
Aussen-T/F 1526 06-03-2020 14:18:17 4.8 C 41 %
1527 06-03-2020 14:28:17 4.8 C 41 %
1528 06-03-2020 14:38:17 5 C 40 %
1529 06-03-2020 14:48:17 5.3 C 40 %
1530 06-03-2020 14:58:17 5.3 C 40 %
1531 06-03-2020 15:08:17 5.4 C 39 %
1532 06-03-2020 15:18:17 5.6 C 39 %
1533 06-03-2020 15:28:17 5.8 C 39 %
1534 06-03-2020 15:38:18 5.9 C 38 %
1535 06-03-2020 15:48:17 5.8 C 38 %
1536 06-03-2020 15:58:17 6 C 37 %
1537 06-03-2020 16:08:17 6.1 C 37 %
1538 06-03-2020 16:18:18 6.1 C 37 %
1539 06-03-2020 16:28:18 6.1 C 37 %
1540 06-03-2020 16:38:18 6.1 C 38 %
1541 06-03-2020 16:48:17 6 C 38 %
1542 06-03-2020 16:58:17 6.3 C 38 %
1543 06-03-2020 17:08:18 6.5 C 38 %
1544 06-03-2020 17:18:18 6.9 C 37 %
1545 06-03-2020 17:28:18 6.8 C 37 %
1546 06-03-2020 17:38:18 6.8 C 37 %
1547 06-03-2020 17:48:17 6.9 C 37 %
1548 06-03-2020 17:58:18 6.7 C 37 %
1549 06-03-2020 18:08:18 6.8 C 37 %
1550 06-03-2020 18:18:18 6.6 C 37 %
Sensor: Nr:Datum:Temp:Feuchte:
Aussen-T/F 1551 06-03-2020 18:28:18 5.9 C 38 %
1552 06-03-2020 18:38:18 6 C 37 %
1553 06-03-2020 18:48:17 6.5 C 37 %
1554 06-03-2020 18:58:18 6.4 C 37 %
1555 06-03-2020 19:08:18 6.5 C 37 %
1556 06-03-2020 19:18:18 6.3 C 37 %
1557 06-03-2020 19:28:18 6.2 C 37 %
1558 06-03-2020 19:38:18 6.3 C 37 %
1559 06-03-2020 19:48:17 6.3 C 37 %
1560 06-03-2020 19:58:17 6.2 C 36 %
1561 06-03-2020 20:08:18 6.2 C 36 %
1562 06-03-2020 20:18:18 5.9 C 37 %
1563 06-03-2020 20:28:18 5.7 C 37 %
1564 06-03-2020 20:38:18 5.5 C 38 %
1565 06-03-2020 20:48:17 5.4 C 38 %
1566 06-03-2020 20:58:17 5.2 C 38 %
1567 06-03-2020 21:08:17 5.3 C 38 %
1568 06-03-2020 21:18:18 5.1 C 38 %
1569 06-03-2020 21:28:18 5.2 C 38 %
1570 06-03-2020 21:38:18 5.2 C 37 %
1571 06-03-2020 21:48:17 4.9 C 38 %
1572 06-03-2020 21:58:18 4.7 C 39 %
1573 06-03-2020 22:08:17 4.8 C 39 %
1574 06-03-2020 22:18:17 5.1 C 38 %
1575 06-03-2020 22:28:18 5 C 38 %
Sensor: Nr:Datum:Temp:Feuchte:
Aussen-T/F 1576 06-03-2020 22:38:18 5.2 C 38 %
1577 06-03-2020 22:48:17 5.3 C 38 %
1578 06-03-2020 22:58:17 5.3 C 38 %
1579 06-03-2020 23:08:18 5.2 C 38 %
1580 06-03-2020 23:18:18 5.3 C 38 %
1581 06-03-2020 23:28:18 5.2 C 37 %
1582 06-03-2020 23:38:17 5.3 C 37 %
1583 06-03-2020 23:48:17 5.3 C 37 %
1584 06-03-2020 23:58:17 5.1 C 38 %
1585 07-03-2020 00:08:17 5.1 C 37 %
1586 07-03-2020 00:18:18 5.1 C 37 %
1587 07-03-2020 00:28:18 5.1 C 37 %
1588 07-03-2020 00:38:17 5.1 C 37 %
1589 07-03-2020 00:48:17 5.1 C 37 %
1590 07-03-2020 00:58:17 5 C 37 %
1591 07-03-2020 01:08:17 5.1 C 38 %
1592 07-03-2020 01:18:17 5.1 C 38 %
1593 07-03-2020 01:28:17 5.1 C 38 %
1594 07-03-2020 01:38:18 5.3 C 37 %
1595 07-03-2020 01:48:18 5.2 C 38 %
1596 07-03-2020 01:58:18 5.2 C 38 %
1597 07-03-2020 02:08:18 5.2 C 38 %
1598 07-03-2020 02:18:17 5.3 C 38 %
1599 07-03-2020 02:28:17 5.1 C 38 %
1600 07-03-2020 02:38:17 5.1 C 38 %
Sensor: Nr:Datum:Temp:Feuchte:
Aussen-T/F 1601 07-03-2020 02:48:18 5.1 C 38 %
1602 07-03-2020 02:58:18 5.1 C 38 %
1603 07-03-2020 03:08:18 4.9 C 39 %
1604 07-03-2020 03:18:17 4.7 C 40 %
1605 07-03-2020 03:28:17 4.6 C 40 %
1606 07-03-2020 03:38:17 4.7 C 40 %
1607 07-03-2020 03:48:17 4.7 C 39 %
1608 07-03-2020 03:58:17 4.6 C 40 %
1609 07-03-2020 04:08:18 4.6 C 40 %
1610 07-03-2020 04:18:17 4.7 C 40 %
1611 07-03-2020 04:28:17 4.8 C 39 %
1612 07-03-2020 04:38:18 4.7 C 39 %
1613 07-03-2020 04:48:17 4.7 C 39 %
1614 07-03-2020 04:58:18 4.7 C 39 %
1615 07-03-2020 05:08:18 4.6 C 39 %
1616 07-03-2020 05:18:18 4.6 C 39 %
1617 07-03-2020 05:28:18 4.6 C 39 %
1618 07-03-2020 05:38:18 4.6 C 39 %
1619 07-03-2020 05:48:18 4.5 C 39 %
1620 07-03-2020 05:58:18 4.5 C 39 %
1621 07-03-2020 06:08:17 4.6 C 39 %
1622 07-03-2020 06:18:17 4.6 C 40 %
1623 07-03-2020 06:28:17 4.6 C 39 %
1624 07-03-2020 06:38:18 4.5 C 39 %
1625 07-03-2020 06:48:17 4.5 C 39 %
Sensor: Nr:Datum:Temp:Feuchte:
Aussen-T/F 1626 07-03-2020 06:58:17 4.5 C 39 %
1627 07-03-2020 07:08:18 4.5 C 39 %
1628 07-03-2020 07:18:18 4.4 C 39 %
1629 07-03-2020 07:28:18 4.4 C 39 %
1630 07-03-2020 07:38:18 4.3 C 40 %
1631 07-03-2020 07:48:17 4 C 40 %
1632 07-03-2020 07:58:17 3.7 C 42 %
1633 07-03-2020 08:08:18 3.7 C 45 %
1634 07-03-2020 08:18:17 3.7 C 44 %
1635 07-03-2020 08:28:17 3.9 C 43 %
1636 07-03-2020 08:38:17 4 C 42 %
1637 07-03-2020 08:48:17 4.4 C 41 %
1638 07-03-2020 08:58:17 4.7 C 40 %
1639 07-03-2020 09:08:17 5.1 C 38 %
1640 07-03-2020 09:18:17 5.3 C 37 %
1641 07-03-2020 09:28:17 5.6 C 37 %
1642 07-03-2020 09:38:17 5.7 C 36 %
1643 07-03-2020 09:48:17 6.3 C 36 %
1644 07-03-2020 09:58:17 6.5 C 35 %
1645 07-03-2020 10:08:17 6.1 C 35 %
1646 07-03-2020 10:18:17 5.7 C 36 %
1647 07-03-2020 10:28:17 6.5 C 36 %
1648 07-03-2020 10:38:17 6.4 C 35 %
1649 07-03-2020 10:48:18 7 C 35 %
1650 07-03-2020 10:58:18 7.3 C 35 %
Sensor: Nr:Datum:Temp:Feuchte:
Aussen-T/F 1651 07-03-2020 11:08:18 7.3 C 34 %
1652 07-03-2020 11:18:18 7.8 C 32 %
1653 07-03-2020 11:28:18 7.6 C 31 %
1654 07-03-2020 11:38:18 7.8 C 30 %
1655 07-03-2020 11:48:17 9.7 C 25 %
1656 07-03-2020 11:58:18 7.6 C 29 %
1657 07-03-2020 12:08:18 7.6 C 29 %
1658 07-03-2020 12:18:18 7.8 C 29 %
1659 07-03-2020 12:28:18 7.8 C 30 %
1660 07-03-2020 12:38:17 8.2 C 30 %
1661 07-03-2020 12:48:18 7.5 C 28 %
1662 07-03-2020 12:58:18 8 C 27 %
1663 07-03-2020 13:08:17 9.5 C 26 %
1664 07-03-2020 13:18:18 9.1 C 21 %
1665 07-03-2020 13:28:18 9.1 C 25 %
1666 07-03-2020 13:38:18 8.8 C 26 %
1667 07-03-2020 13:48:18 9.1 C 26 %
1668 07-03-2020 13:58:18 10 C 25 %
1669 07-03-2020 14:08:17 8.9 C 26 %
1670 07-03-2020 14:18:17 10.5 C 20 %
1671 07-03-2020 14:28:17 10.1 C 20 %
1672 07-03-2020 14:38:18 9.8 C 20 %
1673 07-03-2020 14:48:17 11.6 C 20 %
1674 07-03-2020 14:58:18 11.5 C 20 %
1675 07-03-2020 15:08:18 12.4 C 20 %
Sensor: Nr:Datum:Temp:Feuchte:
Aussen-T/F 1676 07-03-2020 15:18:18 11.1 C 20 %
1677 07-03-2020 15:28:18 9.8 C 20 %
1678 07-03-2020 15:38:17 12.4 C 20 %
1679 07-03-2020 15:48:18 10.8 C 20 %
1680 07-03-2020 15:58:18 9.5 C 20 %
1681 07-03-2020 16:08:17 11.7 C 20 %
1682 07-03-2020 16:18:17 10.4 C 20 %
1683 07-03-2020 16:28:17 9.6 C 20 %
1684 07-03-2020 16:38:17 9.1 C 20 %
1685 07-03-2020 16:48:18 8.9 C 20 %
1686 07-03-2020 16:58:18 8.8 C 20 %
1687 07-03-2020 17:08:18 8.8 C 20 %
1688 07-03-2020 17:18:18 8.5 C 20 %
1689 07-03-2020 17:28:18 8.5 C 20 %
1690 07-03-2020 17:38:18 8.6 C 25 %
1691 07-03-2020 17:48:18 8.4 C 25 %
1692 07-03-2020 17:58:18 7.1 C 31 %
1693 07-03-2020 18:08:17 6.7 C 31 %
1694 07-03-2020 18:19:17 6.3 C 33 %
1695 07-03-2020 18:28:17 5.7 C 34 %
1696 07-03-2020 18:38:18 5.2 C 35 %
1697 07-03-2020 18:48:18 4.9 C 36 %
1698 07-03-2020 18:58:18 5 C 35 %
1699 07-03-2020 19:08:17 4.9 C 36 %
1700 07-03-2020 19:18:17 4.7 C 36 %
Sensor: Nr:Datum:Temp:Feuchte:
Aussen-T/F 1701 07-03-2020 19:28:17 4.4 C 37 %
1702 07-03-2020 19:38:17 4.5 C 37 %
1703 07-03-2020 19:48:18 4.7 C 37 %
1704 07-03-2020 19:58:18 4.5 C 37 %
1705 07-03-2020 20:08:18 4.2 C 38 %
1706 07-03-2020 20:18:17 4.4 C 38 %
1707 07-03-2020 20:28:17 4.6 C 39 %
1708 07-03-2020 20:38:17 4.6 C 38 %
1709 07-03-2020 20:49:17 4.5 C 38 %
1710 07-03-2020 20:59:17 4.5 C 38 %
1711 07-03-2020 21:09:17 4.5 C 39 %
1712 07-03-2020 21:18:17 4.5 C 39 %
1713 07-03-2020 21:28:17 4.7 C 39 %
1714 07-03-2020 21:38:17 4.7 C 38 %
1715 07-03-2020 21:48:18 5.1 C 37 %
1716 07-03-2020 21:58:18 5.1 C 37 %
1717 07-03-2020 22:08:17 5.3 C 37 %
1718 07-03-2020 22:18:18 5.5 C 36 %
1719 07-03-2020 22:28:18 5.6 C 36 %
1720 07-03-2020 22:38:17 5.5 C 36 %
1721 07-03-2020 22:49:17 5.5 C 36 %
1722 07-03-2020 22:59:17 5.8 C 36 %
1723 07-03-2020 23:09:17 6.2 C 35 %
1724 07-03-2020 23:19:17 6.3 C 35 %
1725 07-03-2020 23:29:17 6.4 C 35 %
Sensor: Nr:Datum:Temp:Feuchte:
Aussen-T/F 1726 07-03-2020 23:38:17 6.4 C 34 %
1727 07-03-2020 23:48:18 6.4 C 34 %
1728 07-03-2020 23:58:18 6.5 C 34 %
1729 08-03-2020 00:08:18 6.5 C 35 %
1730 08-03-2020 00:18:18 6.4 C 35 %
1731 08-03-2020 00:28:18 6.8 C 35 %
1732 08-03-2020 00:38:18 6.7 C 35 %
1733 08-03-2020 00:48:18 7 C 34 %
1734 08-03-2020 00:58:18 7.1 C 35 %
1735 08-03-2020 01:08:17 7.1 C 34 %
1736 08-03-2020 01:18:17 6.8 C 35 %
1737 08-03-2020 01:28:17 6.9 C 35 %
1738 08-03-2020 01:38:17 6.7 C 35 %
1739 08-03-2020 01:49:17 6.9 C 35 %
1740 08-03-2020 01:59:17 6.7 C 35 %
1741 08-03-2020 02:09:17 6.8 C 35 %
1742 08-03-2020 02:19:17 7 C 35 %
1743 08-03-2020 02:29:17 6.9 C 35 %
1744 08-03-2020 02:38:17 7.3 C 35 %
1745 08-03-2020 02:48:17 7.2 C 35 %
1746 08-03-2020 02:58:17 7 C 35 %
1747 08-03-2020 03:08:18 7.1 C 35 %
1748 08-03-2020 03:19:17 6.7 C 35 %
1749 08-03-2020 03:29:17 6.4 C 36 %
1750 08-03-2020 03:39:17 6.5 C 36 %
Sensor: Nr:Datum:Temp:Feuchte:
Aussen-T/F 1751 08-03-2020 03:48:18 6.6 C 36 %
1752 08-03-2020 03:58:18 6.8 C 35 %
1753 08-03-2020 04:08:18 7 C 35 %
1754 08-03-2020 04:19:17 7.1 C 35 %
1755 08-03-2020 04:29:17 7 C 35 %
1756 08-03-2020 04:39:17 7 C 35 %
1757 08-03-2020 04:49:17 6.8 C 35 %
1758 08-03-2020 04:59:17 6.9 C 35 %
1759 08-03-2020 05:09:17 7 C 35 %
1760 08-03-2020 05:19:17 6.8 C 35 %
1761 08-03-2020 05:29:17 6.5 C 35 %
1762 08-03-2020 05:39:17 6.8 C 35 %
1763 08-03-2020 05:49:17 6.6 C 35 %
1764 08-03-2020 05:59:17 6.4 C 35 %
1765 08-03-2020 06:09:17 6.4 C 35 %
1766 08-03-2020 06:19:17 5.9 C 37 %
1767 08-03-2020 06:29:18 6.3 C 36 %
1768 08-03-2020 06:39:18 6.6 C 36 %
1769 08-03-2020 06:49:17 6.9 C 36 %
1770 08-03-2020 06:59:17 7.3 C 35 %
1771 08-03-2020 07:09:17 7.4 C 35 %
1772 08-03-2020 07:19:17 7.7 C 35 %
1773 08-03-2020 07:29:17 7.8 C 35 %
1774 08-03-2020 07:39:17 7.9 C 35 %
1775 08-03-2020 07:49:17 8 C 35 %
Sensor: Nr:Datum:Temp:Feuchte:
Aussen-T/F 1776 08-03-2020 07:59:17 8.2 C 34 %
1777 08-03-2020 08:09:17 8.2 C 34 %
1778 08-03-2020 08:19:17 8.4 C 34 %
1779 08-03-2020 08:29:17 8.6 C 34 %
1780 08-03-2020 08:39:17 8.5 C 35 %
1781 08-03-2020 08:49:17 8.6 C 34 %
1782 08-03-2020 08:59:17 8.6 C 34 %
1783 08-03-2020 09:09:17 8.6 C 34 %
1784 08-03-2020 09:19:17 8.8 C 34 %
1785 08-03-2020 09:29:18 9.2 C 33 %
1786 08-03-2020 09:39:17 9.6 C 33 %
1787 08-03-2020 09:49:17 10.3 C 32 %
1788 08-03-2020 09:59:17 10.2 C 32 %
1789 08-03-2020 10:09:17 9.9 C 33 %
1790 08-03-2020 10:19:17 10.1 C 32 %
1791 08-03-2020 10:29:17 10.1 C 32 %
1792 08-03-2020 10:39:17 11.4 C 30 %
1793 08-03-2020 10:49:17 11.2 C 30 %
1794 08-03-2020 10:59:18 11.9 C 30 %
1795 08-03-2020 11:09:17 11.9 C 28 %
1796 08-03-2020 11:19:16 11.9 C 29 %
1797 08-03-2020 11:29:16 12.1 C 27 %
1798 08-03-2020 11:39:17 12.5 C 26 %
1799 08-03-2020 11:49:16 12.5 C 26 %
1800 08-03-2020 11:59:16 13.4 C 25 %
Sensor: Nr:Datum:Temp:Feuchte:
Aussen-T/F 1801 08-03-2020 12:09:17 12.8 C 25 %
1802 08-03-2020 12:19:17 13.1 C 25 %
1803 08-03-2020 12:29:17 13.5 C 23 %
1804 08-03-2020 12:39:17 13.2 C 24 %
1805 08-03-2020 12:49:17 14.1 C 22 %
1806 08-03-2020 12:59:18 13.2 C 22 %
1807 08-03-2020 13:09:17 12.2 C 25 %
1808 08-03-2020 13:19:16 12.3 C 25 %
1809 08-03-2020 13:29:16 12.3 C 25 %
1810 08-03-2020 13:39:16 12.7 C 25 %
1811 08-03-2020 13:49:17 12.7 C 25 %
1812 08-03-2020 13:59:17 12.5 C 25 %
1813 08-03-2020 14:09:17 13 C 23 %
1814 08-03-2020 14:19:16 12.8 C 25 %
1815 08-03-2020 14:29:16 12.5 C 25 %
1816 08-03-2020 14:39:16 12.8 C 25 %
1817 08-03-2020 14:49:16 12.7 C 25 %
1818 08-03-2020 14:59:16 12.3 C 25 %
1819 08-03-2020 15:09:16 12.8 C 25 %
1820 08-03-2020 15:19:17 12.5 C 25 %
1821 08-03-2020 15:29:17 12.5 C 25 %
1822 08-03-2020 15:39:17 12.1 C 25 %
1823 08-03-2020 15:49:17 12 C 25 %
1824 08-03-2020 15:59:17 12.1 C 25 %
1825 08-03-2020 16:09:17 12.5 C 25 %
Sensor: Nr:Datum:Temp:Feuchte:
Aussen-T/F 1826 08-03-2020 16:19:17 12.4 C 25 %
1827 08-03-2020 16:29:17 12.1 C 25 %
1828 08-03-2020 16:39:17 12.2 C 26 %
1829 08-03-2020 16:49:17 12.2 C 26 %
1830 08-03-2020 16:59:17 12 C 26 %
1831 08-03-2020 17:09:17 12.6 C 25 %
1832 08-03-2020 17:19:17 12.4 C 26 %
1833 08-03-2020 17:29:17 12.3 C 26 %
1834 08-03-2020 17:39:17 12 C 26 %
1835 08-03-2020 17:49:16 11.5 C 28 %
1836 08-03-2020 17:59:16 11.4 C 29 %
1837 08-03-2020 18:09:17 11.1 C 30 %
1838 08-03-2020 18:19:17 10.9 C 31 %
1839 08-03-2020 18:29:18 10.7 C 31 %
1840 08-03-2020 18:39:17 10.4 C 32 %
1841 08-03-2020 18:49:16 10.2 C 32 %
1842 08-03-2020 18:59:16 9.6 C 35 %
1843 08-03-2020 19:09:17 9.9 C 35 %
1844 08-03-2020 19:19:16 9.8 C 35 %
1845 08-03-2020 19:29:16 9.6 C 36 %
1846 08-03-2020 19:39:17 9.4 C 36 %
1847 08-03-2020 19:49:16 9.5 C 36 %
1848 08-03-2020 19:59:16 9.5 C 36 %
1849 08-03-2020 20:09:16 9.4 C 36 %
1850 08-03-2020 20:19:16 9.3 C 36 %
Sensor: Nr:Datum:Temp:Feuchte:
Aussen-T/F 1851 08-03-2020 20:29:16 9.3 C 37 %
1852 08-03-2020 20:39:17 9.2 C 37 %
1853 08-03-2020 20:49:16 9.2 C 37 %
1854 08-03-2020 20:59:16 9 C 37 %
1855 08-03-2020 21:09:17 9 C 37 %
1856 08-03-2020 21:19:17 9.1 C 37 %
1857 08-03-2020 21:29:17 9.1 C 37 %
1858 08-03-2020 21:39:17 9.3 C 37 %
1859 08-03-2020 21:49:17 9.3 C 37 %
1860 08-03-2020 21:59:17 9.3 C 37 %
1861 08-03-2020 22:09:17 9.3 C 37 %
1862 08-03-2020 22:19:16 9.3 C 37 %
1863 08-03-2020 22:29:16 8.9 C 37 %
1864 08-03-2020 22:39:17 9.2 C 37 %
1865 08-03-2020 22:49:16 8.7 C 37 %
1866 08-03-2020 22:59:16 9 C 37 %
1867 08-03-2020 23:09:16 9.3 C 37 %
1868 08-03-2020 23:19:16 7.9 C 39 %
1869 08-03-2020 23:29:16 7.8 C 40 %
1870 08-03-2020 23:39:16 7.9 C 40 %
1871 08-03-2020 23:49:16 7.9 C 39 %
1872 08-03-2020 23:59:16 7.6 C 40 %
1873 09-03-2020 00:09:17 7.3 C 41 %
1874 09-03-2020 00:19:16 7 C 41 %
1875 09-03-2020 00:29:16 6.8 C 43 %
Sensor: Nr:Datum:Temp:Feuchte:
Aussen-T/F 1876 09-03-2020 00:39:16 6.8 C 44 %
1877 09-03-2020 00:49:16 6.6 C 45 %
1878 09-03-2020 00:59:16 6.8 C 43 %
1879 09-03-2020 01:09:16 6.9 C 42 %
1880 09-03-2020 01:19:16 6.9 C 43 %
1881 09-03-2020 01:29:16 6.7 C 45 %
1882 09-03-2020 01:39:16 6.8 C 43 %
1883 09-03-2020 01:49:16 6.9 C 42 %
1884 09-03-2020 01:59:16 6.7 C 43 %
1885 09-03-2020 02:09:16 6.6 C 43 %
1886 09-03-2020 02:19:16 6.4 C 44 %
1887 09-03-2020 02:29:16 6.3 C 45 %
1888 09-03-2020 02:39:16 6.2 C 45 %
1889 09-03-2020 02:49:17 6.4 C 45 %
1890 09-03-2020 02:59:17 6.4 C 44 %
1891 09-03-2020 03:09:17 6.1 C 44 %
1892 09-03-2020 03:19:17 6.5 C 43 %
1893 09-03-2020 03:29:17 6.7 C 42 %
1894 09-03-2020 03:39:17 6.4 C 42 %
1895 09-03-2020 03:49:17 6.2 C 43 %
1896 09-03-2020 03:59:17 6 C 44 %
1897 09-03-2020 04:09:17 5.7 C 45 %
1898 09-03-2020 04:19:17 5.5 C 45 %
1899 09-03-2020 04:29:17 6.1 C 44 %
1900 09-03-2020 04:39:18 6.3 C 43 %
Sensor: Nr:Datum:Temp:Feuchte:
Aussen-T/F 1901 09-03-2020 04:49:17 6.2 C 43 %
1902 09-03-2020 04:59:17 6.2 C 43 %
1903 09-03-2020 05:09:18 6.2 C 43 %
1904 09-03-2020 05:19:17 6 C 43 %
1905 09-03-2020 05:29:17 5.8 C 44 %
1906 09-03-2020 05:39:17 5.6 C 44 %
1907 09-03-2020 05:49:17 5.2 C 44 %
1908 09-03-2020 05:59:17 5.3 C 43 %
1909 09-03-2020 06:09:17 5 C 43 %
1910 09-03-2020 06:19:17 5.2 C 43 %
1911 09-03-2020 06:29:17 5.1 C 43 %
1912 09-03-2020 06:39:18 5.4 C 42 %
1913 09-03-2020 06:49:17 5.7 C 41 %
1914 09-03-2020 06:59:18 5.7 C 41 %
1915 09-03-2020 07:09:18 5 C 42 %
1916 09-03-2020 07:19:18 4.7 C 44 %
1917 09-03-2020 07:29:18 5.7 C 42 %
1918 09-03-2020 07:39:17 5.8 C 41 %
1919 09-03-2020 07:49:17 5.4 C 41 %
1920 09-03-2020 07:59:17 5.4 C 42 %
1921 09-03-2020 08:09:17 5.4 C 42 %
1922 09-03-2020 08:19:17 5 C 43 %
1923 09-03-2020 08:29:17 5.3 C 43 %
1924 09-03-2020 08:39:18 6.1 C 41 %
1925 09-03-2020 08:49:17 6.8 C 40 %
Sensor: Nr:Datum:Temp:Feuchte:
Aussen-T/F 1926 09-03-2020 08:59:17 7.3 C 38 %
1927 09-03-2020 09:09:17 7.4 C 38 %
1928 09-03-2020 09:19:17 7.7 C 37 %
1929 09-03-2020 09:29:17 8 C 37 %
1930 09-03-2020 09:39:17 8.1 C 37 %
1931 09-03-2020 09:49:17 8 C 37 %
1932 09-03-2020 09:59:17 7.8 C 37 %
1933 09-03-2020 10:09:17 8.3 C 36 %
1934 09-03-2020 10:19:17 8.2 C 36 %
1935 09-03-2020 10:29:17 8.5 C 36 %
1936 09-03-2020 10:39:17 8.6 C 36 %
1937 09-03-2020 10:49:17 8.5 C 36 %
1938 09-03-2020 10:59:17 8.1 C 36 %
1939 09-03-2020 11:09:17 8.1 C 36 %
1940 09-03-2020 11:19:17 8.5 C 36 %
1941 09-03-2020 11:29:17 9.7 C 34 %
1942 09-03-2020 11:39:17 9.1 C 34 %
1943 09-03-2020 11:49:17 10.1 C 33 %
1944 09-03-2020 11:59:17 10.6 C 29 %
1945 09-03-2020 12:09:18 10.9 C 27 %
1946 09-03-2020 12:19:18 11.2 C 25 %
1947 09-03-2020 12:29:18 10.1 C 26 %
1948 09-03-2020 12:39:18 10.3 C 26 %
1949 09-03-2020 12:49:17 11 C 25 %
1950 09-03-2020 12:59:17 10.1 C 26 %
Sensor: Nr:Datum:Temp:Feuchte:
Aussen-T/F 1951 09-03-2020 13:09:17 11.6 C 26 %
1952 09-03-2020 13:19:17 9.8 C 29 %
1953 09-03-2020 13:29:17 9.5 C 31 %
1954 09-03-2020 13:39:17 10.5 C 30 %
1955 09-03-2020 13:49:17 10.4 C 29 %
1956 09-03-2020 13:59:17 10.5 C 29 %
1957 09-03-2020 14:09:17 11.6 C 27 %
1958 09-03-2020 14:19:17 11.5 C 26 %
1959 09-03-2020 14:29:17 10.4 C 27 %
1960 09-03-2020 14:39:17 11.6 C 26 %
1961 09-03-2020 14:49:17 12.8 C 20 %
1962 09-03-2020 14:59:17 13.6 C 20 %
1963 09-03-2020 15:09:18 12.6 C 20 %
1964 09-03-2020 15:19:18 13 C 20 %
1965 09-03-2020 15:29:18 12.9 C 20 %
1966 09-03-2020 15:39:18 14.4 C 20 %
1967 09-03-2020 15:49:17 14 C 20 %
1968 09-03-2020 15:59:17 12.5 C 20 %
1969 09-03-2020 16:09:18 11.2 C 20 %
1970 09-03-2020 16:19:17 10.5 C 22 %
1971 09-03-2020 16:29:17 10.7 C 23 %
1972 09-03-2020 16:39:17 13.3 C 20 %
1973 09-03-2020 16:49:17 14.2 C 20 %
1974 09-03-2020 16:59:18 14.1 C 20 %
1975 09-03-2020 17:09:18 12.2 C 20 %
Sensor: Nr:Datum:Temp:Feuchte:
Aussen-T/F 1976 09-03-2020 17:19:17 10.1 C 20 %
1977 09-03-2020 17:29:17 9.9 C 25 %
1978 09-03-2020 17:39:18 9.8 C 25 %
1979 09-03-2020 17:49:17 9.7 C 27 %
1980 09-03-2020 17:59:18 9.7 C 26 %
1981 09-03-2020 18:09:18 9.5 C 27 %
1982 09-03-2020 18:19:17 9.2 C 28 %
1983 09-03-2020 18:29:17 8.9 C 30 %
1984 09-03-2020 18:39:17 8.7 C 30 %
1985 09-03-2020 18:49:17 8.1 C 30 %
1986 09-03-2020 18:59:17 7.7 C 32 %
1987 09-03-2020 19:09:18 7.5 C 33 %
1988 09-03-2020 19:19:17 7.4 C 33 %
1989 09-03-2020 19:29:17 7.6 C 33 %
1990 09-03-2020 19:39:17 7.4 C 34 %
1991 09-03-2020 19:49:18 7.3 C 33 %
1992 09-03-2020 19:59:18 7.2 C 34 %
1993 09-03-2020 20:09:17 6.5 C 36 %
1994 09-03-2020 20:19:17 6.9 C 35 %
1995 09-03-2020 20:29:17 6.5 C 36 %
1996 09-03-2020 20:39:18 6.5 C 36 %
1997 09-03-2020 20:49:18 6.7 C 36 %
1998 09-03-2020 20:59:18 6.8 C 35 %
1999 09-03-2020 21:09:17 5.9 C 37 %
2000 09-03-2020 21:19:17 5.6 C 38 %
Sensor: Nr:Datum:Temp:Feuchte:
Aussen-T/F 2001 09-03-2020 21:29:17 5.5 C 38 %
2002 09-03-2020 21:39:17 5.4 C 38 %
2003 09-03-2020 21:49:18 5.4 C 38 %
2004 09-03-2020 21:59:18 5.6 C 38 %
2005 09-03-2020 22:09:18 5.4 C 38 %
2006 09-03-2020 22:19:17 5.6 C 38 %
2007 09-03-2020 22:29:17 5.8 C 38 %
2008 09-03-2020 22:39:17 5.8 C 38 %
2009 09-03-2020 22:49:17 5.4 C 38 %
2010 09-03-2020 22:59:17 5.1 C 39 %
2011 09-03-2020 23:09:18 5.1 C 39 %
2012 09-03-2020 23:19:17 5.2 C 39 %
2013 09-03-2020 23:29:17 5 C 39 %
2014 09-03-2020 23:39:17 4.6 C 40 %
2015 09-03-2020 23:49:17 4.6 C 41 %
2016 09-03-2020 23:59:17 4.5 C 41 %
2017 10-03-2020 00:09:17 4.6 C 41 %
2018 10-03-2020 00:19:18 4.7 C 41 %
2019 10-03-2020 00:29:18 5.1 C 40 %
2020 10-03-2020 00:39:18 5.5 C 40 %
2021 10-03-2020 00:49:18 5.5 C 40 %
2022 10-03-2020 00:59:18 5.8 C 39 %
2023 10-03-2020 01:09:18 5.8 C 39 %
2024 10-03-2020 01:19:17 5.9 C 39 %
2025 10-03-2020 01:29:18 6 C 38 %
Sensor: Nr:Datum:Temp:Feuchte:
Aussen-T/F 2026 10-03-2020 01:39:18 6.3 C 38 %
2027 10-03-2020 01:49:17 6.7 C 37 %
2028 10-03-2020 01:59:17 6.6 C 37 %
2029 10-03-2020 02:09:18 6.7 C 37 %
2030 10-03-2020 02:19:17 6.6 C 37 %
2031 10-03-2020 02:29:18 6.7 C 37 %
2032 10-03-2020 02:39:18 6.8 C 37 %
2033 10-03-2020 02:49:17 6.9 C 37 %
2034 10-03-2020 02:59:17 7.1 C 37 %
2035 10-03-2020 03:09:18 6.6 C 38 %
2036 10-03-2020 03:19:18 6.5 C 38 %
2037 10-03-2020 03:29:18 6.3 C 39 %
2038 10-03-2020 03:39:18 6.2 C 39 %
2039 10-03-2020 03:49:17 6 C 40 %
2040 10-03-2020 03:59:17 6 C 40 %
2041 10-03-2020 04:09:17 5.8 C 40 %
2042 10-03-2020 04:19:17 5.8 C 40 %
2043 10-03-2020 04:29:17 5.6 C 41 %
2044 10-03-2020 04:39:17 5.9 C 40 %
2045 10-03-2020 04:49:17 5.6 C 41 %
2046 10-03-2020 04:59:17 5.5 C 41 %
2047 10-03-2020 05:09:17 5.5 C 41 %
2048 10-03-2020 05:19:17 5.2 C 41 %
2049 10-03-2020 05:29:18 5.2 C 41 %
2050 10-03-2020 05:39:18 5.1 C 42 %
Sensor: Nr:Datum:Temp:Feuchte:
Aussen-T/F 2051 10-03-2020 05:49:18 5.1 C 42 %
2052 10-03-2020 05:59:18 5 C 42 %
2053 10-03-2020 06:09:17 4.9 C 43 %
2054 10-03-2020 06:19:17 5 C 42 %
2055 10-03-2020 06:29:17 4.9 C 43 %
2056 10-03-2020 06:39:18 5 C 44 %
2057 10-03-2020 06:49:17 5.1 C 43 %
2058 10-03-2020 06:59:17 5 C 43 %
2059 10-03-2020 07:09:18 5.1 C 42 %
2060 10-03-2020 07:19:18 5.3 C 42 %
2061 10-03-2020 07:29:18 5.8 C 41 %
2062 10-03-2020 07:39:18 5.8 C 42 %
2063 10-03-2020 07:49:18 5.7 C 41 %
2064 10-03-2020 07:59:18 5.9 C 41 %
2065 10-03-2020 08:09:18 6 C 41 %
2066 10-03-2020 08:19:18 6 C 41 %
2067 10-03-2020 08:29:18 6.3 C 41 %
2068 10-03-2020 08:39:18 6.5 C 40 %
2069 10-03-2020 08:49:18 6.3 C 41 %
2070 10-03-2020 08:59:18 6.5 C 41 %
2071 10-03-2020 09:09:17 6.6 C 41 %
2072 10-03-2020 09:19:17 6.6 C 41 %
2073 10-03-2020 09:29:17 6.7 C 42 %
2074 10-03-2020 09:39:17 6.8 C 42 %
2075 10-03-2020 09:49:17 6.9 C 42 %
Sensor: Nr:Datum:Temp:Feuchte:
Aussen-T/F 2076 10-03-2020 09:59:17 7.1 C 41 %
2077 10-03-2020 10:09:18 7.2 C 41 %
2078 10-03-2020 10:19:18 7.3 C 41 %
2079 10-03-2020 10:29:18 7.4 C 41 %
2080 10-03-2020 10:39:18 7.5 C 41 %
2081 10-03-2020 10:49:18 7.8 C 41 %
2082 10-03-2020 10:59:18 7.9 C 41 %
2083 10-03-2020 11:09:18 8.1 C 41 %
2084 10-03-2020 11:19:18 8.2 C 40 %
2085 10-03-2020 11:29:18 8.4 C 40 %
2086 10-03-2020 11:39:18 8.5 C 41 %
2087 10-03-2020 11:49:17 8.7 C 41 %
2088 10-03-2020 11:59:17 8.9 C 41 %
2089 10-03-2020 12:09:17 8.9 C 40 %
2090 10-03-2020 12:19:17 8.9 C 41 %
2091 10-03-2020 12:29:18 9 C 41 %
2092 10-03-2020 12:39:18 9.1 C 41 %
2093 10-03-2020 12:49:17 9.1 C 41 %
2094 10-03-2020 12:59:17 9.3 C 41 %
2095 10-03-2020 13:09:18 9.4 C 40 %
2096 10-03-2020 13:19:17 9.5 C 41 %
2097 10-03-2020 13:29:18 9.5 C 41 %
2098 10-03-2020 13:39:18 9.5 C 41 %
2099 10-03-2020 13:49:17 9.7 C 41 %
2100 10-03-2020 13:59:18 9.8 C 41 %
Sensor: Nr:Datum:Temp:Feuchte:
Aussen-T/F 2101 10-03-2020 14:09:18 9.9 C 41 %
2102 10-03-2020 14:19:18 10.2 C 40 %
2103 10-03-2020 14:29:18 10.5 C 40 %
2104 10-03-2020 14:39:18 10.8 C 40 %
2105 10-03-2020 14:49:17 10.9 C 40 %
2106 10-03-2020 14:59:17 11.3 C 38 %
2107 10-03-2020 15:09:18 11.3 C 38 %
2108 10-03-2020 15:19:18 11.4 C 38 %
2109 10-03-2020 15:29:18 11.8 C 38 %
2110 10-03-2020 15:39:18 12.3 C 37 %
2111 10-03-2020 15:49:17 12.3 C 36 %
2112 10-03-2020 15:59:18 12.5 C 37 %
2113 10-03-2020 16:09:18 13 C 35 %
2114 10-03-2020 16:19:18 12.6 C 36 %
2115 10-03-2020 16:29:18 12.5 C 37 %
2116 10-03-2020 16:39:18 12.4 C 37 %
2117 10-03-2020 16:49:17 12.5 C 37 %
2118 10-03-2020 16:59:18 12.5 C 37 %
2119 10-03-2020 17:09:18 12.7 C 37 %
2120 10-03-2020 17:19:17 12.6 C 37 %
2121 10-03-2020 17:29:18 12.7 C 37 %
2122 10-03-2020 17:39:18 12.6 C 37 %
2123 10-03-2020 17:49:17 12.5 C 37 %
2124 10-03-2020 17:59:18 12.5 C 38 %
2125 10-03-2020 18:09:18 12.3 C 38 %
Sensor: Nr:Datum:Temp:Feuchte:
Aussen-T/F 2126 10-03-2020 18:19:17 12.3 C 38 %
2127 10-03-2020 18:29:18 12.3 C 38 %
2128 10-03-2020 18:39:18 12.5 C 38 %
2129 10-03-2020 18:49:17 12.4 C 38 %
2130 10-03-2020 18:59:17 12.3 C 38 %
2131 10-03-2020 19:09:18 12.5 C 38 %
2132 10-03-2020 19:19:17 12.3 C 38 %
2133 10-03-2020 19:29:17 12.4 C 38 %
2134 10-03-2020 19:39:17 12.5 C 38 %
2135 10-03-2020 19:49:17 12.5 C 38 %
2136 10-03-2020 19:59:17 12.5 C 38 %
2137 10-03-2020 20:09:17 12.5 C 38 %
2138 10-03-2020 20:19:17 12.7 C 38 %
2139 10-03-2020 20:29:18 12.8 C 38 %
2140 10-03-2020 20:39:18 12.8 C 38 %
2141 10-03-2020 20:49:17 12.9 C 38 %
2142 10-03-2020 20:59:17 13.1 C 37 %
2143 10-03-2020 21:09:18 12.8 C 38 %
2144 10-03-2020 21:19:17 13.2 C 37 %
2145 10-03-2020 21:29:18 13.2 C 37 %
2146 10-03-2020 21:39:18 13.2 C 37 %
2147 10-03-2020 21:49:17 13.2 C 37 %
2148 10-03-2020 21:59:18 13.1 C 37 %
2149 10-03-2020 22:09:18 12.8 C 39 %
2150 10-03-2020 22:19:18 12.5 C 40 %
Sensor: Nr:Datum:Temp:Feuchte:
Aussen-T/F 2151 10-03-2020 22:29:18 12.5 C 40 %
2152 10-03-2020 22:39:18 12.7 C 40 %
2153 10-03-2020 22:49:17 12.5 C 40 %
2154 10-03-2020 22:59:17 12.5 C 40 %
2155 10-03-2020 23:09:18 12.8 C 40 %
2156 10-03-2020 23:19:18 12.8 C 39 %
2157 10-03-2020 23:29:18 12.8 C 39 %
2158 10-03-2020 23:39:18 12.8 C 39 %
2159 10-03-2020 23:49:17 12.9 C 39 %
2160 10-03-2020 23:59:17 13.1 C 37 %
2161 11-03-2020 00:09:17 13.5 C 36 %
2162 11-03-2020 00:19:17 13.5 C 36 %
2163 11-03-2020 00:29:17 13.6 C 36 %
2164 11-03-2020 00:39:18 13.7 C 36 %
2165 11-03-2020 00:49:17 13.7 C 36 %
2166 11-03-2020 00:59:17 13.7 C 36 %
2167 11-03-2020 01:09:17 13.5 C 36 %
2168 11-03-2020 01:19:17 13.4 C 37 %
2169 11-03-2020 01:29:17 13.4 C 37 %
2170 11-03-2020 01:39:17 13.3 C 37 %
2171 11-03-2020 01:49:17 13 C 38 %
2172 11-03-2020 01:59:17 12.9 C 39 %
2173 11-03-2020 02:09:17 13.2 C 38 %
2174 11-03-2020 02:19:17 13.1 C 38 %
2175 11-03-2020 02:29:17 13.1 C 38 %
Sensor: Nr:Datum:Temp:Feuchte:
Aussen-T/F 2176 11-03-2020 02:39:17 13.2 C 37 %
2177 11-03-2020 02:49:17 13.4 C 37 %
2178 11-03-2020 02:59:17 13.5 C 37 %
2179 11-03-2020 03:09:17 13.1 C 37 %
2180 11-03-2020 03:19:18 13 C 38 %
2181 11-03-2020 03:29:18 13.2 C 37 %
2182 11-03-2020 03:39:18 13.4 C 37 %
2183 11-03-2020 03:49:17 13.5 C 37 %
2184 11-03-2020 03:59:18 13.4 C 37 %
2185 11-03-2020 04:09:18 13.4 C 37 %
2186 11-03-2020 04:19:18 13.4 C 37 %
2187 11-03-2020 04:29:18 13.4 C 37 %
2188 11-03-2020 04:39:17 13.4 C 37 %
2189 11-03-2020 04:49:17 13.5 C 36 %
2190 11-03-2020 04:59:17 13.4 C 37 %
2191 11-03-2020 05:09:17 13.1 C 37 %
2192 11-03-2020 05:19:17 13.1 C 37 %
2193 11-03-2020 05:29:17 13.1 C 37 %
2194 11-03-2020 05:39:17 13.1 C 37 %
2195 11-03-2020 05:49:18 13 C 37 %
2196 11-03-2020 05:59:18 12.9 C 38 %
2197 11-03-2020 06:09:18 13.1 C 37 %
2198 11-03-2020 06:19:17 13.2 C 37 %
2199 11-03-2020 06:29:17 13.2 C 36 %
2200 11-03-2020 06:39:18 13.2 C 36 %
Sensor: Nr:Datum:Temp:Feuchte:
Aussen-T/F 2201 11-03-2020 06:49:17 13.6 C 36 %
2202 11-03-2020 06:59:17 13.4 C 36 %
2203 11-03-2020 07:09:17 13.2 C 36 %
2204 11-03-2020 07:19:17 13.1 C 36 %
2205 11-03-2020 07:29:17 13.1 C 36 %
2206 11-03-2020 07:39:17 13.1 C 36 %
2207 11-03-2020 07:49:17 13.1 C 36 %
2208 11-03-2020 07:59:18 12.9 C 37 %
2209 11-03-2020 08:09:18 12.8 C 37 %
2210 11-03-2020 08:19:18 12.6 C 37 %
2211 11-03-2020 08:29:18 12.6 C 37 %
2212 11-03-2020 08:39:18 12.7 C 37 %
2213 11-03-2020 08:49:18 12.8 C 37 %
2214 11-03-2020 08:59:18 12.7 C 37 %
2215 11-03-2020 09:09:18 13 C 36 %
2216 11-03-2020 09:19:18 13.2 C 36 %
2217 11-03-2020 09:29:18 13.6 C 36 %
2218 11-03-2020 09:39:18 13.8 C 36 %
2219 11-03-2020 09:49:18 14 C 35 %
2220 11-03-2020 09:59:18 13.9 C 35 %
2221 11-03-2020 10:09:18 13.7 C 36 %
2222 11-03-2020 10:19:17 13.8 C 36 %
2223 11-03-2020 10:29:17 14 C 35 %
2224 11-03-2020 10:39:18 14.3 C 35 %
2225 11-03-2020 10:49:18 14.4 C 35 %
Sensor: Nr:Datum:Temp:Feuchte:
Aussen-T/F 2226 11-03-2020 10:59:18 14.5 C 35 %
2227 11-03-2020 11:09:17 14.9 C 35 %
2228 11-03-2020 11:19:17 14.6 C 35 %
2229 11-03-2020 11:29:17 15.8 C 33 %
2230 11-03-2020 11:39:17 15.8 C 33 %
2231 11-03-2020 11:49:17 15.6 C 33 %
2232 11-03-2020 11:59:17 15.9 C 33 %
2233 11-03-2020 12:09:18 15.9 C 33 %
2234 11-03-2020 12:19:18 16.4 C 32 %
2235 11-03-2020 12:29:18 16.5 C 32 %
2236 11-03-2020 12:39:18 16.3 C 32 %
2237 11-03-2020 12:49:18 16.5 C 32 %
2238 11-03-2020 12:59:18 16.3 C 32 %
2239 11-03-2020 13:09:17 16 C 32 %
2240 11-03-2020 13:19:17 17 C 31 %
2241 11-03-2020 13:29:17 16.8 C 31 %
2242 11-03-2020 13:39:17 17.7 C 31 %
2243 11-03-2020 13:49:17 15.8 C 32 %
2244 11-03-2020 13:59:17 16.1 C 31 %
2245 11-03-2020 14:09:17 16.3 C 31 %
2246 11-03-2020 14:19:17 16.1 C 31 %
2247 11-03-2020 14:29:17 16.6 C 31 %
2248 11-03-2020 14:39:17 15.7 C 31 %
2249 11-03-2020 14:49:17 16.2 C 31 %
2250 11-03-2020 14:59:17 15.8 C 31 %
Sensor: Nr:Datum:Temp:Feuchte:
Aussen-T/F 2251 11-03-2020 15:09:17 16.5 C 31 %
2252 11-03-2020 15:19:17 15.6 C 32 %
2253 11-03-2020 15:29:18 16.4 C 31 %
2254 11-03-2020 15:39:18 17.5 C 30 %
2255 11-03-2020 15:49:17 15.1 C 32 %
2256 11-03-2020 15:59:17 15.6 C 33 %
2257 11-03-2020 16:09:18 15 C 33 %
2258 11-03-2020 16:19:18 14.7 C 35 %
2259 11-03-2020 16:29:18 15.1 C 34 %
2260 11-03-2020 16:39:17 14.5 C 35 %
2261 11-03-2020 16:49:18 14.5 C 35 %
2262 11-03-2020 16:59:18 14.5 C 34 %
2263 11-03-2020 17:09:18 14.1 C 35 %
2264 11-03-2020 17:19:18 14 C 35 %
2265 11-03-2020 17:29:18 13.2 C 38 %
2266 11-03-2020 17:39:17 13.2 C 38 %
2267 11-03-2020 17:49:18 13.2 C 38 %
2268 11-03-2020 17:59:18 13.4 C 37 %
2269 11-03-2020 18:09:18 13.5 C 37 %
2270 11-03-2020 18:19:17 13.5 C 36 %
2271 11-03-2020 18:29:17 13.3 C 36 %
2272 11-03-2020 18:39:17 13.4 C 36 %
2273 11-03-2020 18:49:17 13.5 C 36 %
2274 11-03-2020 18:59:17 13.4 C 36 %
2275 11-03-2020 19:09:17 13.2 C 37 %
Sensor: Nr:Datum:Temp:Feuchte:
Aussen-T/F 2276 11-03-2020 19:19:17 13.1 C 37 %
2277 11-03-2020 19:29:17 13.1 C 37 %
2278 11-03-2020 19:39:18 13.4 C 36 %
2279 11-03-2020 19:49:17 13.3 C 36 %
2280 11-03-2020 19:59:17 13.2 C 36 %
2281 11-03-2020 20:09:17 13.4 C 36 %
2282 11-03-2020 20:19:17 13.6 C 36 %
2283 11-03-2020 20:29:18 13.6 C 36 %
2284 11-03-2020 20:39:18 13.6 C 36 %
2285 11-03-2020 20:49:17 13.5 C 36 %
2286 11-03-2020 20:59:17 13.3 C 36 %
2287 11-03-2020 21:09:18 13.2 C 36 %
2288 11-03-2020 21:19:17 13.4 C 36 %
2289 11-03-2020 21:29:17 13.5 C 36 %
2290 11-03-2020 21:39:18 13.7 C 36 %
2291 11-03-2020 21:49:17 14 C 35 %
2292 11-03-2020 21:59:17 14 C 35 %
2293 11-03-2020 22:09:18 14.1 C 34 %
2294 11-03-2020 22:19:18 14 C 34 %
2295 11-03-2020 22:29:18 13.9 C 35 %
2296 11-03-2020 22:39:17 13.9 C 35 %
2297 11-03-2020 22:49:18 13.8 C 35 %
2298 11-03-2020 22:59:18 13.8 C 35 %
2299 11-03-2020 23:09:18 13.8 C 34 %
2300 11-03-2020 23:19:18 13.9 C 34 %
Sensor: Nr:Datum:Temp:Feuchte:
Aussen-T/F 2301 11-03-2020 23:29:18 13.8 C 34 %
2302 11-03-2020 23:39:17 13.8 C 34 %
2303 11-03-2020 23:49:17 13.8 C 34 %
2304 11-03-2020 23:59:17 13.7 C 34 %
2305 12-03-2020 00:09:17 13.6 C 34 %
2306 12-03-2020 00:19:17 13.6 C 34 %
2307 12-03-2020 00:29:17 13.6 C 34 %
2308 12-03-2020 00:39:18 13.7 C 34 %
2309 12-03-2020 00:49:17 13.8 C 34 %
2310 12-03-2020 00:59:17 13.9 C 34 %
2311 12-03-2020 01:09:18 13.9 C 34 %
2312 12-03-2020 01:19:17 13.8 C 34 %
2313 12-03-2020 01:29:17 13.9 C 34 %
2314 12-03-2020 01:39:18 13.8 C 34 %
2315 12-03-2020 01:49:17 13.7 C 34 %
2316 12-03-2020 01:59:17 13.8 C 34 %
2317 12-03-2020 02:09:18 13.7 C 34 %
2318 12-03-2020 02:19:17 13.7 C 34 %
2319 12-03-2020 02:29:18 13.6 C 34 %
2320 12-03-2020 02:39:18 13.6 C 33 %
2321 12-03-2020 02:49:18 13.6 C 33 %
2322 12-03-2020 02:59:18 13.5 C 33 %
2323 12-03-2020 03:09:18 13.5 C 33 %
2324 12-03-2020 03:19:18 13.5 C 32 %
2325 12-03-2020 03:29:18 13.5 C 32 %
Sensor: Nr:Datum:Temp:Feuchte:
Aussen-T/F 2326 12-03-2020 03:39:17 13.4 C 32 %
2327 12-03-2020 03:49:17 13.2 C 32 %
2328 12-03-2020 03:59:17 13.1 C 32 %
2329 12-03-2020 04:09:17 13.1 C 32 %
2330 12-03-2020 04:19:17 13.1 C 32 %
2331 12-03-2020 04:29:17 13 C 32 %
2332 12-03-2020 04:39:17 13 C 32 %
2333 12-03-2020 04:49:17 13 C 32 %
2334 12-03-2020 04:59:17 13 C 32 %
2335 12-03-2020 05:09:17 12.7 C 33 %
2336 12-03-2020 05:19:17 12.7 C 33 %
2337 12-03-2020 05:29:17 12.6 C 34 %
2338 12-03-2020 05:39:18 12.5 C 34 %
2339 12-03-2020 05:49:17 12.5 C 34 %
2340 12-03-2020 05:59:17 12.3 C 34 %
2341 12-03-2020 06:09:18 12.2 C 34 %
2342 12-03-2020 06:19:18 12.1 C 34 %
2343 12-03-2020 06:29:18 12 C 34 %
2344 12-03-2020 06:39:18 12 C 35 %
2345 12-03-2020 06:49:17 12 C 35 %
2346 12-03-2020 06:59:17 11.9 C 35 %
2347 12-03-2020 07:09:18 11.9 C 35 %
2348 12-03-2020 07:19:18 12 C 35 %
2349 12-03-2020 07:29:18 12 C 35 %
2350 12-03-2020 07:39:18 12 C 35 %
Sensor: Nr:Datum:Temp:Feuchte:
Aussen-T/F 2351 12-03-2020 07:49:17 11.2 C 38 %
2352 12-03-2020 07:59:17 11 C 39 %
2353 12-03-2020 08:09:18 10.8 C 41 %
2354 12-03-2020 08:19:18 10.7 C 42 %
2355 12-03-2020 08:29:18 10.4 C 40 %
2356 12-03-2020 08:39:18 10.1 C 39 %
2357 12-03-2020 08:49:17 10.4 C 38 %
2358 12-03-2020 08:59:17 10.2 C 38 %
2359 12-03-2020 09:09:18 10.4 C 38 %
2360 12-03-2020 09:19:17 10.5 C 37 %
2361 12-03-2020 09:29:17 10.9 C 36 %
2362 12-03-2020 09:39:17 10.8 C 36 %
2363 12-03-2020 09:49:18 11 C 36 %
2364 12-03-2020 09:59:18 11.5 C 35 %
2365 12-03-2020 10:09:18 11.7 C 34 %
2366 12-03-2020 10:19:17 11.5 C 34 %
2367 12-03-2020 10:29:17 11.5 C 34 %
2368 12-03-2020 10:39:17 11.8 C 33 %
2369 12-03-2020 10:49:17 11.3 C 33 %
2370 12-03-2020 10:59:17 11.3 C 32 %
2371 12-03-2020 11:09:18 11.6 C 28 %
2372 12-03-2020 11:19:17 11.5 C 27 %
2373 12-03-2020 11:29:17 11.7 C 26 %
2374 12-03-2020 11:39:17 11.9 C 23 %
2375 12-03-2020 11:49:18 11.9 C 20 %
Sensor: Nr:Datum:Temp:Feuchte:
Aussen-T/F 2376 12-03-2020 11:59:18 12.3 C 20 %
2377 12-03-2020 12:09:18 12.2 C 20 %
2378 12-03-2020 12:19:18 12.4 C 20 %
2379 12-03-2020 12:29:18 12.8 C 20 %
2380 12-03-2020 12:39:17 12.4 C 20 %
2381 12-03-2020 12:49:17 12.1 C 20 %
2382 12-03-2020 12:59:18 12 C 20 %
2383 12-03-2020 13:09:18 12.2 C 20 %
2384 12-03-2020 13:19:17 12.3 C 20 %
2385 12-03-2020 13:29:17 12.3 C 20 %
2386 12-03-2020 13:39:17 12.7 C 20 %
2387 12-03-2020 13:49:17 12.5 C 20 %
2388 12-03-2020 13:59:17 12.4 C 20 %
2389 12-03-2020 14:09:17 12.2 C 20 %
2390 12-03-2020 14:19:17 12.2 C 20 %
2391 12-03-2020 14:29:18 12.2 C 20 %
2392 12-03-2020 14:39:18 13.4 C 20 %
2393 12-03-2020 14:49:17 13 C 20 %
2394 12-03-2020 14:59:17 11.8 C 20 %
2395 12-03-2020 15:09:17 11.9 C 20 %
2396 12-03-2020 15:19:17 11.8 C 20 %
2397 12-03-2020 15:29:18 11.9 C 20 %
2398 12-03-2020 15:39:18 11.8 C 20 %
2399 12-03-2020 15:49:17 11.7 C 20 %
2400 12-03-2020 15:59:18 11.6 C 20 %
Sensor: Nr:Datum:Temp:Feuchte:
Aussen-T/F 2401 12-03-2020 16:09:18 11.5 C 20 %
2402 12-03-2020 16:19:18 11.7 C 20 %
2403 12-03-2020 16:29:18 11.7 C 20 %
2404 12-03-2020 16:39:18 12.4 C 20 %
2405 12-03-2020 16:49:17 11.8 C 20 %
2406 12-03-2020 16:59:17 11.5 C 20 %
2407 12-03-2020 17:09:17 11.5 C 20 %
2408 12-03-2020 17:19:17 11.5 C 20 %
2409 12-03-2020 17:29:17 11.2 C 20 %
2410 12-03-2020 17:39:18 10.9 C 20 %
2411 12-03-2020 17:49:17 11 C 20 %
2412 12-03-2020 17:59:18 10.8 C 22 %
2413 12-03-2020 18:09:18 10.3 C 25 %
2414 12-03-2020 18:19:18 9.8 C 27 %
2415 12-03-2020 18:29:18 9.3 C 30 %
2416 12-03-2020 18:39:17 8.7 C 31 %
2417 12-03-2020 18:49:17 7.9 C 33 %
2418 12-03-2020 18:59:17 7.6 C 35 %
2419 12-03-2020 19:09:17 7.5 C 34 %
2420 12-03-2020 19:19:17 7 C 35 %
2421 12-03-2020 19:29:17 6.6 C 36 %
2422 12-03-2020 19:39:17 6.5 C 36 %
2423 12-03-2020 19:49:17 7.1 C 35 %
2424 12-03-2020 19:59:17 6.8 C 35 %
2425 12-03-2020 20:09:17 7.6 C 35 %
Sensor: Nr:Datum:Temp:Feuchte:
Aussen-T/F 2426 12-03-2020 20:19:17 7.3 C 35 %
2427 12-03-2020 20:29:17 6.8 C 35 %
2428 12-03-2020 20:39:17 6.8 C 36 %
2429 12-03-2020 20:49:17 6.4 C 36 %
2430 12-03-2020 20:59:17 6.7 C 36 %
2431 12-03-2020 21:09:17 6.3 C 36 %
2432 12-03-2020 21:19:17 7.2 C 35 %
2433 12-03-2020 21:29:17 7.6 C 35 %
2434 12-03-2020 21:39:18 7.4 C 35 %
2435 12-03-2020 21:49:17 7.4 C 35 %
2436 12-03-2020 21:59:17 7.6 C 35 %
2437 12-03-2020 22:09:18 7.6 C 35 %
2438 12-03-2020 22:19:18 7.1 C 35 %
2439 12-03-2020 22:29:18 7.2 C 35 %
2440 12-03-2020 22:39:18 7.5 C 35 %
2441 12-03-2020 22:49:17 7.6 C 35 %
2442 12-03-2020 22:59:17 7.3 C 35 %
2443 12-03-2020 23:09:17 7.2 C 35 %
2444 12-03-2020 23:19:17 7 C 35 %
2445 12-03-2020 23:29:18 6.2 C 35 %
2446 12-03-2020 23:39:18 6.7 C 34 %
2447 12-03-2020 23:49:17 6.5 C 34 %
2448 12-03-2020 23:59:17 6.4 C 32 %
2449 13-03-2020 00:09:17 6.5 C 32 %
2450 13-03-2020 00:19:17 6.5 C 32 %
Sensor: Nr:Datum:Temp:Feuchte:
Aussen-T/F 2451 13-03-2020 00:29:17 6.1 C 32 %
2452 13-03-2020 00:39:17 6.2 C 32 %
2453 13-03-2020 00:49:17 6 C 32 %
2454 13-03-2020 00:59:17 5.9 C 33 %
2455 13-03-2020 01:09:17 5.4 C 33 %
2456 13-03-2020 01:19:17 5.4 C 33 %
2457 13-03-2020 01:29:17 5.1 C 34 %
2458 13-03-2020 01:39:17 5.2 C 34 %
2459 13-03-2020 01:49:17 5.2 C 33 %
2460 13-03-2020 01:59:17 5.2 C 33 %
2461 13-03-2020 02:09:17 4.8 C 35 %
2462 13-03-2020 02:19:17 5 C 34 %
2463 13-03-2020 02:29:17 5.1 C 34 %
2464 13-03-2020 02:39:18 5.1 C 34 %
2465 13-03-2020 02:49:17 5.1 C 34 %
2466 13-03-2020 02:59:17 5.1 C 34 %
2467 13-03-2020 03:09:17 5 C 34 %
2468 13-03-2020 03:19:17 5.2 C 34 %
2469 13-03-2020 03:29:17 5.2 C 34 %
2470 13-03-2020 03:39:18 5.1 C 34 %
2471 13-03-2020 03:49:17 5.1 C 34 %
2472 13-03-2020 03:59:17 5.2 C 34 %
2473 13-03-2020 04:09:17 5 C 34 %
2474 13-03-2020 04:19:17 4.9 C 35 %
2475 13-03-2020 04:29:17 5.1 C 35 %
Sensor: Nr:Datum:Temp:Feuchte:
Aussen-T/F 2476 13-03-2020 04:39:17 5.1 C 35 %
2477 13-03-2020 04:49:17 5 C 34 %
2478 13-03-2020 04:59:17 5.2 C 34 %
2479 13-03-2020 05:09:17 5.2 C 34 %
2480 13-03-2020 05:19:17 5.6 C 34 %
2481 13-03-2020 05:29:17 5.4 C 34 %
2482 13-03-2020 05:39:17 5.4 C 34 %
2483 13-03-2020 05:49:18 5.4 C 34 %
2484 13-03-2020 05:59:18 5.4 C 34 %
2485 13-03-2020 06:09:18 5.6 C 34 %
2486 13-03-2020 06:19:17 5.7 C 34 %
2487 13-03-2020 06:29:17 5.4 C 34 %
2488 13-03-2020 06:39:17 5.4 C 35 %
2489 13-03-2020 06:49:17 5.3 C 34 %
2490 13-03-2020 06:59:17 5.4 C 35 %
2491 13-03-2020 07:09:17 5.3 C 35 %
2492 13-03-2020 07:19:17 5.4 C 35 %
2493 13-03-2020 07:29:17 5.6 C 35 %
2494 13-03-2020 07:39:17 5.7 C 35 %
2495 13-03-2020 07:49:18 5.7 C 35 %
2496 13-03-2020 07:59:18 5.7 C 35 %
2497 13-03-2020 08:09:17 5.8 C 35 %
2498 13-03-2020 08:19:17 6 C 35 %
2499 13-03-2020 08:29:17 5.9 C 35 %
2500 13-03-2020 08:39:18 6 C 35 %
Sensor: Nr:Datum:Temp:Feuchte:
Aussen-T/F 2501 13-03-2020 08:49:17 6.2 C 35 %
2502 13-03-2020 08:59:17 6.4 C 34 %
2503 13-03-2020 09:09:17 6.5 C 35 %
2504 13-03-2020 09:19:17 6.9 C 34 %
2505 13-03-2020 09:29:17 7.1 C 33 %
2506 13-03-2020 09:39:18 7.1 C 33 %
2507 13-03-2020 09:49:17 6.6 C 34 %
2508 13-03-2020 09:59:17 7.1 C 33 %
2509 13-03-2020 10:09:18 7.5 C 33 %
2510 13-03-2020 10:19:17 8.5 C 32 %
2511 13-03-2020 10:29:17 8.1 C 32 %
2512 13-03-2020 10:39:18 8 C 32 %
2513 13-03-2020 10:49:17 7.6 C 33 %
2514 13-03-2020 10:59:17 7.4 C 35 %
2515 13-03-2020 11:09:17 8.9 C 33 %
2516 13-03-2020 11:19:17 9.1 C 31 %
2517 13-03-2020 11:29:17 8 C 32 %
2518 13-03-2020 11:39:17 7.3 C 35 %
2519 13-03-2020 11:49:18 7.4 C 35 %
2520 13-03-2020 11:59:18 8.2 C 33 %
2521 13-03-2020 12:09:18 8.9 C 32 %
2522 13-03-2020 12:19:18 9.7 C 29 %
2523 13-03-2020 12:29:18 9 C 30 %
2524 13-03-2020 12:39:18 9.6 C 30 %
2525 13-03-2020 12:49:18 9 C 31 %
Sensor: Nr:Datum:Temp:Feuchte:
Aussen-T/F 2526 13-03-2020 12:59:18 8.8 C 31 %
2527 13-03-2020 13:09:18 8.4 C 32 %
2528 13-03-2020 13:19:18 8.6 C 33 %
2529 13-03-2020 13:29:18 9.5 C 31 %
2530 13-03-2020 13:39:18 9.9 C 30 %
2531 13-03-2020 13:49:17 9.7 C 30 %
2532 13-03-2020 13:59:17 9.6 C 30 %
2533 13-03-2020 14:09:18 9.3 C 30 %
2534 13-03-2020 14:19:18 9.4 C 30 %
2535 13-03-2020 14:29:18 8.9 C 32 %
2536 13-03-2020 14:39:18 9.5 C 31 %
2537 13-03-2020 14:49:18 10.3 C 28 %
2538 13-03-2020 14:59:18 10.1 C 28 %
2539 13-03-2020 15:09:18 9.5 C 29 %
2540 13-03-2020 15:19:17 9.3 C 29 %
2541 13-03-2020 15:29:17 10.1 C 27 %
2542 13-03-2020 15:39:18 10.4 C 26 %
2543 13-03-2020 15:49:18 10.4 C 26 %
2544 13-03-2020 15:59:18 10.1 C 27 %
2545 13-03-2020 16:09:18 10 C 27 %
2546 13-03-2020 16:19:17 9.8 C 27 %
2547 13-03-2020 16:29:17 9.1 C 29 %
2548 13-03-2020 16:39:17 9 C 30 %
2549 13-03-2020 16:49:17 10 C 27 %
2550 13-03-2020 16:59:17 9.3 C 30 %
Sensor: Nr:Datum:Temp:Feuchte:
Aussen-T/F 2551 13-03-2020 17:09:17 9.1 C 30 %
2552 13-03-2020 17:19:18 9.1 C 30 %
2553 13-03-2020 17:29:18 9.3 C 30 %
2554 13-03-2020 17:39:17 9.4 C 29 %
2555 13-03-2020 17:49:18 9.5 C 30 %
2556 13-03-2020 17:59:18 9.1 C 31 %
2557 13-03-2020 18:09:18 8.7 C 31 %
2558 13-03-2020 18:19:17 8.6 C 31 %
2559 13-03-2020 18:29:17 8.4 C 31 %
2560 13-03-2020 18:39:17 8.2 C 31 %
2561 13-03-2020 18:49:17 8.1 C 32 %
2562 13-03-2020 18:59:17 8 C 32 %
2563 13-03-2020 19:09:17 7.8 C 33 %
2564 13-03-2020 19:19:17 7.3 C 35 %
2565 13-03-2020 19:29:17 7.3 C 35 %
2566 13-03-2020 19:39:18 7.3 C 35 %
2567 13-03-2020 19:49:17 7.3 C 35 %
2568 13-03-2020 19:59:18 7 C 35 %
2569 13-03-2020 20:09:18 6.7 C 36 %
2570 13-03-2020 20:19:17 6.7 C 36 %
2571 13-03-2020 20:29:17 6.9 C 36 %
2572 13-03-2020 20:39:17 6.4 C 36 %
2573 13-03-2020 20:49:17 6.3 C 37 %
2574 13-03-2020 20:59:17 6.2 C 37 %
2575 13-03-2020 21:09:18 5.8 C 38 %
Sensor: Nr:Datum:Temp:Feuchte:
Aussen-T/F 2576 13-03-2020 21:19:18 5.8 C 38 %
2577 13-03-2020 21:29:18 5.8 C 38 %
2578 13-03-2020 21:39:18 6.2 C 37 %
2579 13-03-2020 21:49:17 5.7 C 38 %
2580 13-03-2020 21:59:17 5.8 C 38 %
2581 13-03-2020 22:09:18 5.4 C 39 %
2582 13-03-2020 22:19:17 5.6 C 39 %
2583 13-03-2020 22:29:18 5.4 C 39 %
2584 13-03-2020 22:39:18 5.5 C 40 %
2585 13-03-2020 22:49:17 5.7 C 39 %
2586 13-03-2020 22:59:17 5.8 C 39 %
2587 13-03-2020 23:09:18 5.6 C 39 %
2588 13-03-2020 23:19:17 5.6 C 39 %
2589 13-03-2020 23:29:17 5.5 C 40 %
2590 13-03-2020 23:39:17 5.4 C 40 %
2591 13-03-2020 23:49:17 5.4 C 40 %
2592 13-03-2020 23:59:17 4.8 C 41 %
2593 14-03-2020 00:09:17 4.8 C 41 %
2594 14-03-2020 00:19:18 4.6 C 41 %
2595 14-03-2020 00:29:18 4.4 C 41 %
2596 14-03-2020 00:39:18 3.7 C 42 %
2597 14-03-2020 00:49:17 3.5 C 44 %
2598 14-03-2020 00:59:17 3 C 43 %
2599 14-03-2020 01:09:18 2.6 C 45 %
2600 14-03-2020 01:19:17 2.4 C 46 %
Sensor: Nr:Datum:Temp:Feuchte:
Aussen-T/F 2601 14-03-2020 01:29:18 2 C 45 %
2602 14-03-2020 01:39:18 2 C 46 %
2603 14-03-2020 01:49:17 2.4 C 48 %
2604 14-03-2020 01:59:18 2.8 C 49 %
2605 14-03-2020 02:09:18 3.3 C 47 %
2606 14-03-2020 02:19:18 3.6 C 46 %
2607 14-03-2020 02:29:18 3.3 C 45 %
2608 14-03-2020 02:39:18 3 C 45 %
2609 14-03-2020 02:49:18 2.8 C 45 %
2610 14-03-2020 02:59:18 2.3 C 46 %
2611 14-03-2020 03:09:18 2.2 C 46 %
2612 14-03-2020 03:19:17 1.5 C 47 %
2613 14-03-2020 03:29:17 1.3 C 47 %
2614 14-03-2020 03:39:17 1.4 C 48 %
2615 14-03-2020 03:49:18 1.5 C 48 %
2616 14-03-2020 03:59:18 1.5 C 49 %
2617 14-03-2020 04:09:17 1.7 C 49 %
2618 14-03-2020 04:19:17 1.6 C 48 %
2619 14-03-2020 04:29:17 1.6 C 49 %
2620 14-03-2020 04:39:17 1.5 C 48 %
2621 14-03-2020 04:49:17 1.3 C 48 %
2622 14-03-2020 04:59:17 1.3 C 48 %
2623 14-03-2020 05:09:17 1.3 C 49 %
2624 14-03-2020 05:19:17 1.1 C 48 %
2625 14-03-2020 05:29:17 0.8 C 49 %
Sensor: Nr:Datum:Temp:Feuchte:
Aussen-T/F 2626 14-03-2020 05:39:18 0.9 C 50 %
2627 14-03-2020 05:49:17 1.3 C 49 %
2628 14-03-2020 05:59:17 0.5 C 49 %
2629 14-03-2020 06:09:18 0.3 C 49 %
2630 14-03-2020 06:19:18 0.6 C 50 %
2631 14-03-2020 06:29:18 0.4 C 49 %
2632 14-03-2020 06:39:18 0.4 C 50 %
2633 14-03-2020 06:49:17 0.8 C 50 %
2634 14-03-2020 06:59:17 0.8 C 50 %
2635 14-03-2020 07:09:17 0.7 C 50 %
2636 14-03-2020 07:19:17 0.8 C 50 %
2637 14-03-2020 07:29:17 0.6 C 49 %
2638 14-03-2020 07:39:18 0.6 C 49 %
2639 14-03-2020 07:49:17 0.8 C 49 %
2640 14-03-2020 07:59:17 0.8 C 50 %
2641 14-03-2020 08:09:17 1 C 48 %
2642 14-03-2020 08:19:17 1.4 C 49 %
2643 14-03-2020 08:29:17 1.7 C 49 %
2644 14-03-2020 08:39:18 1.9 C 49 %
2645 14-03-2020 08:49:17 2.2 C 48 %
2646 14-03-2020 08:59:17 2.5 C 48 %
2647 14-03-2020 09:09:17 2.8 C 48 %
2648 14-03-2020 09:19:17 3.4 C 46 %
2649 14-03-2020 09:29:17 3.7 C 45 %
2650 14-03-2020 09:39:18 4.1 C 43 %
Sensor: Nr:Datum:Temp:Feuchte:
Aussen-T/F 2651 14-03-2020 09:49:17 4.5 C 43 %
2652 14-03-2020 09:59:17 5 C 41 %
2653 14-03-2020 10:09:18 5.7 C 41 %
2654 14-03-2020 10:19:18 6 C 39 %
2655 14-03-2020 10:29:18 6.8 C 40 %
2656 14-03-2020 10:39:18 7.7 C 38 %
2657 14-03-2020 10:49:17 7.7 C 37 %
2658 14-03-2020 10:59:17 8.4 C 36 %
2659 14-03-2020 11:09:18 9 C 35 %
2660 14-03-2020 11:19:18 10.4 C 34 %
2661 14-03-2020 11:29:18 11 C 31 %
2662 14-03-2020 11:39:18 10.4 C 31 %
2663 14-03-2020 11:49:17 10.1 C 32 %
2664 14-03-2020 11:59:17 11.3 C 31 %
2665 14-03-2020 12:09:18 13 C 27 %
2666 14-03-2020 12:19:17 12.4 C 27 %
2667 14-03-2020 12:29:18 12 C 27 %
2668 14-03-2020 12:39:18 11.3 C 28 %
2669 14-03-2020 12:49:17 11.5 C 28 %
2670 14-03-2020 12:59:17 13.1 C 26 %
2671 14-03-2020 13:09:18 12.9 C 25 %
2672 14-03-2020 13:19:17 13 C 22 %
2673 14-03-2020 13:29:17 13.3 C 23 %
2674 14-03-2020 13:39:17 12.5 C 22 %
2675 14-03-2020 13:49:17 12.4 C 22 %
Sensor: Nr:Datum:Temp:Feuchte:
Aussen-T/F 2676 14-03-2020 13:59:17 13.8 C 21 %
2677 14-03-2020 14:09:18 12.3 C 22 %
2678 14-03-2020 14:19:17 12.5 C 21 %
2679 14-03-2020 14:29:17 14 C 20 %
2680 14-03-2020 14:39:17 13.7 C 20 %
2681 14-03-2020 14:49:18 12.3 C 20 %
2682 14-03-2020 14:59:18 11.6 C 23 %
2683 14-03-2020 15:09:18 11.4 C 22 %
2684 14-03-2020 15:19:17 12.1 C 21 %
2685 14-03-2020 15:29:17 12.1 C 20 %
2686 14-03-2020 15:39:18 11.7 C 21 %
2687 14-03-2020 15:49:17 12 C 20 %
2688 14-03-2020 15:59:17 11.8 C 21 %
2689 14-03-2020 16:09:18 11.2 C 23 %
2690 14-03-2020 16:19:17 10.6 C 25 %
2691 14-03-2020 16:29:17 10.4 C 26 %
2692 14-03-2020 16:39:18 9.9 C 26 %
2693 14-03-2020 16:49:18 10.1 C 26 %
2694 14-03-2020 16:59:18 9.8 C 27 %
2695 14-03-2020 17:09:18 10.3 C 26 %
2696 14-03-2020 17:19:17 10.3 C 26 %
2697 14-03-2020 17:29:17 10.7 C 26 %
2698 14-03-2020 17:39:17 9.6 C 27 %
2699 14-03-2020 17:49:17 9.3 C 28 %
2700 14-03-2020 17:59:17 8.6 C 30 %
Sensor: Nr:Datum:Temp:Feuchte:
Aussen-T/F 2701 14-03-2020 18:09:17 8.1 C 31 %
2702 14-03-2020 18:19:17 7.3 C 33 %
2703 14-03-2020 18:29:17 7.1 C 33 %
2704 14-03-2020 18:39:17 6.3 C 36 %
2705 14-03-2020 18:49:17 5.9 C 37 %
2706 14-03-2020 18:59:17 5.9 C 38 %
2707 14-03-2020 19:09:17 5.3 C 38 %
2708 14-03-2020 19:19:17 5.5 C 39 %
2709 14-03-2020 19:29:17 5.1 C 39 %
2710 14-03-2020 19:39:17 5.6 C 39 %
2711 14-03-2020 19:49:17 5.2 C 39 %
2712 14-03-2020 19:59:17 5.3 C 39 %
2713 14-03-2020 20:09:18 5.3 C 39 %
2714 14-03-2020 20:19:18 5.3 C 39 %
2715 14-03-2020 20:29:18 5.3 C 39 %
2716 14-03-2020 20:39:18 5.6 C 39 %
2717 14-03-2020 20:49:17 5.5 C 39 %
2718 14-03-2020 20:59:18 5.7 C 39 %
2719 14-03-2020 21:09:18 5.7 C 39 %
2720 14-03-2020 21:19:18 5.7 C 39 %
2721 14-03-2020 21:29:18 5.6 C 38 %
2722 14-03-2020 21:39:17 5.1 C 39 %
2723 14-03-2020 21:49:18 5.2 C 39 %
2724 14-03-2020 21:59:18 5 C 39 %
2725 14-03-2020 22:09:18 5 C 39 %
Sensor: Nr:Datum:Temp:Feuchte:
Aussen-T/F 2726 14-03-2020 22:19:17 5 C 39 %
2727 14-03-2020 22:29:17 5 C 39 %
2728 14-03-2020 22:39:18 5.1 C 39 %
2729 14-03-2020 22:49:18 4.8 C 40 %
2730 14-03-2020 22:59:18 5.1 C 39 %
2731 14-03-2020 23:09:17 5.5 C 39 %
2732 14-03-2020 23:19:17 5.7 C 39 %
2733 14-03-2020 23:29:17 5.6 C 40 %
2734 14-03-2020 23:39:17 5.6 C 39 %
2735 14-03-2020 23:49:18 5.8 C 40 %
2736 14-03-2020 23:59:18 5.8 C 40 %
2737 15-03-2020 00:09:18 5.9 C 39 %
2738 15-03-2020 00:19:17 5.8 C 39 %
2739 15-03-2020 00:29:17 6.1 C 37 %
2740 15-03-2020 00:39:18 6 C 38 %
2741 15-03-2020 00:49:18 5.6 C 39 %
2742 15-03-2020 00:59:18 5.3 C 39 %
2743 15-03-2020 01:09:17 5.1 C 40 %
2744 15-03-2020 01:19:18 5.1 C 39 %
2745 15-03-2020 01:29:18 5.5 C 39 %
2746 15-03-2020 01:39:17 5.2 C 40 %
2747 15-03-2020 01:49:17 5.2 C 40 %
2748 15-03-2020 01:59:17 5.2 C 40 %
2749 15-03-2020 02:09:17 5.1 C 40 %
2750 15-03-2020 02:19:17 5.1 C 40 %
Sensor: Nr:Datum:Temp:Feuchte:
Aussen-T/F 2751 15-03-2020 02:29:17 4.8 C 40 %
2752 15-03-2020 02:39:18 4.5 C 40 %
2753 15-03-2020 02:49:17 4.9 C 40 %
2754 15-03-2020 02:59:17 5 C 40 %
2755 15-03-2020 03:09:17 4.8 C 40 %
2756 15-03-2020 03:19:17 4.2 C 40 %
2757 15-03-2020 03:29:17 4 C 40 %
2758 15-03-2020 03:39:18 4 C 40 %
2759 15-03-2020 03:49:17 3.8 C 41 %
2760 15-03-2020 03:59:17 3.7 C 42 %
2761 15-03-2020 04:09:18 3.7 C 41 %
2762 15-03-2020 04:19:18 3.9 C 41 %
2763 15-03-2020 04:29:18 3.7 C 41 %
2764 15-03-2020 04:39:18 3.8 C 41 %
2765 15-03-2020 04:49:17 3.7 C 41 %
2766 15-03-2020 04:59:18 3.5 C 41 %
2767 15-03-2020 05:09:18 3.5 C 41 %
2768 15-03-2020 05:19:17 3.3 C 41 %
2769 15-03-2020 05:29:18 3.2 C 41 %
2770 15-03-2020 05:39:18 3 C 41 %
2771 15-03-2020 05:49:17 3.1 C 41 %
2772 15-03-2020 05:59:17 3.1 C 41 %
2773 15-03-2020 06:09:18 3.1 C 41 %
2774 15-03-2020 06:19:17 3.1 C 41 %
2775 15-03-2020 06:29:17 2.9 C 43 %
Sensor: Nr:Datum:Temp:Feuchte:
Aussen-T/F 2776 15-03-2020 06:39:18 3.3 C 41 %
2777 15-03-2020 06:49:18 3.6 C 41 %
2778 15-03-2020 06:59:18 3.3 C 41 %
2779 15-03-2020 07:09:18 3 C 42 %
2780 15-03-2020 07:19:18 3.1 C 42 %
2781 15-03-2020 07:29:18 3.6 C 41 %
2782 15-03-2020 07:39:18 3.6 C 41 %
2783 15-03-2020 07:49:18 3.5 C 41 %
2784 15-03-2020 07:59:18 4 C 41 %
2785 15-03-2020 08:09:18 4.8 C 40 %
2786 15-03-2020 08:19:18 5.4 C 39 %
2787 15-03-2020 08:29:18 5.7 C 39 %
2788 15-03-2020 08:39:18 5.9 C 38 %
2789 15-03-2020 08:49:17 6.4 C 38 %
2790 15-03-2020 08:59:17 6.7 C 38 %
2791 15-03-2020 09:09:18 6.8 C 37 %
2792 15-03-2020 09:19:18 6.9 C 38 %
2793 15-03-2020 09:29:18 7.1 C 37 %
2794 15-03-2020 09:39:18 7.8 C 36 %
2795 15-03-2020 09:49:18 9.2 C 33 %
2796 15-03-2020 09:59:18 9.9 C 32 %
2797 15-03-2020 10:09:18 9.9 C 31 %
2798 15-03-2020 10:19:18 9.8 C 32 %
2799 15-03-2020 10:29:18 10 C 32 %
2800 15-03-2020 10:39:18 10.8 C 31 %
Sensor: Nr:Datum:Temp:Feuchte:
Aussen-T/F 2801 15-03-2020 10:49:17 11.8 C 29 %
2802 15-03-2020 10:59:17 12.5 C 27 %
2803 15-03-2020 11:09:17 13.4 C 25 %
2804 15-03-2020 11:19:17 14.7 C 23 %
2805 15-03-2020 11:29:17 16 C 20 %
2806 15-03-2020 11:39:18 15.5 C 20 %
2807 15-03-2020 11:49:17 14.9 C 20 %
2808 15-03-2020 11:59:18 15.2 C 20 %
2809 15-03-2020 12:09:18 14.5 C 20 %
2810 15-03-2020 12:19:18 14.1 C 20 %
2811 15-03-2020 12:29:18 14.4 C 20 %
2812 15-03-2020 12:39:18 14.7 C 20 %
2813 15-03-2020 12:49:17 15.2 C 20 %
2814 15-03-2020 12:59:17 15.4 C 20 %
2815 15-03-2020 13:09:18 14.8 C 20 %
2816 15-03-2020 13:19:17 17 C 20 %
2817 15-03-2020 13:29:17 18.6 C 20 %
2818 15-03-2020 13:39:18 17.4 C 20 %
2819 15-03-2020 13:49:17 16.7 C 20 %
2820 15-03-2020 13:59:17 16.2 C 20 %
2821 15-03-2020 14:09:17 15.5 C 20 %
2822 15-03-2020 14:19:17 16.5 C 20 %
2823 15-03-2020 14:29:17 16.3 C 20 %
2824 15-03-2020 14:39:18 16.6 C 20 %
2825 15-03-2020 14:49:17 16.2 C 20 %
Sensor: Nr:Datum:Temp:Feuchte:
Aussen-T/F 2826 15-03-2020 14:59:17 16 C 20 %
2827 15-03-2020 15:09:17 17.4 C 20 %
2828 15-03-2020 15:19:17 20.3 C 20 %
2829 15-03-2020 15:29:18 20.4 C 20 %
2830 15-03-2020 15:39:18 19.4 C 20 %
2831 15-03-2020 15:49:17 20.7 C 20 %
2832 15-03-2020 15:59:17 19.9 C 20 %
2833 15-03-2020 16:09:17 21.2 C 20 %
2834 15-03-2020 16:19:17 20.2 C 20 %
2835 15-03-2020 16:29:17 20.5 C 20 %
2836 15-03-2020 16:39:17 19.7 C 20 %
2837 15-03-2020 16:49:18 18.1 C 20 %
2838 15-03-2020 16:59:18 16.9 C 20 %
2839 15-03-2020 17:09:18 16 C 20 %
2840 15-03-2020 17:19:18 15.5 C 20 %
2841 15-03-2020 17:29:18 15.5 C 20 %
2842 15-03-2020 17:39:18 14.9 C 20 %
2843 15-03-2020 17:49:18 13.8 C 20 %
2844 15-03-2020 17:59:18 12.6 C 23 %
2845 15-03-2020 18:09:18 12.1 C 25 %
2846 15-03-2020 18:19:18 11.7 C 26 %
2847 15-03-2020 18:29:18 11.1 C 27 %
2848 15-03-2020 18:39:18 10.6 C 28 %
2849 15-03-2020 18:49:17 10.4 C 28 %
2850 15-03-2020 18:59:17 10 C 28 %
Sensor: Nr:Datum:Temp:Feuchte:
Aussen-T/F 2851 15-03-2020 19:09:18 9.6 C 30 %
2852 15-03-2020 19:19:18 9.4 C 30 %
2853 15-03-2020 19:29:18 9.2 C 31 %
2854 15-03-2020 19:39:18 9.1 C 30 %
2855 15-03-2020 19:49:17 9 C 31 %
2856 15-03-2020 19:59:17 8.9 C 31 %
2857 15-03-2020 20:09:18 8.6 C 31 %
2858 15-03-2020 20:19:17 8.5 C 32 %
2859 15-03-2020 20:29:17 8.2 C 32 %
2860 15-03-2020 20:39:18 8.2 C 32 %
2861 15-03-2020 20:49:18 8 C 32 %
2862 15-03-2020 20:59:18 7.4 C 34 %
2863 15-03-2020 21:09:18 7.1 C 35 %
2864 15-03-2020 21:19:17 7 C 35 %
2865 15-03-2020 21:29:17 7.4 C 35 %
2866 15-03-2020 21:39:17 7.5 C 35 %
2867 15-03-2020 21:49:17 7.1 C 35 %
2868 15-03-2020 21:59:17 6.3 C 36 %
2869 15-03-2020 22:09:17 5.8 C 37 %
2870 15-03-2020 22:19:17 5.4 C 37 %
2871 15-03-2020 22:29:18 5 C 38 %
2872 15-03-2020 22:39:17 4.7 C 40 %
2873 15-03-2020 22:49:17 4.7 C 40 %
2874 15-03-2020 22:59:17 4.7 C 40 %
2875 15-03-2020 23:09:17 4.7 C 40 %
Sensor: Nr:Datum:Temp:Feuchte:
Aussen-T/F 2876 15-03-2020 23:19:17 4.6 C 40 %
2877 15-03-2020 23:29:17 4.5 C 40 %
2878 15-03-2020 23:39:17 4.5 C 40 %
2879 15-03-2020 23:49:17 4.3 C 40 %
2880 15-03-2020 23:59:17 4.1 C 40 %
2881 16-03-2020 00:09:17 4 C 40 %
2882 16-03-2020 00:19:17 3.8 C 41 %
2883 16-03-2020 00:29:17 3.4 C 41 %
2884 16-03-2020 00:39:17 3.4 C 42 %
2885 16-03-2020 00:49:17 3.3 C 42 %
2886 16-03-2020 00:59:17 3.3 C 42 %
2887 16-03-2020 01:09:18 2.9 C 43 %
2888 16-03-2020 01:19:17 3 C 43 %
2889 16-03-2020 01:29:17 3 C 42 %
2890 16-03-2020 01:39:17 3.2 C 42 %
2891 16-03-2020 01:49:18 2.8 C 43 %
2892 16-03-2020 01:59:18 2.6 C 44 %
2893 16-03-2020 02:09:17 2.7 C 45 %
2894 16-03-2020 02:19:17 2.7 C 44 %
2895 16-03-2020 02:29:17 2.4 C 44 %
2896 16-03-2020 02:39:17 2.6 C 45 %
2897 16-03-2020 02:49:17 2.8 C 45 %
2898 16-03-2020 02:59:17 2.8 C 44 %
2899 16-03-2020 03:09:18 2.2 C 44 %
2900 16-03-2020 03:19:17 2.3 C 44 %
Sensor: Nr:Datum:Temp:Feuchte:
Aussen-T/F 2901 16-03-2020 03:29:17 2.2 C 45 %
2902 16-03-2020 03:39:17 1.8 C 45 %
2903 16-03-2020 03:49:18 2 C 46 %
2904 16-03-2020 03:59:18 1.8 C 46 %
2905 16-03-2020 04:09:18 1.6 C 46 %
2906 16-03-2020 04:19:18 1.7 C 46 %
2907 16-03-2020 04:29:18 2 C 46 %
2908 16-03-2020 04:39:18 1.5 C 46 %
2909 16-03-2020 04:49:17 1.7 C 46 %
2910 16-03-2020 04:59:18 1.9 C 46 %
2911 16-03-2020 05:09:18 1.7 C 46 %
2912 16-03-2020 05:19:18 1.7 C 46 %
2913 16-03-2020 05:29:18 1.4 C 46 %
2914 16-03-2020 05:39:18 1.3 C 46 %
2915 16-03-2020 05:49:17 1.2 C 46 %
2916 16-03-2020 05:59:17 1.3 C 47 %
2917 16-03-2020 06:09:18 1.1 C 47 %
2918 16-03-2020 06:19:17 0.6 C 48 %
2919 16-03-2020 06:29:17 0.6 C 48 %
2920 16-03-2020 06:39:17 0.6 C 48 %
2921 16-03-2020 06:49:17 0.6 C 48 %
2922 16-03-2020 06:59:17 0.9 C 49 %
2923 16-03-2020 07:09:17 1.2 C 49 %
2924 16-03-2020 07:19:17 1.1 C 47 %
2925 16-03-2020 07:29:17 1 C 47 %
Sensor: Nr:Datum:Temp:Feuchte:
Aussen-T/F 2926 16-03-2020 07:39:17 1.4 C 49 %
2927 16-03-2020 07:49:17 1.4 C 48 %
2928 16-03-2020 07:59:17 1.7 C 48 %
2929 16-03-2020 08:09:18 2 C 47 %
2930 16-03-2020 08:19:17 2.3 C 47 %
2931 16-03-2020 08:29:18 2.4 C 46 %
2932 16-03-2020 08:39:18 2.4 C 46 %
2933 16-03-2020 08:49:17 2.6 C 46 %
2934 16-03-2020 08:59:17 2.9 C 47 %
2935 16-03-2020 09:09:18 3.4 C 46 %
2936 16-03-2020 09:19:18 3.7 C 45 %
2937 16-03-2020 09:29:18 4 C 45 %
2938 16-03-2020 09:39:18 4.6 C 44 %
2939 16-03-2020 09:49:18 5 C 43 %
2940 16-03-2020 09:59:18 5.6 C 42 %
2941 16-03-2020 10:09:18 6.6 C 41 %
2942 16-03-2020 10:19:18 7.3 C 40 %
2943 16-03-2020 10:29:18 8.3 C 39 %
2944 16-03-2020 10:39:17 9.3 C 38 %
2945 16-03-2020 10:49:18 10.4 C 37 %
2946 16-03-2020 10:59:18 12.4 C 34 %
2947 16-03-2020 11:09:17 13.3 C 32 %
2948 16-03-2020 11:19:17 14.3 C 30 %
2949 16-03-2020 11:29:17 15.4 C 27 %
2950 16-03-2020 11:39:18 15.7 C 26 %
Sensor: Nr:Datum:Temp:Feuchte:
Aussen-T/F 2951 16-03-2020 11:49:17 15.6 C 25 %
2952 16-03-2020 11:59:17 16.1 C 25 %
2953 16-03-2020 12:09:17 16.5 C 25 %
2954 16-03-2020 12:19:17 16.8 C 25 %
2955 16-03-2020 12:29:17 16.4 C 24 %
2956 16-03-2020 12:39:17 16.9 C 24 %
2957 16-03-2020 12:49:17 18.3 C 21 %
2958 16-03-2020 12:59:17 18.7 C 20 %
2959 16-03-2020 13:09:17 22.3 C 20 %
2960 16-03-2020 13:19:17 21.2 C 20 %
2961 16-03-2020 13:29:17 21.1 C 20 %
2962 16-03-2020 13:39:17 20.6 C 20 %
2963 16-03-2020 13:49:17 21.1 C 20 %
2964 16-03-2020 13:59:17 19.7 C 20 %
2965 16-03-2020 14:09:17 18.7 C 20 %
2966 16-03-2020 14:19:17 19.7 C 20 %
2967 16-03-2020 14:29:17 19.7 C 20 %
2968 16-03-2020 14:39:17 20 C 20 %
2969 16-03-2020 14:49:17 19.2 C 20 %
2970 16-03-2020 14:59:17 20.8 C 20 %
2971 16-03-2020 15:09:17 20 C 20 %
2972 16-03-2020 15:19:17 19.1 C 20 %
2973 16-03-2020 15:29:17 18.8 C 20 %
2974 16-03-2020 15:39:18 18.8 C 20 %
2975 16-03-2020 15:49:17 19 C 20 %
Sensor: Nr:Datum:Temp:Feuchte:
Aussen-T/F 2976 16-03-2020 15:59:17 19 C 20 %
2977 16-03-2020 16:09:18 18.7 C 20 %
2978 16-03-2020 16:19:18 19 C 20 %
2979 16-03-2020 16:29:18 21.4 C 20 %
2980 16-03-2020 16:39:17 20.8 C 20 %
2981 16-03-2020 16:49:17 20.2 C 20 %
2982 16-03-2020 16:59:17 19.4 C 20 %
2983 16-03-2020 17:09:17 18.4 C 20 %
2984 16-03-2020 17:19:17 17.9 C 20 %
2985 16-03-2020 17:29:18 17.7 C 20 %
2986 16-03-2020 17:39:18 17.5 C 20 %
2987 16-03-2020 17:49:17 16.8 C 21 %
2988 16-03-2020 17:59:18 16 C 23 %
2989 16-03-2020 18:09:18 15 C 26 %
2990 16-03-2020 18:19:18 14.3 C 27 %
2991 16-03-2020 18:29:18 13.7 C 29 %
2992 16-03-2020 18:39:18 13.1 C 30 %
2993 16-03-2020 18:49:18 12.7 C 31 %
2994 16-03-2020 18:59:18 12.4 C 32 %
2995 16-03-2020 19:09:18 12.1 C 32 %
2996 16-03-2020 19:19:18 12.2 C 32 %
2997 16-03-2020 19:29:18 12.2 C 32 %
2998 16-03-2020 19:39:18 11.9 C 34 %
2999 16-03-2020 19:49:17 11.5 C 34 %
3000 16-03-2020 19:59:18 11 C 35 %
Sensor: Nr:Datum:Temp:Feuchte:
Aussen-T/F 3001 16-03-2020 20:09:18 10.7 C 36 %
3002 16-03-2020 20:19:18 11.4 C 35 %
3003 16-03-2020 20:29:18 10.8 C 36 %
3004 16-03-2020 20:39:18 10.3 C 36 %
3005 16-03-2020 20:49:18 9.5 C 38 %
3006 16-03-2020 20:59:18 10.8 C 37 %
3007 16-03-2020 21:09:18 10.1 C 37 %
3008 16-03-2020 21:19:17 10.3 C 38 %
3009 16-03-2020 21:29:17 9.9 C 38 %
3010 16-03-2020 21:39:17 9.7 C 38 %
3011 16-03-2020 21:49:18 10.2 C 37 %
3012 16-03-2020 21:59:18 9.9 C 38 %
3013 16-03-2020 22:09:18 9.7 C 38 %
3014 16-03-2020 22:19:18 9.5 C 38 %
3015 16-03-2020 22:29:18 9.5 C 39 %
3016 16-03-2020 22:39:18 9.2 C 38 %
3017 16-03-2020 22:49:18 8.9 C 39 %
3018 16-03-2020 22:59:18 9.1 C 39 %
3019 16-03-2020 23:09:18 9.4 C 39 %
3020 16-03-2020 23:19:17 9.4 C 39 %
3021 16-03-2020 23:29:17 9.4 C 39 %
3022 16-03-2020 23:39:17 9.5 C 39 %
3023 16-03-2020 23:49:17 9.5 C 40 %
3024 16-03-2020 23:59:17 9.5 C 39 %
3025 17-03-2020 00:09:17 9.3 C 39 %
Sensor: Nr:Datum:Temp:Feuchte:
Aussen-T/F 3026 17-03-2020 00:19:17 9.7 C 40 %
3027 17-03-2020 00:29:17 9.5 C 39 %
3028 17-03-2020 00:39:18 9.3 C 39 %
3029 17-03-2020 00:49:18 9.1 C 40 %
3030 17-03-2020 00:59:18 9 C 40 %
3031 17-03-2020 01:09:18 9.3 C 40 %
3032 17-03-2020 01:19:17 9.2 C 40 %
3033 17-03-2020 01:29:17 8.9 C 40 %
3034 17-03-2020 01:39:17 8.7 C 41 %
3035 17-03-2020 01:49:18 8.8 C 41 %
3036 17-03-2020 01:59:18 8.8 C 41 %
3037 17-03-2020 02:09:18 8.7 C 41 %
3038 17-03-2020 02:19:17 8.7 C 41 %
3039 17-03-2020 02:29:17 8.7 C 41 %
3040 17-03-2020 02:39:17 8.9 C 41 %
3041 17-03-2020 02:49:17 8.9 C 41 %
3042 17-03-2020 02:59:17 8.8 C 41 %
3043 17-03-2020 03:09:18 8.6 C 41 %
3044 17-03-2020 03:19:18 8.6 C 41 %
3045 17-03-2020 03:29:18 8.4 C 41 %
3046 17-03-2020 03:39:17 8.3 C 41 %
3047 17-03-2020 03:49:18 8.1 C 42 %
3048 17-03-2020 03:59:18 8 C 41 %
3049 17-03-2020 04:09:18 8.9 C 42 %
3050 17-03-2020 04:19:18 9.2 C 40 %
Sensor: Nr:Datum:Temp:Feuchte:
Aussen-T/F 3051 17-03-2020 04:29:18 9.3 C 40 %
3052 17-03-2020 04:39:17 9 C 40 %
3053 17-03-2020 04:49:18 9 C 40 %
3054 17-03-2020 04:59:18 8.6 C 41 %
3055 17-03-2020 05:09:17 8.9 C 41 %
3056 17-03-2020 05:19:17 9 C 40 %
3057 17-03-2020 05:29:17 8.6 C 41 %
3058 17-03-2020 05:39:17 8.3 C 41 %
3059 17-03-2020 05:49:17 8.2 C 41 %
3060 17-03-2020 05:59:18 8.2 C 41 %
3061 17-03-2020 06:09:18 8.1 C 41 %
3062 17-03-2020 06:19:18 8.1 C 41 %
3063 17-03-2020 06:29:18 8 C 41 %
3064 17-03-2020 06:39:18 8.2 C 41 %
3065 17-03-2020 06:49:18 8.1 C 41 %
3066 17-03-2020 06:59:18 8.2 C 41 %
3067 17-03-2020 07:09:17 8.8 C 40 %
3068 17-03-2020 07:19:17 9 C 40 %
3069 17-03-2020 07:29:17 9.5 C 39 %
3070 17-03-2020 07:39:17 9.6 C 39 %
3071 17-03-2020 07:49:18 9.6 C 39 %
3072 17-03-2020 07:59:18 9.8 C 38 %
3073 17-03-2020 08:09:18 10.1 C 37 %
3074 17-03-2020 08:19:17 10 C 37 %
3075 17-03-2020 08:29:17 9.8 C 38 %
Sensor: Nr:Datum:Temp:Feuchte:
Aussen-T/F 3076 17-03-2020 08:39:17 9.9 C 38 %
3077 17-03-2020 08:49:17 9.9 C 38 %
3078 17-03-2020 08:59:17 10 C 37 %
3079 17-03-2020 09:09:17 10.2 C 37 %
3080 17-03-2020 09:19:18 10.4 C 37 %
3081 17-03-2020 09:29:18 10.4 C 37 %
3082 17-03-2020 09:39:18 10.6 C 37 %
3083 17-03-2020 09:49:17 10.6 C 37 %
3084 17-03-2020 09:59:17 10.7 C 37 %
3085 17-03-2020 10:09:17 10.7 C 37 %
3086 17-03-2020 10:19:17 10.9 C 36 %
3087 17-03-2020 10:29:17 11 C 35 %
3088 17-03-2020 10:39:17 11.7 C 35 %
3089 17-03-2020 10:49:17 12.4 C 33 %
3090 17-03-2020 10:59:17 12.9 C 33 %
3091 17-03-2020 11:09:17 13.1 C 32 %
3092 17-03-2020 11:19:17 13.3 C 31 %
3093 17-03-2020 11:29:17 13.3 C 31 %
3094 17-03-2020 11:39:17 14.7 C 30 %
3095 17-03-2020 11:49:17 14.1 C 29 %
3096 17-03-2020 11:59:17 15.4 C 28 %
3097 17-03-2020 12:09:17 14.5 C 29 %
3098 17-03-2020 12:19:18 14.6 C 27 %
3099 17-03-2020 12:29:18 15.2 C 26 %
3100 17-03-2020 12:39:18 16.5 C 26 %
Sensor: Nr:Datum:Temp:Feuchte:
Aussen-T/F 3101 17-03-2020 12:49:18 16.6 C 24 %
3102 17-03-2020 12:59:18 19.3 C 20 %
3103 17-03-2020 13:09:17 18.8 C 20 %
3104 17-03-2020 13:19:17 20.4 C 20 %
3105 17-03-2020 13:29:17 19.5 C 20 %
3106 17-03-2020 13:39:17 18.5 C 20 %
3107 17-03-2020 13:49:18 18.8 C 20 %
3108 17-03-2020 13:59:18 19.3 C 20 %
3109 17-03-2020 14:09:17 18.3 C 20 %
3110 17-03-2020 14:19:17 18.5 C 20 %
3111 17-03-2020 14:29:17 17.9 C 20 %
3112 17-03-2020 14:39:18 17.1 C 20 %
3113 17-03-2020 14:49:18 20.5 C 20 %
3114 17-03-2020 14:59:18 22.2 C 20 %
3115 17-03-2020 15:09:17 22.5 C 20 %
3116 17-03-2020 15:19:17 22.1 C 20 %
3117 17-03-2020 15:29:17 23.8 C 20 %
3118 17-03-2020 15:39:18 23.6 C 20 %
3119 17-03-2020 15:49:17 23.8 C 20 %
3120 17-03-2020 15:59:17 23.9 C 20 %
3121 17-03-2020 16:09:18 23.3 C 20 %
3122 17-03-2020 16:19:18 21.8 C 20 %
3123 17-03-2020 16:29:18 23.2 C 20 %
3124 17-03-2020 16:39:17 21.4 C 20 %
3125 17-03-2020 16:49:17 22.3 C 20 %
Sensor: Nr:Datum:Temp:Feuchte:
Aussen-T/F 3126 17-03-2020 16:59:17 20.1 C 20 %
3127 17-03-2020 17:09:17 18.7 C 20 %
3128 17-03-2020 17:19:18 17.7 C 20 %
3129 17-03-2020 17:29:18 17.3 C 20 %
3130 17-03-2020 17:39:18 16.8 C 20 %
3131 17-03-2020 17:49:17 16.1 C 22 %
3132 17-03-2020 17:59:18 15.3 C 24 %
3133 17-03-2020 18:09:18 14.1 C 27 %
3134 17-03-2020 18:19:17 13.5 C 28 %
3135 17-03-2020 18:29:17 13.2 C 29 %
3136 17-03-2020 18:39:18 12.8 C 30 %
3137 17-03-2020 18:49:18 12.4 C 31 %
3138 17-03-2020 18:59:18 12 C 31 %
3139 17-03-2020 19:09:18 11.9 C 32 %
3140 17-03-2020 19:19:17 11.8 C 32 %
3141 17-03-2020 19:29:17 11.1 C 33 %
3142 17-03-2020 19:39:17 11 C 34 %
3143 17-03-2020 19:49:17 10.4 C 35 %
3144 17-03-2020 19:59:17 10.2 C 35 %
3145 17-03-2020 20:09:17 9.9 C 36 %
3146 17-03-2020 20:19:17 10.1 C 36 %
3147 17-03-2020 20:29:17 10.7 C 35 %
3148 17-03-2020 20:39:18 10.4 C 35 %
3149 17-03-2020 20:49:18 9.6 C 37 %
3150 17-03-2020 20:59:18 9.5 C 37 %
Sensor: Nr:Datum:Temp:Feuchte:
Aussen-T/F 3151 17-03-2020 21:09:18 9 C 37 %
3152 17-03-2020 21:19:17 8.4 C 39 %
3153 17-03-2020 21:29:17 8.4 C 39 %
3154 17-03-2020 21:39:17 8.1 C 39 %
3155 17-03-2020 21:49:18 8 C 40 %
3156 17-03-2020 21:59:18 7.6 C 40 %
3157 17-03-2020 22:09:18 7.3 C 40 %
3158 17-03-2020 22:19:18 7.2 C 41 %
3159 17-03-2020 22:29:18 7 C 41 %
3160 17-03-2020 22:39:17 6.9 C 41 %
3161 17-03-2020 22:49:17 6.7 C 42 %
3162 17-03-2020 22:59:17 6.5 C 42 %
3163 17-03-2020 23:09:17 6.4 C 42 %
3164 17-03-2020 23:19:17 6.3 C 42 %
3165 17-03-2020 23:29:17 6.1 C 42 %
3166 17-03-2020 23:39:18 6.1 C 42 %
3167 17-03-2020 23:49:18 6.2 C 43 %
3168 17-03-2020 23:59:18 6.3 C 43 %
3169 18-03-2020 00:09:17 5.9 C 43 %
3170 18-03-2020 00:19:17 5.8 C 44 %
3171 18-03-2020 00:29:17 5.9 C 44 %
3172 18-03-2020 00:39:17 5.8 C 44 %
3173 18-03-2020 00:49:17 6 C 44 %
3174 18-03-2020 00:59:17 6 C 43 %
3175 18-03-2020 01:09:17 5.7 C 44 %
Sensor: Nr:Datum:Temp:Feuchte:
Aussen-T/F 3176 18-03-2020 01:19:17 5.6 C 44 %
3177 18-03-2020 01:29:17 5.3 C 44 %
3178 18-03-2020 01:39:17 5.6 C 45 %
3179 18-03-2020 01:49:17 5.3 C 45 %
3180 18-03-2020 01:59:17 5.6 C 46 %
3181 18-03-2020 02:09:17 5.1 C 44 %
3182 18-03-2020 02:19:17 4.8 C 45 %
3183 18-03-2020 02:29:17 4.8 C 45 %
3184 18-03-2020 02:39:17 4.6 C 46 %
3185 18-03-2020 02:49:18 4.3 C 46 %
3186 18-03-2020 02:59:18 4.3 C 46 %
3187 18-03-2020 03:09:18 4.2 C 46 %
3188 18-03-2020 03:19:17 4.2 C 46 %
3189 18-03-2020 03:29:17 4.1 C 46 %
3190 18-03-2020 03:39:17 4 C 46 %
3191 18-03-2020 03:49:17 3.8 C 47 %
3192 18-03-2020 03:59:17 3.8 C 47 %
3193 18-03-2020 04:09:17 3.8 C 47 %
3194 18-03-2020 04:19:18 3.8 C 47 %
3195 18-03-2020 04:29:18 3.7 C 47 %
3196 18-03-2020 04:39:18 3.7 C 47 %
3197 18-03-2020 04:49:18 3.6 C 47 %
3198 18-03-2020 04:59:18 3.6 C 47 %
3199 18-03-2020 05:09:18 3.7 C 48 %
3200 18-03-2020 05:19:18 3.8 C 48 %
Sensor: Nr:Datum:Temp:Feuchte:
Aussen-T/F 3201 18-03-2020 05:29:18 3.3 C 47 %
3202 18-03-2020 05:39:18 3.2 C 47 %
3203 18-03-2020 05:49:18 3.3 C 47 %
3204 18-03-2020 05:59:18 3.1 C 47 %
3205 18-03-2020 06:09:18 2.9 C 48 %
3206 18-03-2020 06:19:17 3.3 C 47 %
3207 18-03-2020 06:29:18 3.1 C 47 %
3208 18-03-2020 06:39:18 3.1 C 47 %
3209 18-03-2020 06:49:17 3.1 C 47 %
3210 18-03-2020 06:59:18 3.6 C 47 %
3211 18-03-2020 07:09:18 3.5 C 47 %
3212 18-03-2020 07:19:17 3.4 C 47 %
3213 18-03-2020 07:29:17 3.7 C 47 %
3214 18-03-2020 07:39:17 3.9 C 47 %
3215 18-03-2020 07:49:18 4 C 46 %
3216 18-03-2020 07:59:18 4.9 C 46 %
3217 18-03-2020 08:09:18 4.6 C 46 %
3218 18-03-2020 08:19:18 4.5 C 46 %
3219 18-03-2020 08:29:18 4.7 C 46 %
3220 18-03-2020 08:39:17 5 C 45 %
3221 18-03-2020 08:49:18 5.3 C 46 %
3222 18-03-2020 08:59:18 5.6 C 46 %
3223 18-03-2020 09:09:17 6.7 C 45 %
3224 18-03-2020 09:19:17 7.1 C 45 %
3225 18-03-2020 09:29:17 8.5 C 45 %
Sensor: Nr:Datum:Temp:Feuchte:
Aussen-T/F 3226 18-03-2020 09:39:17 9.7 C 41 %
3227 18-03-2020 09:49:18 10.5 C 40 %
3228 18-03-2020 09:59:18 11 C 38 %
3229 18-03-2020 10:09:18 11.1 C 38 %
3230 18-03-2020 10:19:18 11.6 C 38 %
3231 18-03-2020 10:29:18 11.6 C 37 %
3232 18-03-2020 10:39:18 11.7 C 38 %
3233 18-03-2020 10:49:18 12 C 36 %
3234 18-03-2020 10:59:18 12.2 C 35 %
3235 18-03-2020 11:09:18 12.7 C 35 %
3236 18-03-2020 11:19:18 12.8 C 34 %
3237 18-03-2020 11:29:18 13.3 C 34 %
3238 18-03-2020 11:39:18 13.9 C 33 %
3239 18-03-2020 11:49:17 14.7 C 32 %
3240 18-03-2020 11:59:17 15.3 C 30 %
3241 18-03-2020 12:09:18 15.8 C 30 %
3242 18-03-2020 12:19:17 16.6 C 29 %
3243 18-03-2020 12:29:18 17 C 27 %
3244 18-03-2020 12:39:18 17.8 C 26 %
3245 18-03-2020 12:49:17 19.1 C 25 %
3246 18-03-2020 12:59:17 19.8 C 20 %
3247 18-03-2020 13:09:17 21 C 20 %
3248 18-03-2020 13:19:17 21.2 C 20 %
3249 18-03-2020 13:29:17 19.5 C 20 %
3250 18-03-2020 13:39:18 17.7 C 20 %
Sensor: Nr:Datum:Temp:Feuchte:
Aussen-T/F 3251 18-03-2020 13:49:17 16.6 C 22 %
3252 18-03-2020 13:59:17 16 C 22 %
3253 18-03-2020 14:09:17 17.6 C 21 %
3254 18-03-2020 14:19:17 16.7 C 20 %
3255 18-03-2020 14:29:17 17.9 C 20 %
3256 18-03-2020 14:39:18 18.5 C 20 %
3257 18-03-2020 14:49:17 17.4 C 20 %
3258 18-03-2020 14:59:17 17.4 C 20 %
3259 18-03-2020 15:09:17 20.6 C 20 %
3260 18-03-2020 15:19:18 17.9 C 20 %
3261 18-03-2020 15:29:18 18.2 C 20 %
3262 18-03-2020 15:39:18 17.7 C 20 %
3263 18-03-2020 15:49:17 16.9 C 20 %
3264 18-03-2020 15:59:17 16.7 C 21 %
3265 18-03-2020 16:09:17 16.4 C 21 %
3266 18-03-2020 16:19:17 16.4 C 22 %
3267 18-03-2020 16:29:17 16.4 C 20 %
3268 18-03-2020 16:39:17 16.5 C 20 %
3269 18-03-2020 16:49:18 16.2 C 21 %
3270 18-03-2020 16:59:18 16.1 C 21 %
3271 18-03-2020 17:09:17 16 C 21 %
3272 18-03-2020 17:19:17 16 C 21 %
3273 18-03-2020 17:29:17 15.7 C 22 %
3274 18-03-2020 17:39:18 16 C 20 %
3275 18-03-2020 17:49:17 16.3 C 20 %
Sensor: Nr:Datum:Temp:Feuchte:
Aussen-T/F 3276 18-03-2020 17:59:17 15.8 C 22 %
3277 18-03-2020 18:09:17 15.4 C 22 %
3278 18-03-2020 18:19:17 14.7 C 26 %
3279 18-03-2020 18:29:17 13.7 C 26 %
3280 18-03-2020 18:39:17 13.3 C 28 %
3281 18-03-2020 18:49:17 12.7 C 30 %
3282 18-03-2020 18:59:17 12 C 31 %
3283 18-03-2020 19:09:17 11.7 C 32 %
3284 18-03-2020 19:19:18 11.5 C 32 %
3285 18-03-2020 19:29:18 10.5 C 34 %
3286 18-03-2020 19:39:18 10.9 C 34 %
3287 18-03-2020 19:49:18 11.1 C 34 %
3288 18-03-2020 19:59:18 10.9 C 35 %
3289 18-03-2020 20:09:18 10.6 C 35 %
3290 18-03-2020 20:19:17 10.4 C 35 %
3291 18-03-2020 20:29:17 10.4 C 35 %
3292 18-03-2020 20:39:18 10 C 36 %
3293 18-03-2020 20:49:17 9.7 C 37 %
3294 18-03-2020 20:59:17 9.7 C 37 %
3295 18-03-2020 21:09:18 9.7 C 37 %
3296 18-03-2020 21:19:17 9.6 C 37 %
3297 18-03-2020 21:29:17 9.4 C 37 %
3298 18-03-2020 21:39:17 9 C 37 %
3299 18-03-2020 21:49:17 8.7 C 38 %
3300 18-03-2020 21:59:17 8.4 C 39 %
Sensor: Nr:Datum:Temp:Feuchte:
Aussen-T/F 3301 18-03-2020 22:09:17 8.2 C 39 %
3302 18-03-2020 22:19:17 8.1 C 40 %
3303 18-03-2020 22:29:17 8 C 40 %
3304 18-03-2020 22:39:17 8 C 40 %
3305 18-03-2020 22:49:17 8.1 C 40 %
3306 18-03-2020 22:59:17 8.2 C 40 %
3307 18-03-2020 23:09:18 8.3 C 40 %
3308 18-03-2020 23:19:17 8.1 C 40 %
3309 18-03-2020 23:29:17 8 C 40 %
3310 18-03-2020 23:39:18 8 C 40 %
3311 18-03-2020 23:49:18 8.4 C 40 %
3312 18-03-2020 23:59:18 8.9 C 40 %
3313 19-03-2020 00:09:17 8.9 C 39 %
3314 19-03-2020 00:19:18 8.9 C 38 %
3315 19-03-2020 00:29:18 9 C 38 %
3316 19-03-2020 00:39:18 9 C 38 %
3317 19-03-2020 00:49:17 9.1 C 38 %
3318 19-03-2020 00:59:17 9.1 C 38 %
3319 19-03-2020 01:09:18 9 C 38 %
3320 19-03-2020 01:19:17 9.1 C 38 %
3321 19-03-2020 01:29:17 9 C 38 %
3322 19-03-2020 01:39:17 9 C 38 %
3323 19-03-2020 01:49:17 8.9 C 38 %
3324 19-03-2020 01:59:17 8.8 C 39 %
3325 19-03-2020 02:09:18 8.7 C 39 %
Sensor: Nr:Datum:Temp:Feuchte:
Aussen-T/F 3326 19-03-2020 02:19:17 8.7 C 39 %
3327 19-03-2020 02:29:17 8.6 C 39 %
3328 19-03-2020 02:39:17 8.5 C 39 %
3329 19-03-2020 02:49:18 8.5 C 39 %
3330 19-03-2020 02:59:18 8.5 C 39 %
3331 19-03-2020 03:09:18 8.5 C 39 %
3332 19-03-2020 03:19:18 8.6 C 39 %
3333 19-03-2020 03:29:18 8.5 C 39 %
3334 19-03-2020 03:39:17 8.5 C 39 %
3335 19-03-2020 03:49:18 8.4 C 39 %
3336 19-03-2020 03:59:18 8.4 C 40 %
3337 19-03-2020 04:09:18 8.4 C 40 %
3338 19-03-2020 04:19:17 8.5 C 40 %
3339 19-03-2020 04:29:17 8.5 C 39 %
3340 19-03-2020 04:39:17 8.5 C 39 %
3341 19-03-2020 04:49:18 8.5 C 39 %
3342 19-03-2020 04:59:18 8.5 C 39 %
3343 19-03-2020 05:09:18 8.6 C 39 %
3344 19-03-2020 05:19:18 8.9 C 38 %
3345 19-03-2020 05:29:18 8.7 C 39 %
3346 19-03-2020 05:39:18 8.6 C 39 %
3347 19-03-2020 05:49:17 8.5 C 39 %
3348 19-03-2020 05:59:18 8.4 C 39 %
3349 19-03-2020 06:09:18 8.4 C 39 %
3350 19-03-2020 06:19:17 8.3 C 40 %
Sensor: Nr:Datum:Temp:Feuchte:
Aussen-T/F 3351 19-03-2020 06:29:17 8.2 C 39 %
3352 19-03-2020 06:39:17 8.1 C 40 %
3353 19-03-2020 06:49:17 8.1 C 40 %
3354 19-03-2020 06:59:17 8.2 C 40 %
3355 19-03-2020 07:09:17 8.2 C 40 %
3356 19-03-2020 07:19:17 8.5 C 40 %
3357 19-03-2020 07:29:17 8.7 C 39 %
3358 19-03-2020 07:39:18 8.9 C 39 %
3359 19-03-2020 07:49:18 9.1 C 38 %
3360 19-03-2020 07:59:18 9.4 C 38 %
3361 19-03-2020 08:09:18 9.7 C 38 %
3362 19-03-2020 08:19:17 9.9 C 37 %
3363 19-03-2020 08:29:17 9.9 C 37 %
3364 19-03-2020 08:39:17 10.5 C 36 %
3365 19-03-2020 08:49:18 10.4 C 36 %
3366 19-03-2020 08:59:18 10.2 C 36 %
3367 19-03-2020 09:09:17 11.2 C 35 %
3368 19-03-2020 09:19:17 11.7 C 35 %
3369 19-03-2020 09:29:17 11.5 C 35 %
3370 19-03-2020 09:39:18 11.8 C 35 %
3371 19-03-2020 09:49:17 11.6 C 35 %
3372 19-03-2020 09:59:17 12.4 C 33 %
3373 19-03-2020 10:09:18 12.3 C 32 %
3374 19-03-2020 10:19:18 13.1 C 31 %
3375 19-03-2020 10:29:18 13.5 C 30 %
Sensor: Nr:Datum:Temp:Feuchte:
Aussen-T/F 3376 19-03-2020 10:39:17 13.9 C 31 %
3377 19-03-2020 10:49:17 14.2 C 30 %
3378 19-03-2020 10:59:17 15.4 C 29 %
3379 19-03-2020 11:09:17 15.5 C 29 %
3380 19-03-2020 11:19:17 16.4 C 26 %
3381 19-03-2020 11:29:17 17.7 C 26 %
3382 19-03-2020 11:39:17 18.5 C 24 %
3383 19-03-2020 11:49:17 15.8 C 26 %
3384 19-03-2020 11:59:17 15 C 28 %
3385 19-03-2020 12:09:17 15.2 C 28 %
3386 19-03-2020 12:19:17 15.5 C 28 %
3387 19-03-2020 12:29:17 16.8 C 26 %
3388 19-03-2020 12:39:18 18.1 C 22 %
3389 19-03-2020 12:49:17 18.6 C 20 %
3390 19-03-2020 12:59:17 17.9 C 20 %
3391 19-03-2020 13:09:18 20.4 C 20 %
3392 19-03-2020 13:19:18 25.8 C 20 %
3393 19-03-2020 13:29:18 25.6 C 20 %
3394 19-03-2020 13:39:18 19.7 C 20 %
3395 19-03-2020 13:49:17 18.8 C 20 %
3396 19-03-2020 13:59:17 18.2 C 20 %
3397 19-03-2020 14:09:17 18.7 C 20 %
3398 19-03-2020 14:19:17 18.9 C 20 %
3399 19-03-2020 14:29:17 18.8 C 20 %
3400 19-03-2020 14:39:17 18.9 C 20 %
Sensor: Nr:Datum:Temp:Feuchte:
Aussen-T/F 3401 19-03-2020 14:49:17 19.3 C 20 %
3402 19-03-2020 14:59:17 19.1 C 20 %
3403 19-03-2020 15:09:18 18.5 C 20 %
3404 19-03-2020 15:19:18 19.1 C 20 %
3405 19-03-2020 15:29:18 19.3 C 20 %
3406 19-03-2020 15:39:18 19.8 C 20 %
3407 19-03-2020 15:49:17 21.8 C 20 %
3408 19-03-2020 15:59:18 19.5 C 20 %
3409 19-03-2020 16:09:18 19.1 C 20 %
3410 19-03-2020 16:20:17 19.1 C 20 %
3411 19-03-2020 16:29:17 19.1 C 20 %
3412 19-03-2020 16:39:17 19.1 C 20 %
3413 19-03-2020 16:49:17 19.1 C 20 %
3414 19-03-2020 16:59:17 18.4 C 20 %
3415 19-03-2020 17:09:18 17.6 C 20 %
3416 19-03-2020 17:19:18 17.3 C 20 %
3417 19-03-2020 17:29:18 17 C 20 %
3418 19-03-2020 17:39:18 16.8 C 20 %
3419 19-03-2020 17:49:18 16.9 C 20 %
3420 19-03-2020 17:59:18 16.7 C 20 %
3421 19-03-2020 18:09:18 16.3 C 20 %
3422 19-03-2020 18:20:17 15.7 C 23 %
3423 19-03-2020 18:30:17 13.9 C 29 %
3424 19-03-2020 18:40:17 13.5 C 30 %
3425 19-03-2020 18:50:17 12.8 C 31 %
Sensor: Nr:Datum:Temp:Feuchte:
Aussen-T/F 3426 19-03-2020 18:59:18 12.7 C 31 %
3427 19-03-2020 19:09:18 12.3 C 31 %
3428 19-03-2020 19:20:17 12.2 C 31 %
3429 19-03-2020 19:30:17 11.9 C 32 %
3430 19-03-2020 19:40:17 11.7 C 32 %
3431 19-03-2020 19:50:17 11.7 C 33 %
3432 19-03-2020 19:59:17 11.7 C 33 %
3433 19-03-2020 20:09:17 11.7 C 33 %
3434 19-03-2020 20:29:17 11.5 C 34 %
3435 19-03-2020 20:29:17 11.6 C 34 %
3436 19-03-2020 20:39:17 12 C 33 %
3437 19-03-2020 20:49:17 11.8 C 34 %
3438 19-03-2020 20:59:17 11.5 C 35 %
3439 19-03-2020 21:09:18 12 C 33 %
3440 19-03-2020 21:20:17 11.4 C 35 %
3441 19-03-2020 21:30:17 11.3 C 35 %
3442 19-03-2020 21:40:17 10.3 C 36 %
3443 19-03-2020 21:50:17 10.7 C 36 %
3444 19-03-2020 21:59:18 10.6 C 36 %
3445 19-03-2020 22:09:18 10.1 C 37 %
3446 19-03-2020 22:19:18 9.7 C 38 %
3447 19-03-2020 22:29:18 9.8 C 38 %
3448 19-03-2020 22:39:18 9.5 C 39 %
3449 19-03-2020 22:49:18 9.4 C 39 %
3450 19-03-2020 22:59:18 9.5 C 38 %
Sensor: Nr:Datum:Temp:Feuchte:
Aussen-T/F 3451 19-03-2020 23:09:18 9.5 C 38 %
3452 19-03-2020 23:20:17 9.4 C 39 %
3453 19-03-2020 23:30:17 9.2 C 39 %
3454 19-03-2020 23:40:17 9.6 C 38 %
3455 19-03-2020 23:50:17 9.1 C 39 %
3456 19-03-2020 23:59:18 8.7 C 40 %
3457 20-03-2020 00:09:18 8.6 C 40 %
3458 20-03-2020 00:19:18 9.3 C 39 %
3459 20-03-2020 00:29:18 9.1 C 39 %
3460 20-03-2020 00:39:18 9 C 39 %
3461 20-03-2020 00:59:17 8.8 C 40 %
3462 20-03-2020 01:00:18 8.8 C 40 %
3463 20-03-2020 01:10:18 8.7 C 40 %
3464 20-03-2020 01:20:17 8.7 C 40 %
3465 20-03-2020 01:30:18 8.6 C 40 %
3466 20-03-2020 01:40:18 8.4 C 40 %
3467 20-03-2020 01:50:17 8.5 C 40 %
3468 20-03-2020 02:00:18 8.3 C 40 %
3469 20-03-2020 02:10:18 7.9 C 40 %
3470 20-03-2020 02:20:17 7.6 C 41 %
3471 20-03-2020 02:30:17 7.4 C 41 %
3472 20-03-2020 02:40:17 7.4 C 41 %
3473 20-03-2020 02:50:17 7.1 C 41 %
3474 20-03-2020 03:00:17 7.1 C 42 %
3475 20-03-2020 03:10:17 7.1 C 42 %
Sensor: Nr:Datum:Temp:Feuchte:
Aussen-T/F 3476 20-03-2020 03:20:17 7.1 C 42 %
3477 20-03-2020 03:30:18 7.2 C 42 %
3478 20-03-2020 03:40:18 7.3 C 42 %
3479 20-03-2020 03:50:17 7.5 C 42 %
3480 20-03-2020 04:00:18 7.5 C 42 %
3481 20-03-2020 04:10:18 7.7 C 42 %
3482 20-03-2020 04:20:18 7.6 C 41 %
3483 20-03-2020 04:30:18 7.4 C 42 %
3484 20-03-2020 04:40:18 7.2 C 42 %
3485 20-03-2020 04:50:17 7 C 42 %
3486 20-03-2020 05:00:18 6.9 C 43 %
3487 20-03-2020 05:10:18 6.8 C 43 %
3488 20-03-2020 05:20:17 6.5 C 43 %
3489 20-03-2020 05:30:17 6.2 C 43 %
3490 20-03-2020 05:40:17 5.9 C 44 %
3491 20-03-2020 05:50:17 5.6 C 44 %
3492 20-03-2020 06:00:17 5.4 C 45 %
3493 20-03-2020 06:10:17 5.2 C 45 %
3494 20-03-2020 06:20:17 5 C 45 %
3495 20-03-2020 06:30:17 5.1 C 46 %
3496 20-03-2020 06:40:17 5 C 46 %
3497 20-03-2020 06:50:17 5 C 46 %
3498 20-03-2020 07:00:17 5.1 C 46 %
3499 20-03-2020 07:10:17 5.3 C 46 %
3500 20-03-2020 07:20:17 5.5 C 46 %
Sensor: Nr:Datum:Temp:Feuchte:
Aussen-T/F 3501 20-03-2020 07:30:17 5.6 C 46 %
3502 20-03-2020 07:40:17 5.7 C 46 %
3503 20-03-2020 07:50:18 5.8 C 46 %
3504 20-03-2020 08:00:17 6.3 C 46 %
3505 20-03-2020 08:10:17 6.9 C 45 %
3506 20-03-2020 08:20:17 7.2 C 43 %
3507 20-03-2020 08:30:17 7.1 C 43 %
3508 20-03-2020 08:40:17 7.1 C 43 %
3509 20-03-2020 08:50:17 7.3 C 43 %
3510 20-03-2020 09:00:17 8 C 43 %
3511 20-03-2020 09:10:17 8.2 C 42 %
3512 20-03-2020 09:20:17 9.6 C 42 %
3513 20-03-2020 09:30:17 10 C 40 %
3514 20-03-2020 09:40:17 10.2 C 40 %
3515 20-03-2020 09:50:17 10.5 C 39 %
3516 20-03-2020 10:00:18 10.8 C 39 %
3517 20-03-2020 10:10:18 11.2 C 38 %
3518 20-03-2020 10:20:18 11.1 C 37 %
3519 20-03-2020 10:30:18 11 C 37 %
3520 20-03-2020 10:40:18 11.5 C 37 %
3521 20-03-2020 10:50:18 12.6 C 36 %
3522 20-03-2020 11:00:17 13.1 C 35 %
3523 20-03-2020 11:10:18 13.1 C 35 %
3524 20-03-2020 11:20:18 14.2 C 33 %
3525 20-03-2020 11:30:18 14.5 C 32 %
Sensor: Nr:Datum:Temp:Feuchte:
Aussen-T/F 3526 20-03-2020 11:40:18 15.3 C 31 %
3527 20-03-2020 11:50:18 14.6 C 32 %
3528 20-03-2020 12:00:17 15.6 C 31 %
3529 20-03-2020 12:10:17 15.4 C 30 %
3530 20-03-2020 12:20:17 15.6 C 30 %
3531 20-03-2020 12:30:18 14.4 C 31 %
3532 20-03-2020 12:40:18 14.9 C 31 %
3533 20-03-2020 12:50:18 14.9 C 31 %
3534 20-03-2020 13:00:18 14.9 C 31 %
3535 20-03-2020 13:10:18 14.9 C 31 %
3536 20-03-2020 13:20:18 14.9 C 31 %
3537 20-03-2020 13:30:18 14.9 C 31 %
3538 20-03-2020 13:40:18 14.9 C 31 %
3539 20-03-2020 13:50:17 16.4 C 26 %
3540 20-03-2020 14:00:17 16.2 C 27 %
3541 20-03-2020 14:10:17 16.6 C 26 %
3542 20-03-2020 14:20:17 16.2 C 27 %
3543 20-03-2020 14:30:18 17.4 C 26 %
3544 20-03-2020 14:40:18 17.3 C 26 %
3545 20-03-2020 14:50:18 17.9 C 25 %
3546 20-03-2020 15:00:17 17.9 C 25 %
3547 20-03-2020 15:10:17 18.1 C 25 %
3548 20-03-2020 15:20:17 17 C 25 %
3549 20-03-2020 15:30:18 17.9 C 25 %
3550 20-03-2020 15:40:18 18.5 C 25 %
Sensor: Nr:Datum:Temp:Feuchte:
Aussen-T/F 3551 20-03-2020 15:50:18 17 C 25 %
3552 20-03-2020 16:00:17 16.2 C 26 %
3553 20-03-2020 16:10:17 16.1 C 26 %
3554 20-03-2020 16:20:17 15.5 C 26 %
3555 20-03-2020 16:30:18 15.8 C 26 %
3556 20-03-2020 16:40:18 15.3 C 26 %
3557 20-03-2020 16:50:18 17 C 25 %
3558 20-03-2020 17:00:18 16.1 C 26 %
3559 20-03-2020 17:10:18 15.2 C 27 %
3560 20-03-2020 17:20:18 14.3 C 28 %
3561 20-03-2020 17:30:18 13.9 C 30 %
3562 20-03-2020 17:40:18 12.8 C 31 %
3563 20-03-2020 17:50:17 12.5 C 31 %
3564 20-03-2020 18:00:17 12.4 C 32 %
3565 20-03-2020 18:10:17 11.9 C 33 %
3566 20-03-2020 18:20:17 11.8 C 34 %
3567 20-03-2020 18:30:17 11.6 C 34 %
3568 20-03-2020 18:40:17 11.6 C 34 %
3569 20-03-2020 18:50:18 11.5 C 34 %
3570 20-03-2020 19:00:17 11.5 C 34 %
3571 20-03-2020 19:10:17 11.3 C 34 %
3572 20-03-2020 19:20:17 11.1 C 34 %
3573 20-03-2020 19:30:17 11 C 35 %
3574 20-03-2020 19:40:17 10.7 C 35 %
3575 20-03-2020 19:50:17 10.6 C 35 %
Sensor: Nr:Datum:Temp:Feuchte:
Aussen-T/F 3576 20-03-2020 20:00:17 10.4 C 35 %
3577 20-03-2020 20:10:17 10.2 C 35 %
3578 20-03-2020 20:20:17 10.3 C 35 %
3579 20-03-2020 20:30:17 10.3 C 35 %
3580 20-03-2020 20:40:17 10.2 C 35 %
3581 20-03-2020 20:50:18 10.3 C 35 %
3582 20-03-2020 21:00:18 10.1 C 35 %
3583 20-03-2020 21:10:18 9.9 C 35 %
3584 20-03-2020 21:20:17 9.5 C 35 %
3585 20-03-2020 21:30:17 9.2 C 35 %
3586 20-03-2020 21:40:17 9.1 C 35 %
3587 20-03-2020 21:50:17 8.7 C 36 %
3588 20-03-2020 22:00:17 8.5 C 36 %
3589 20-03-2020 22:10:17 8.4 C 36 %
3590 20-03-2020 22:20:18 8.3 C 36 %
3591 20-03-2020 22:30:17 8.2 C 36 %
3592 20-03-2020 22:40:18 8.1 C 36 %
3593 20-03-2020 22:50:17 8.1 C 36 %
3594 20-03-2020 23:00:18 8 C 35 %
3595 20-03-2020 23:10:18 7.9 C 36 %
3596 20-03-2020 23:20:17 7.9 C 36 %
3597 20-03-2020 23:30:18 7.9 C 35 %
3598 20-03-2020 23:40:18 7.8 C 35 %
3599 20-03-2020 23:50:18 7.7 C 35 %
3600 21-03-2020 00:00:17 7.6 C 34 %
Sensor: Nr:Datum:Temp:Feuchte:
Aussen-T/F 3601 21-03-2020 00:10:17 7.6 C 34 %
3602 21-03-2020 00:20:17 7.4 C 34 %
3603 21-03-2020 00:30:17 7.3 C 34 %
3604 21-03-2020 00:40:17 7.3 C 34 %
3605 21-03-2020 00:50:17 7.3 C 34 %
3606 21-03-2020 01:00:17 7.2 C 33 %
3607 21-03-2020 01:10:17 7.1 C 33 %
3608 21-03-2020 01:20:17 6.8 C 35 %
3609 21-03-2020 01:30:18 6.5 C 35 %
3610 21-03-2020 01:40:18 6.2 C 36 %
3611 21-03-2020 01:50:17 5.9 C 38 %
3612 21-03-2020 02:00:18 5.6 C 39 %
3613 21-03-2020 02:10:18 5.3 C 40 %
3614 21-03-2020 02:20:17 5.1 C 41 %
3615 21-03-2020 02:30:18 4.9 C 43 %
3616 21-03-2020 02:40:18 4.9 C 43 %
3617 21-03-2020 02:50:18 4.6 C 43 %
3618 21-03-2020 03:00:17 4.5 C 43 %
3619 21-03-2020 03:10:17 4.4 C 44 %
3620 21-03-2020 03:20:17 4.5 C 45 %
3621 21-03-2020 03:30:18 4.5 C 45 %
3622 21-03-2020 03:40:18 4.4 C 45 %
3623 21-03-2020 03:50:17 4.4 C 45 %
3624 21-03-2020 04:00:18 4.3 C 45 %
3625 21-03-2020 04:10:18 4.2 C 45 %
Sensor: Nr:Datum:Temp:Feuchte:
Aussen-T/F 3626 21-03-2020 04:20:17 4.1 C 45 %
3627 21-03-2020 04:30:18 4.1 C 45 %
3628 21-03-2020 04:40:18 4 C 45 %
3629 21-03-2020 04:50:18 3.9 C 46 %
3630 21-03-2020 05:00:18 3.9 C 46 %
3631 21-03-2020 05:10:18 4 C 46 %
3632 21-03-2020 05:20:18 3.9 C 47 %
3633 21-03-2020 05:30:18 3.9 C 47 %
3634 21-03-2020 05:40:18 3.9 C 47 %
3635 21-03-2020 05:50:17 4 C 46 %
3636 21-03-2020 06:00:18 4 C 47 %
3637 21-03-2020 06:10:18 3.9 C 47 %
3638 21-03-2020 06:20:17 4 C 47 %
3639 21-03-2020 06:30:18 4 C 47 %
3640 21-03-2020 06:40:18 4 C 47 %
3641 21-03-2020 06:50:17 4 C 47 %
3642 21-03-2020 07:00:17 4.1 C 47 %
3643 21-03-2020 07:10:18 4.1 C 47 %
3644 21-03-2020 07:20:18 4.1 C 47 %
3645 21-03-2020 07:30:18 4.2 C 47 %
3646 21-03-2020 07:40:18 4.3 C 47 %
3647 21-03-2020 07:50:17 4.3 C 47 %
3648 21-03-2020 08:00:18 4.4 C 47 %
3649 21-03-2020 08:10:18 4.5 C 47 %
3650 21-03-2020 08:20:17 4.5 C 46 %
Sensor: Nr:Datum:Temp:Feuchte:
Aussen-T/F 3651 21-03-2020 08:30:17 4.6 C 46 %
3652 21-03-2020 08:40:17 4.7 C 46 %
3653 21-03-2020 08:50:18 4.8 C 46 %
3654 21-03-2020 09:00:18 4.7 C 46 %
3655 21-03-2020 09:10:18 4.6 C 45 %
3656 21-03-2020 09:20:18 5.2 C 43 %
3657 21-03-2020 09:30:18 5.6 C 42 %
3658 21-03-2020 09:40:18 5.8 C 41 %
3659 21-03-2020 09:50:17 6 C 41 %
3660 21-03-2020 10:00:17 6.2 C 41 %
3661 21-03-2020 10:10:18 6.4 C 39 %
3662 21-03-2020 10:20:18 6.5 C 40 %
3663 21-03-2020 10:30:18 6.7 C 39 %
3664 21-03-2020 10:40:18 6.7 C 38 %
3665 21-03-2020 10:50:17 6.4 C 39 %
3666 21-03-2020 11:00:17 6.5 C 37 %
3667 21-03-2020 11:10:18 7.1 C 36 %
3668 21-03-2020 11:20:18 7.3 C 36 %
3669 21-03-2020 11:30:18 8.1 C 34 %
3670 21-03-2020 11:40:18 8 C 34 %
3671 21-03-2020 11:50:18 8.3 C 32 %
3672 21-03-2020 12:00:18 7.8 C 32 %
3673 21-03-2020 12:10:18 7.6 C 33 %
3674 21-03-2020 12:20:17 7.9 C 31 %
3675 21-03-2020 12:30:17 8.7 C 32 %
Sensor: Nr:Datum:Temp:Feuchte:
Aussen-T/F 3676 21-03-2020 12:40:17 8.2 C 30 %
3677 21-03-2020 12:50:17 7.8 C 31 %
3678 21-03-2020 13:00:17 7.9 C 30 %
3679 21-03-2020 13:10:17 8.7 C 30 %
3680 21-03-2020 13:20:18 8.9 C 28 %
3681 21-03-2020 13:30:18 8.5 C 28 %
3682 21-03-2020 13:40:18 8.2 C 27 %
3683 21-03-2020 13:50:17 8.4 C 27 %
3684 21-03-2020 14:00:18 8.6 C 27 %
3685 21-03-2020 14:10:18 9.1 C 26 %
3686 21-03-2020 14:20:18 8.7 C 27 %
3687 21-03-2020 14:30:18 9.1 C 25 %
3688 21-03-2020 14:40:18 11.1 C 24 %
3689 21-03-2020 14:50:17 9.8 C 23 %
3690 21-03-2020 15:00:18 11 C 20 %
3691 21-03-2020 15:10:18 10.1 C 20 %
3692 21-03-2020 15:20:17 11.2 C 20 %
3693 21-03-2020 15:30:17 11.7 C 20 %
3694 21-03-2020 15:40:17 9.4 C 20 %
3695 21-03-2020 15:50:17 8.6 C 20 %
3696 21-03-2020 16:00:18 9.4 C 20 %
3697 21-03-2020 16:10:18 9.5 C 20 %
3698 21-03-2020 16:20:17 12.1 C 20 %
3699 21-03-2020 16:30:17 12 C 20 %
3700 21-03-2020 16:40:17 13.3 C 20 %
Sensor: Nr:Datum:Temp:Feuchte:
Aussen-T/F 3701 21-03-2020 16:50:17 10.9 C 20 %
3702 21-03-2020 17:00:17 9.2 C 20 %
3703 21-03-2020 17:10:17 8.9 C 20 %
3704 21-03-2020 17:20:17 8.3 C 20 %
3705 21-03-2020 17:30:18 7.8 C 20 %
3706 21-03-2020 17:40:18 7.8 C 20 %
3707 21-03-2020 17:50:17 7.5 C 20 %
3708 21-03-2020 18:00:17 7 C 20 %
3709 21-03-2020 18:10:17 6.9 C 20 %
3710 21-03-2020 18:20:17 6.6 C 21 %
3711 21-03-2020 18:30:17 6.4 C 23 %
3712 21-03-2020 18:40:17 5.9 C 25 %
3713 21-03-2020 18:50:17 5.5 C 27 %
3714 21-03-2020 19:00:17 5.5 C 26 %
3715 21-03-2020 19:10:17 5.1 C 28 %
3716 21-03-2020 19:20:17 4.7 C 30 %
3717 21-03-2020 19:30:18 4.4 C 31 %
3718 21-03-2020 19:40:18 4.5 C 30 %
3719 21-03-2020 19:50:17 4.4 C 29 %
3720 21-03-2020 20:00:18 4.1 C 30 %
3721 21-03-2020 20:10:18 3.7 C 31 %
3722 21-03-2020 20:20:18 3.2 C 33 %
3723 21-03-2020 20:30:18 3.7 C 32 %
3724 21-03-2020 20:40:18 3.9 C 30 %
3725 21-03-2020 20:50:17 3.6 C 31 %
Sensor: Nr:Datum:Temp:Feuchte:
Aussen-T/F 3726 21-03-2020 21:00:18 3.3 C 32 %
3727 21-03-2020 21:10:18 3 C 32 %
3728 21-03-2020 21:20:18 3.4 C 32 %
3729 21-03-2020 21:30:18 3.1 C 31 %
3730 21-03-2020 21:40:18 2.9 C 32 %
3731 21-03-2020 21:50:17 2.6 C 33 %
3732 21-03-2020 22:00:17 1.9 C 36 %
3733 21-03-2020 22:10:17 2.3 C 34 %
3734 21-03-2020 22:20:17 3 C 32 %
3735 21-03-2020 22:30:18 2.7 C 32 %
3736 21-03-2020 22:40:18 2.3 C 33 %
3737 21-03-2020 22:50:18 2.7 C 32 %
3738 21-03-2020 23:00:18 2 C 34 %
3739 21-03-2020 23:10:18 2.2 C 33 %
3740 21-03-2020 23:20:18 1.6 C 35 %
3741 21-03-2020 23:30:18 1.7 C 35 %
3742 21-03-2020 23:40:18 1.8 C 35 %
3743 21-03-2020 23:50:17 1.7 C 35 %
3744 22-03-2020 00:00:18 1.4 C 35 %
3745 22-03-2020 00:10:18 1.5 C 35 %
3746 22-03-2020 00:20:17 0.9 C 37 %
3747 22-03-2020 00:30:17 0.7 C 38 %
3748 22-03-2020 00:40:17 1.2 C 36 %
3749 22-03-2020 00:50:17 0.9 C 37 %
3750 22-03-2020 01:00:18 1.5 C 35 %
Sensor: Nr:Datum:Temp:Feuchte:
Aussen-T/F 3751 22-03-2020 01:10:18 1.5 C 35 %
3752 22-03-2020 01:20:18 1.1 C 35 %
3753 22-03-2020 01:30:18 1.1 C 35 %
3754 22-03-2020 01:40:18 0.9 C 36 %
3755 22-03-2020 01:50:18 1 C 35 %
3756 22-03-2020 02:00:18 1 C 35 %
3757 22-03-2020 02:10:18 0.1 C 38 %
3758 22-03-2020 02:20:17 0.3 C 38 %
3759 22-03-2020 02:30:18 0.5 C 37 %
3760 22-03-2020 02:40:18 0.5 C 37 %
3761 22-03-2020 02:50:18 0.4 C 37 %
3762 22-03-2020 03:00:18 0.2 C 37 %
3763 22-03-2020 03:10:18 0.7 C 37 %
3764 22-03-2020 03:20:18 -0.4 C 38 %
3765 22-03-2020 03:30:18 -0.1 C 38 %
3766 22-03-2020 03:40:18 -0.4 C 39 %
3767 22-03-2020 03:50:17 -0.3 C 39 %
3768 22-03-2020 04:00:17 -0.2 C 38 %
3769 22-03-2020 04:10:17 0 C 37 %
3770 22-03-2020 04:20:17 -0.4 C 38 %
3771 22-03-2020 04:30:17 0.3 C 37 %
3772 22-03-2020 04:40:17 0.1 C 37 %
3773 22-03-2020 04:50:17 -0.2 C 38 %
3774 22-03-2020 05:00:18 0.1 C 37 %
3775 22-03-2020 05:10:18 -0.3 C 37 %
Sensor: Nr:Datum:Temp:Feuchte:
Aussen-T/F 3776 22-03-2020 05:20:17 -0.4 C 37 %
3777 22-03-2020 05:30:18 -0.5 C 38 %
3778 22-03-2020 05:40:18 -0.7 C 38 %
3779 22-03-2020 05:50:17 -1 C 39 %
3780 22-03-2020 06:00:17 -1.1 C 39 %
3781 22-03-2020 06:10:17 -0.8 C 39 %
3782 22-03-2020 06:20:17 0.1 C 37 %
3783 22-03-2020 06:30:17 -0.3 C 37 %
3784 22-03-2020 06:40:17 -0.4 C 37 %
3785 22-03-2020 06:50:18 0 C 36 %
3786 22-03-2020 07:00:18 -0.3 C 37 %
3787 22-03-2020 07:10:18 -0.2 C 37 %
3788 22-03-2020 07:20:18 -0.4 C 37 %
3789 22-03-2020 07:30:18 -0.1 C 36 %
3790 22-03-2020 07:40:18 -0.2 C 37 %
3791 22-03-2020 07:50:17 -0.1 C 36 %
3792 22-03-2020 08:00:18 -0.1 C 36 %
3793 22-03-2020 08:10:18 0.3 C 36 %
3794 22-03-2020 08:20:18 0.3 C 35 %
3795 22-03-2020 08:30:18 0.5 C 35 %
3796 22-03-2020 08:40:18 0.8 C 35 %
3797 22-03-2020 08:50:18 0.4 C 35 %
3798 22-03-2020 09:00:18 0.8 C 35 %
3799 22-03-2020 09:10:18 1.2 C 32 %
3800 22-03-2020 09:20:18 1.6 C 32 %
Sensor: Nr:Datum:Temp:Feuchte:
Aussen-T/F 3801 22-03-2020 09:30:18 2.2 C 30 %
3802 22-03-2020 09:40:18 2.5 C 27 %
3803 22-03-2020 09:50:17 2.8 C 26 %
3804 22-03-2020 10:00:18 3.3 C 25 %
3805 22-03-2020 10:10:18 3.6 C 25 %
3806 22-03-2020 10:20:18 3.9 C 20 %
3807 22-03-2020 10:30:18 4.4 C 20 %
3808 22-03-2020 10:40:18 4.6 C 20 %
3809 22-03-2020 10:50:17 5.2 C 20 %
3810 22-03-2020 11:00:18 5.5 C 20 %
3811 22-03-2020 11:10:18 6.3 C 20 %
3812 22-03-2020 11:20:17 6.5 C 20 %
3813 22-03-2020 11:30:18 6.7 C 20 %
3814 22-03-2020 11:40:18 6.7 C 20 %
3815 22-03-2020 11:50:17 6.5 C 20 %
3816 22-03-2020 12:00:18 7 C 20 %
3817 22-03-2020 12:10:18 7.4 C 20 %
3818 22-03-2020 12:20:18 7.3 C 20 %
3819 22-03-2020 12:30:17 6.9 C 20 %
3820 22-03-2020 12:40:17 8 C 20 %
3821 22-03-2020 12:50:18 8.5 C 20 %
3822 22-03-2020 13:00:18 10.1 C 20 %
3823 22-03-2020 13:10:18 11.1 C 20 %
3824 22-03-2020 13:20:17 11.9 C 20 %
3825 22-03-2020 13:30:18 11.6 C 20 %
Sensor: Nr:Datum:Temp:Feuchte:
Aussen-T/F 3826 22-03-2020 13:40:18 10.9 C 20 %
3827 22-03-2020 13:50:18 10.3 C 20 %
3828 22-03-2020 14:00:17 9.6 C 20 %
3829 22-03-2020 14:10:17 10.2 C 20 %
3830 22-03-2020 14:20:17 12.2 C 20 %
3831 22-03-2020 14:30:17 12.6 C 20 %
3832 22-03-2020 14:40:17 14.4 C 20 %
3833 22-03-2020 14:50:17 14.4 C 20 %
3834 22-03-2020 15:00:18 15 C 20 %
3835 22-03-2020 15:10:18 14.4 C 20 %
3836 22-03-2020 15:20:17 14.7 C 20 %
3837 22-03-2020 15:30:17 13.6 C 20 %
3838 22-03-2020 15:40:17 13.7 C 20 %
3839 22-03-2020 15:50:18 15.4 C 20 %
3840 22-03-2020 16:00:18 16.2 C 20 %
3841 22-03-2020 16:10:18 14.9 C 20 %
3842 22-03-2020 16:20:18 14.1 C 20 %
3843 22-03-2020 16:30:18 13.3 C 20 %
3844 22-03-2020 16:40:18 13.2 C 20 %
3845 22-03-2020 16:50:17 11.7 C 20 %
3846 22-03-2020 17:00:17 10.7 C 20 %
3847 22-03-2020 17:10:17 9.9 C 20 %
3848 22-03-2020 17:20:17 9.7 C 20 %
3849 22-03-2020 17:30:17 9.8 C 20 %
3850 22-03-2020 17:40:17 9.5 C 20 %
Sensor: Nr:Datum:Temp:Feuchte:
Aussen-T/F 3851 22-03-2020 17:50:17 8.9 C 20 %
3852 22-03-2020 18:00:18 8.6 C 20 %
3853 22-03-2020 18:10:18 8.4 C 20 %
3854 22-03-2020 18:20:17 7.9 C 20 %
3855 22-03-2020 18:30:17 7.5 C 20 %
3856 22-03-2020 18:40:17 7 C 20 %
3857 22-03-2020 18:50:17 6.5 C 20 %
3858 22-03-2020 19:00:17 5.6 C 20 %
3859 22-03-2020 19:10:17 4.9 C 21 %
3860 22-03-2020 19:20:17 5.2 C 20 %
3861 22-03-2020 19:30:17 4.3 C 26 %
3862 22-03-2020 19:40:17 3.8 C 27 %
3863 22-03-2020 19:50:18 3.7 C 28 %
3864 22-03-2020 20:00:18 3.6 C 28 %
3865 22-03-2020 20:10:18 3.6 C 27 %
3866 22-03-2020 20:20:17 3.6 C 26 %
3867 22-03-2020 20:30:17 3.2 C 26 %
3868 22-03-2020 20:40:17 3 C 26 %
3869 22-03-2020 20:50:17 2.5 C 30 %
3870 22-03-2020 21:00:17 2.9 C 26 %
3871 22-03-2020 21:10:17 2.7 C 27 %
3872 22-03-2020 21:20:17 2.3 C 30 %
3873 22-03-2020 21:30:17 2.2 C 29 %
3874 22-03-2020 21:40:17 1.8 C 30 %
3875 22-03-2020 21:50:18 1.5 C 31 %
Sensor: Nr:Datum:Temp:Feuchte:
Aussen-T/F 3876 22-03-2020 22:00:18 2 C 30 %
3877 22-03-2020 22:10:18 2.5 C 26 %
3878 22-03-2020 22:20:17 1.8 C 30 %
3879 22-03-2020 22:30:17 1.5 C 29 %
3880 22-03-2020 22:40:17 1.3 C 31 %
3881 22-03-2020 22:50:17 1.4 C 30 %
3882 22-03-2020 23:00:17 0.7 C 33 %
3883 22-03-2020 23:10:17 1.1 C 30 %
3884 22-03-2020 23:20:17 0.8 C 32 %
3885 22-03-2020 23:30:18 0.3 C 33 %
3886 22-03-2020 23:40:18 0.3 C 34 %
3887 22-03-2020 23:50:18 0.6 C 33 %
3888 23-03-2020 00:00:18 0.4 C 34 %
3889 23-03-2020 00:10:18 0 C 33 %
3890 23-03-2020 00:20:17 -0.2 C 33 %
3891 23-03-2020 00:30:17 -0.5 C 35 %
3892 23-03-2020 00:40:17 -0.7 C 36 %
3893 23-03-2020 00:50:18 -1.1 C 36 %
3894 23-03-2020 01:00:17 -0.6 C 35 %
3895 23-03-2020 01:10:17 -0.7 C 36 %
3896 23-03-2020 01:20:17 -0.9 C 35 %
3897 23-03-2020 01:30:18 -0.8 C 35 %
3898 23-03-2020 01:40:18 -1.1 C 35 %
3899 23-03-2020 01:50:18 -0.8 C 35 %
3900 23-03-2020 02:00:18 -1.1 C 35 %
Sensor: Nr:Datum:Temp:Feuchte:
Aussen-T/F 3901 23-03-2020 02:10:18 -1.4 C 35 %
3902 23-03-2020 02:20:17 -1.2 C 35 %
3903 23-03-2020 02:30:17 -1.2 C 35 %
3904 23-03-2020 02:40:17 -1.2 C 35 %
3905 23-03-2020 02:50:17 -1.3 C 35 %
3906 23-03-2020 03:00:17 -1.6 C 35 %
3907 23-03-2020 03:10:18 -1.9 C 35 %
3908 23-03-2020 03:20:18 -1.6 C 35 %
3909 23-03-2020 03:30:18 -1.7 C 35 %
3910 23-03-2020 03:40:18 -1.9 C 35 %
3911 23-03-2020 03:50:18 -1.8 C 35 %
3912 23-03-2020 04:00:18 -1.8 C 35 %
3913 23-03-2020 04:10:18 -2.1 C 35 %
3914 23-03-2020 04:20:17 -1.9 C 35 %
3915 23-03-2020 04:30:17 -2 C 35 %
3916 23-03-2020 04:40:17 -2.1 C 35 %
3917 23-03-2020 04:50:17 -2.7 C 36 %
3918 23-03-2020 05:00:18 -2.5 C 36 %
3919 23-03-2020 05:10:18 -2.4 C 36 %
3920 23-03-2020 05:20:17 -2.3 C 36 %
3921 23-03-2020 05:30:18 -2.4 C 35 %
3922 23-03-2020 05:40:18 -2.7 C 36 %
3923 23-03-2020 05:50:17 -2.7 C 36 %
3924 23-03-2020 06:00:18 -2.6 C 36 %
3925 23-03-2020 06:10:18 -2.9 C 36 %
Sensor: Nr:Datum:Temp:Feuchte:
Aussen-T/F 3926 23-03-2020 06:20:17 -2.6 C 36 %
3927 23-03-2020 06:30:18 -2.8 C 36 %
3928 23-03-2020 06:40:18 -3.2 C 36 %
3929 23-03-2020 06:50:18 -3 C 36 %
3930 23-03-2020 07:00:18 -3 C 36 %
3931 23-03-2020 07:10:18 -3.1 C 36 %
3932 23-03-2020 07:20:18 -2.5 C 35 %
3933 23-03-2020 07:30:18 -2.7 C 36 %
3934 23-03-2020 07:40:18 -2.6 C 36 %
3935 23-03-2020 07:50:18 -1.9 C 34 %
3936 23-03-2020 08:00:18 -2 C 35 %
3937 23-03-2020 08:10:18 -1.4 C 32 %
3938 23-03-2020 08:20:17 -1.1 C 31 %
3939 23-03-2020 08:30:18 -0.2 C 27 %
3940 23-03-2020 08:40:18 -0.2 C 26 %
3941 23-03-2020 08:50:18 -0.3 C 25 %
3942 23-03-2020 09:00:18 0 C 23 %
3943 23-03-2020 09:10:18 0.2 C 23 %
3944 23-03-2020 09:20:18 0.5 C 20 %
3945 23-03-2020 09:30:17 0.7 C 20 %
3946 23-03-2020 09:40:17 1.5 C 20 %
3947 23-03-2020 09:50:18 1.8 C 20 %
3948 23-03-2020 10:00:18 2.4 C 20 %
3949 23-03-2020 10:10:18 2.7 C 20 %
3950 23-03-2020 10:20:18 3 C 20 %
Sensor: Nr:Datum:Temp:Feuchte:
Aussen-T/F 3951 23-03-2020 10:30:17 3.8 C 20 %
3952 23-03-2020 10:40:17 4.1 C 20 %
3953 23-03-2020 10:50:17 4.7 C 20 %
3954 23-03-2020 11:00:17 5.5 C 20 %
3955 23-03-2020 11:10:17 5.5 C 20 %
3956 23-03-2020 11:20:17 6 C 20 %
3957 23-03-2020 11:30:18 6.7 C 20 %
3958 23-03-2020 11:40:18 6.2 C 20 %
3959 23-03-2020 11:50:17 6.3 C 20 %
3960 23-03-2020 12:00:18 7 C 20 %
3961 23-03-2020 12:10:18 7.4 C 20 %
3962 23-03-2020 12:20:18 7.8 C 20 %
3963 23-03-2020 12:30:18 7.5 C 20 %
3964 23-03-2020 12:40:18 8.1 C 20 %
3965 23-03-2020 12:50:18 8.7 C 20 %
3966 23-03-2020 13:00:17 10.4 C 20 %
3967 23-03-2020 13:10:17 10.7 C 20 %
3968 23-03-2020 13:20:17 11.9 C 20 %
3969 23-03-2020 13:30:17 11.4 C 20 %
3970 23-03-2020 13:40:17 10 C 20 %
3971 23-03-2020 13:50:17 9.8 C 20 %
3972 23-03-2020 14:00:18 9.2 C 20 %
3973 23-03-2020 14:10:18 10.5 C 20 %
3974 23-03-2020 14:20:18 12.9 C 20 %
3975 23-03-2020 14:30:18 13 C 20 %
Sensor: Nr:Datum:Temp:Feuchte:
Aussen-T/F 3976 23-03-2020 14:40:18 14.2 C 20 %
3977 23-03-2020 14:50:18 14.3 C 20 %
3978 23-03-2020 15:00:18 14.3 C 20 %
3979 23-03-2020 15:10:18 14.4 C 20 %
3980 23-03-2020 15:20:17 14.7 C 20 %
3981 23-03-2020 15:30:17 13.5 C 20 %
3982 23-03-2020 15:40:17 14.4 C 20 %
3983 23-03-2020 15:50:17 14.1 C 20 %
3984 23-03-2020 16:00:17 13.8 C 20 %
3985 23-03-2020 16:10:17 14.7 C 20 %
3986 23-03-2020 16:20:17 15.3 C 20 %
3987 23-03-2020 16:30:18 14.7 C 20 %
3988 23-03-2020 16:40:18 14.8 C 20 %
3989 23-03-2020 16:50:17 11.4 C 20 %
3990 23-03-2020 17:00:18 10.1 C 20 %
3991 23-03-2020 17:10:18 9.7 C 20 %
3992 23-03-2020 17:20:18 9.4 C 20 %
3993 23-03-2020 17:30:18 9 C 20 %
3994 23-03-2020 17:40:18 9 C 20 %
3995 23-03-2020 17:50:17 8.6 C 20 %
3996 23-03-2020 18:00:18 8.3 C 20 %
3997 23-03-2020 18:10:18 7.6 C 20 %
3998 23-03-2020 18:20:17 7.4 C 20 %
3999 23-03-2020 18:30:18 7 C 20 %
4000 23-03-2020 18:40:18 5.3 C 20 %
Sensor: Nr:Datum:Temp:Feuchte:
Aussen-T/F 4001 23-03-2020 18:50:18 4.4 C 20 %
4002 23-03-2020 19:00:18 4.2 C 20 %
4003 23-03-2020 19:10:18 4.1 C 20 %
4004 23-03-2020 19:20:17 3.7 C 20 %
4005 23-03-2020 19:30:18 3.6 C 20 %
4006 23-03-2020 19:40:18 3.4 C 20 %
4007 23-03-2020 19:50:18 2.7 C 20 %
4008 23-03-2020 20:00:17 2.9 C 20 %
4009 23-03-2020 20:10:17 2.6 C 20 %
4010 23-03-2020 20:20:17 2.5 C 20 %
4011 23-03-2020 20:30:18 2.3 C 20 %
4012 23-03-2020 20:40:18 2.4 C 20 %
4013 23-03-2020 20:50:18 2.3 C 20 %
4014 23-03-2020 21:00:18 2.1 C 20 %
4015 23-03-2020 21:10:18 0.9 C 27 %
4016 23-03-2020 21:20:17 1 C 26 %
4017 23-03-2020 21:30:18 1.1 C 28 %
4018 23-03-2020 21:40:18 0.7 C 29 %
4019 23-03-2020 21:50:18 0.2 C 30 %
4020 23-03-2020 22:00:17 -0.4 C 31 %
4021 23-03-2020 22:10:18 -0.9 C 35 %
4022 23-03-2020 22:20:18 -0.2 C 34 %
4023 23-03-2020 22:30:18 -0.9 C 35 %
4024 23-03-2020 22:40:18 -0.9 C 35 %
4025 23-03-2020 22:50:18 -1.3 C 35 %
Sensor: Nr:Datum:Temp:Feuchte:
Aussen-T/F 4026 23-03-2020 23:00:18 -1.4 C 36 %
4027 23-03-2020 23:10:18 -1.6 C 36 %
4028 23-03-2020 23:20:17 -1.7 C 36 %
4029 23-03-2020 23:30:17 -1.7 C 37 %
4030 23-03-2020 23:40:17 -1.9 C 37 %
4031 23-03-2020 23:50:18 -1.8 C 37 %
4032 24-03-2020 00:00:18 -1.9 C 36 %
4033 24-03-2020 00:10:18 -2 C 36 %
4034 24-03-2020 00:20:17 -2.2 C 36 %
4035 24-03-2020 00:30:18 -2.4 C 37 %
4036 24-03-2020 00:40:18 -2.4 C 38 %
4037 24-03-2020 00:50:18 -2.5 C 38 %
4038 24-03-2020 01:00:18 -2.3 C 37 %
4039 24-03-2020 01:10:18 -2.6 C 37 %
4040 24-03-2020 01:20:18 -2.7 C 38 %
4041 24-03-2020 01:30:18 -2.7 C 38 %
4042 24-03-2020 01:40:18 -3 C 38 %
4043 24-03-2020 01:50:18 -2.5 C 37 %
4044 24-03-2020 02:00:18 -2.6 C 38 %
4045 24-03-2020 02:10:18 -2.8 C 38 %
4046 24-03-2020 02:20:17 -3.1 C 38 %
4047 24-03-2020 02:30:17 -3.2 C 38 %
4048 24-03-2020 02:40:17 -3.3 C 38 %
4049 24-03-2020 02:50:17 -3.2 C 38 %
4050 24-03-2020 03:00:17 -3.4 C 38 %
Sensor: Nr:Datum:Temp:Feuchte:
Aussen-T/F 4051 24-03-2020 03:10:17 -3.5 C 38 %
4052 24-03-2020 03:20:17 -3.6 C 39 %
4053 24-03-2020 03:30:17 -3.6 C 38 %
4054 24-03-2020 03:40:17 -3.7 C 38 %
4055 24-03-2020 03:50:17 -3.9 C 39 %
4056 24-03-2020 04:00:18 -3.7 C 39 %
4057 24-03-2020 04:10:18 -3.9 C 38 %
4058 24-03-2020 04:20:18 -4 C 38 %
4059 24-03-2020 04:30:18 -4 C 38 %
4060 24-03-2020 04:40:18 -4 C 38 %
4061 24-03-2020 04:50:17 -3.9 C 38 %
4062 24-03-2020 05:00:17 -4.2 C 38 %
4063 24-03-2020 05:10:17 -4.3 C 39 %
4064 24-03-2020 05:20:17 -4.2 C 38 %
4065 24-03-2020 05:30:18 -4.3 C 38 %
4066 24-03-2020 05:40:18 -4.4 C 38 %
4067 24-03-2020 05:50:18 -4.6 C 39 %
4068 24-03-2020 06:00:17 -4.7 C 39 %
4069 24-03-2020 06:10:18 -4.7 C 38 %
4070 24-03-2020 06:20:17 -4.7 C 39 %
4071 24-03-2020 06:30:18 -4.7 C 38 %
4072 24-03-2020 06:40:18 -4.6 C 39 %
4073 24-03-2020 06:50:18 -4.4 C 38 %
4074 24-03-2020 07:00:18 -4.5 C 39 %
4075 24-03-2020 07:10:18 -4.4 C 39 %
Sensor: Nr:Datum:Temp:Feuchte:
Aussen-T/F 4076 24-03-2020 07:20:18 -4.3 C 39 %
4077 24-03-2020 07:30:18 -4.2 C 39 %
4078 24-03-2020 07:40:18 -4 C 39 %
4079 24-03-2020 07:50:17 -3.8 C 39 %
4080 24-03-2020 08:00:17 -3.7 C 39 %
4081 24-03-2020 08:10:17 -3.5 C 38 %
4082 24-03-2020 08:20:17 -3.3 C 38 %
4083 24-03-2020 08:30:17 -2.5 C 38 %
4084 24-03-2020 08:40:17 -2.4 C 37 %
4085 24-03-2020 08:50:17 -2 C 37 %
4086 24-03-2020 09:00:17 -1.6 C 36 %
4087 24-03-2020 09:10:17 -0.7 C 35 %
4088 24-03-2020 09:20:17 -0.2 C 34 %
4089 24-03-2020 09:30:17 0.4 C 30 %
4090 24-03-2020 09:40:17 1 C 27 %
4091 24-03-2020 09:50:18 1.7 C 23 %
4092 24-03-2020 10:00:18 3 C 20 %
4093 24-03-2020 10:10:18 3.3 C 20 %
4094 24-03-2020 10:20:17 3.9 C 20 %
4095 24-03-2020 10:30:17 4.3 C 20 %
4096 24-03-2020 10:40:17 4.7 C 20 %
4097 24-03-2020 10:50:17 5.7 C 20 %
4098 24-03-2020 11:00:18 5.7 C 20 %
4099 24-03-2020 11:10:18 6.4 C 20 %
4100 24-03-2020 11:20:17 6.9 C 20 %
Sensor: Nr:Datum:Temp:Feuchte:
Aussen-T/F 4101 24-03-2020 11:30:17 7.9 C 20 %
4102 24-03-2020 11:40:17 7.2 C 20 %
4103 24-03-2020 11:50:18 6.8 C 20 %
4104 24-03-2020 12:00:18 7.8 C 20 %
4105 24-03-2020 12:10:18 8.6 C 20 %
4106 24-03-2020 12:20:17 8.2 C 20 %
4107 24-03-2020 12:30:17 8.2 C 20 %
4108 24-03-2020 12:40:17 9 C 20 %
4109 24-03-2020 12:50:17 9.2 C 20 %
4110 24-03-2020 13:00:18 10.4 C 20 %
4111 24-03-2020 13:10:18 11.7 C 20 %
4112 24-03-2020 13:20:17 12.5 C 20 %
4113 24-03-2020 13:30:17 13 C 20 %
4114 24-03-2020 13:40:17 11.9 C 20 %
4115 24-03-2020 13:50:18 11 C 20 %
4116 24-03-2020 14:00:17 10.8 C 20 %
4117 24-03-2020 14:10:17 11.3 C 20 %
4118 24-03-2020 14:20:17 13.7 C 20 %
4119 24-03-2020 14:30:17 12.2 C 20 %
4120 24-03-2020 14:40:17 14.4 C 20 %
4121 24-03-2020 14:50:18 13.4 C 20 %
4122 24-03-2020 15:00:18 13.5 C 20 %
4123 24-03-2020 15:10:18 14.1 C 20 %
4124 24-03-2020 15:20:18 15.3 C 20 %
4125 24-03-2020 15:30:18 14.1 C 20 %
Sensor: Nr:Datum:Temp:Feuchte:
Aussen-T/F 4126 24-03-2020 15:40:18 15.4 C 20 %
4127 24-03-2020 15:50:18 14.9 C 20 %
4128 24-03-2020 16:00:18 14.8 C 20 %
4129 24-03-2020 16:10:18 14.8 C 20 %
4130 24-03-2020 16:20:18 14.1 C 20 %
4131 24-03-2020 16:30:18 13.6 C 20 %
4132 24-03-2020 16:40:18 14.3 C 20 %
4133 24-03-2020 16:50:18 11.4 C 20 %
4134 24-03-2020 17:00:18 10.8 C 20 %
4135 24-03-2020 17:10:18 10.4 C 20 %
4136 24-03-2020 17:20:18 10.1 C 20 %
4137 24-03-2020 17:30:18 9.9 C 20 %
4138 24-03-2020 17:40:18 9.6 C 20 %
4139 24-03-2020 17:50:17 9.3 C 20 %
4140 24-03-2020 18:00:17 9 C 20 %
4141 24-03-2020 18:10:17 8.6 C 20 %
4142 24-03-2020 18:20:17 8.4 C 20 %
4143 24-03-2020 18:30:17 7.6 C 20 %
4144 24-03-2020 18:40:18 6.4 C 20 %
4145 24-03-2020 18:50:17 5.4 C 20 %
4146 24-03-2020 19:00:18 4.9 C 20 %
4147 24-03-2020 19:10:18 4.6 C 20 %
4148 24-03-2020 19:20:18 4.5 C 20 %
4149 24-03-2020 19:30:18 4.1 C 20 %
4150 24-03-2020 19:40:18 3.9 C 20 %
Sensor: Nr:Datum:Temp:Feuchte:
Aussen-T/F 4151 24-03-2020 19:50:17 3.6 C 20 %
4152 24-03-2020 20:00:18 3.6 C 20 %
4153 24-03-2020 20:10:18 3.5 C 20 %
4154 24-03-2020 20:20:17 3.4 C 20 %
4155 24-03-2020 20:30:18 3.4 C 20 %
4156 24-03-2020 20:40:18 2.9 C 20 %
4157 24-03-2020 20:50:18 2.7 C 20 %
4158 24-03-2020 21:00:18 2.7 C 20 %
4159 24-03-2020 21:10:18 2.6 C 20 %
4160 24-03-2020 21:20:17 2.3 C 20 %
4161 24-03-2020 21:30:17 2.3 C 20 %
4162 24-03-2020 21:40:17 2.2 C 20 %
4163 24-03-2020 21:50:17 2.2 C 20 %
4164 24-03-2020 22:00:18 1.7 C 20 %
4165 24-03-2020 22:10:18 1.6 C 20 %
4166 24-03-2020 22:20:17 1.6 C 20 %
4167 24-03-2020 22:30:18 0.3 C 25 %
4168 24-03-2020 22:40:18 -0.2 C 30 %
4169 24-03-2020 22:50:17 -0.7 C 30 %
4170 24-03-2020 23:00:18 -1.2 C 32 %
4171 24-03-2020 23:10:18 -1.1 C 31 %
4172 24-03-2020 23:20:17 -1.4 C 31 %
4173 24-03-2020 23:30:18 -1.7 C 30 %
4174 24-03-2020 23:40:18 -0.9 C 30 %
4175 24-03-2020 23:50:18 -1.2 C 30 %
Sensor: Nr:Datum:Temp:Feuchte:
G-T/H 1 25-02-2020 00:08:17 10.7 C 74 %
2 25-02-2020 00:17:17 10.7 C 74 %
3 25-02-2020 00:27:17 10.7 C 74 %
4 25-02-2020 00:37:18 10.7 C 74 %
5 25-02-2020 00:47:17 10.7 C 74 %
6 25-02-2020 00:57:17 10.7 C 74 %
7 25-02-2020 01:08:17 10.7 C 74 %
8 25-02-2020 01:18:17 10.7 C 74 %
9 25-02-2020 01:28:17 10.7 C 74 %
10 25-02-2020 01:38:17 10.7 C 74 %
11 25-02-2020 01:48:17 10.7 C 74 %
12 25-02-2020 01:58:17 10.8 C 74 %
13 25-02-2020 02:08:17 10.8 C 74 %
14 25-02-2020 02:18:17 10.8 C 74 %
15 25-02-2020 02:28:17 10.8 C 74 %
16 25-02-2020 02:38:17 10.8 C 74 %
17 25-02-2020 02:48:17 10.8 C 74 %
18 25-02-2020 02:58:17 10.8 C 74 %
19 25-02-2020 03:08:17 10.8 C 74 %
20 25-02-2020 03:18:17 10.8 C 74 %
21 25-02-2020 03:28:18 10.8 C 74 %
22 25-02-2020 03:38:18 10.8 C 74 %
23 25-02-2020 03:48:17 10.8 C 74 %
24 25-02-2020 03:58:18 10.8 C 74 %
25 25-02-2020 04:08:18 10.8 C 74 %
Sensor: Nr:Datum:Temp:Feuchte:
G-T/H 26 25-02-2020 04:18:18 10.8 C 74 %
27 25-02-2020 04:28:18 10.8 C 74 %
28 25-02-2020 04:38:18 10.8 C 74 %
29 25-02-2020 04:48:17 10.8 C 74 %
30 25-02-2020 04:58:17 10.8 C 74 %
31 25-02-2020 05:08:18 10.9 C 74 %
32 25-02-2020 05:18:17 10.8 C 74 %
33 25-02-2020 05:28:18 10.8 C 74 %
34 25-02-2020 05:38:18 10.8 C 74 %
35 25-02-2020 05:48:18 10.8 C 74 %
36 25-02-2020 05:58:18 10.8 C 74 %
37 25-02-2020 06:08:18 10.8 C 74 %
38 25-02-2020 06:18:17 10.8 C 74 %
39 25-02-2020 06:28:18 10.9 C 74 %
40 25-02-2020 06:38:18 10.8 C 74 %
41 25-02-2020 06:48:17 10.8 C 74 %
42 25-02-2020 06:58:17 10.8 C 74 %
43 25-02-2020 07:08:17 10.9 C 74 %
44 25-02-2020 07:18:17 10.9 C 74 %
45 25-02-2020 07:28:18 10.9 C 74 %
46 25-02-2020 07:38:18 10.8 C 74 %
47 25-02-2020 07:48:17 10.9 C 74 %
48 25-02-2020 07:58:17 10.9 C 74 %
49 25-02-2020 08:08:18 10.9 C 74 %
50 25-02-2020 08:18:17 10.9 C 74 %
Sensor: Nr:Datum:Temp:Feuchte:
G-T/H 51 25-02-2020 08:28:17 10.9 C 74 %
52 25-02-2020 08:38:17 10.9 C 74 %
53 25-02-2020 08:48:17 10.8 C 74 %
54 25-02-2020 08:58:17 10.9 C 74 %
55 25-02-2020 09:08:18 10.9 C 74 %
56 25-02-2020 09:18:17 10.9 C 74 %
57 25-02-2020 09:28:17 10.9 C 74 %
58 25-02-2020 09:38:18 10.9 C 74 %
59 25-02-2020 09:48:17 10.9 C 74 %
60 25-02-2020 09:58:17 10.9 C 74 %
61 25-02-2020 10:08:17 10.9 C 74 %
62 25-02-2020 10:18:17 10.9 C 74 %
63 25-02-2020 10:28:17 10.9 C 74 %
64 25-02-2020 10:38:18 10.9 C 74 %
65 25-02-2020 10:48:17 10.9 C 74 %
66 25-02-2020 10:58:17 10.9 C 74 %
67 25-02-2020 11:08:18 10.9 C 74 %
68 25-02-2020 11:18:17 10.9 C 74 %
69 25-02-2020 11:28:17 10.9 C 74 %
70 25-02-2020 11:38:17 10.9 C 74 %
71 25-02-2020 11:48:17 10.9 C 74 %
72 25-02-2020 11:58:18 10.9 C 74 %
73 25-02-2020 12:08:18 10.9 C 74 %
74 25-02-2020 12:18:18 10.9 C 74 %
75 25-02-2020 12:28:18 10.9 C 74 %
Sensor: Nr:Datum:Temp:Feuchte:
G-T/H 76 25-02-2020 12:38:18 10.9 C 74 %
77 25-02-2020 12:48:18 10.9 C 74 %
78 25-02-2020 12:58:18 10.9 C 74 %
79 25-02-2020 13:08:18 10.9 C 73 %
80 25-02-2020 13:18:17 10.9 C 73 %
81 25-02-2020 13:28:17 11 C 73 %
82 25-02-2020 13:38:17 11 C 73 %
83 25-02-2020 13:48:17 11 C 73 %
84 25-02-2020 13:58:17 11 C 73 %
85 25-02-2020 14:08:17 11 C 73 %
86 25-02-2020 14:18:17 11 C 73 %
87 25-02-2020 14:28:17 11 C 73 %
88 25-02-2020 14:38:18 11 C 73 %
89 25-02-2020 14:48:17 11 C 72 %
90 25-02-2020 14:58:17 11 C 72 %
91 25-02-2020 15:08:17 11 C 72 %
92 25-02-2020 15:18:17 11 C 72 %
93 25-02-2020 15:28:17 11 C 72 %
94 25-02-2020 15:38:17 11 C 72 %
95 25-02-2020 15:48:18 11 C 72 %
96 25-02-2020 15:58:18 11 C 72 %
97 25-02-2020 16:08:18 11 C 72 %
98 25-02-2020 16:18:18 11 C 72 %
99 25-02-2020 16:28:18 11 C 72 %
100 25-02-2020 16:38:18 11 C 72 %
Sensor: Nr:Datum:Temp:Feuchte:
G-T/H 101 25-02-2020 16:48:17 11 C 72 %
102 25-02-2020 16:58:18 11 C 71 %
103 25-02-2020 17:08:18 11 C 71 %
104 25-02-2020 17:18:17 11 C 71 %
105 25-02-2020 17:28:18 11 C 71 %
106 25-02-2020 17:38:18 11 C 71 %
107 25-02-2020 17:48:18 11 C 71 %
108 25-02-2020 17:58:18 11 C 71 %
109 25-02-2020 18:08:18 11 C 71 %
110 25-02-2020 18:18:18 11 C 71 %
111 25-02-2020 18:28:18 11 C 72 %
112 25-02-2020 18:38:18 11 C 72 %
113 25-02-2020 18:48:17 11 C 72 %
114 25-02-2020 18:58:17 11 C 72 %
115 25-02-2020 19:08:18 11 C 72 %
116 25-02-2020 19:18:18 11 C 72 %
117 25-02-2020 19:28:18 11 C 72 %
118 25-02-2020 19:38:18 11 C 72 %
119 25-02-2020 19:48:17 11 C 72 %
120 25-02-2020 19:58:17 11 C 72 %
121 25-02-2020 20:08:18 11 C 72 %
122 25-02-2020 20:18:17 11 C 72 %
123 25-02-2020 20:28:18 11 C 72 %
124 25-02-2020 20:38:18 11 C 72 %
125 25-02-2020 20:48:17 11 C 72 %
Sensor: Nr:Datum:Temp:Feuchte:
G-T/H 126 25-02-2020 20:58:17 11 C 72 %
127 25-02-2020 21:08:17 10.9 C 73 %
128 25-02-2020 21:18:17 11 C 72 %
129 25-02-2020 21:28:17 10.9 C 73 %
130 25-02-2020 21:38:17 10.9 C 73 %
131 25-02-2020 21:48:18 10.9 C 73 %
132 25-02-2020 21:58:18 10.9 C 73 %
133 25-02-2020 22:08:18 10.9 C 73 %
134 25-02-2020 22:18:17 10.9 C 72 %
135 25-02-2020 22:28:17 10.9 C 72 %
136 25-02-2020 22:38:17 10.8 C 71 %
137 25-02-2020 22:48:18 10.8 C 71 %
138 25-02-2020 22:58:18 10.8 C 71 %
139 25-02-2020 23:08:18 10.8 C 70 %
140 25-02-2020 23:18:18 10.8 C 70 %
141 25-02-2020 23:28:18 10.8 C 70 %
142 25-02-2020 23:38:18 10.8 C 70 %
143 25-02-2020 23:48:17 10.7 C 70 %
144 25-02-2020 23:58:17 10.7 C 70 %
145 26-02-2020 00:08:17 10.7 C 70 %
146 26-02-2020 00:18:17 10.7 C 69 %
147 26-02-2020 00:28:17 10.7 C 69 %
148 26-02-2020 00:38:18 10.7 C 69 %
149 26-02-2020 00:48:17 10.6 C 69 %
150 26-02-2020 00:58:17 10.6 C 69 %
Sensor: Nr:Datum:Temp:Feuchte:
G-T/H 151 26-02-2020 01:08:17 10.6 C 69 %
152 26-02-2020 01:18:17 10.6 C 69 %
153 26-02-2020 01:28:17 10.6 C 69 %
154 26-02-2020 01:38:17 10.6 C 69 %
155 26-02-2020 01:48:17 10.6 C 69 %
156 26-02-2020 01:58:17 10.5 C 69 %
157 26-02-2020 02:08:18 10.5 C 69 %
158 26-02-2020 02:18:18 10.5 C 69 %
159 26-02-2020 02:28:18 10.5 C 69 %
160 26-02-2020 02:38:17 10.5 C 68 %
161 26-02-2020 02:48:18 10.5 C 68 %
162 26-02-2020 02:58:18 10.4 C 68 %
163 26-02-2020 03:08:17 10.4 C 68 %
164 26-02-2020 03:18:17 10.4 C 68 %
165 26-02-2020 03:28:17 10.4 C 68 %
166 26-02-2020 03:38:18 10.4 C 68 %
167 26-02-2020 03:48:18 10.4 C 68 %
168 26-02-2020 03:58:18 10.4 C 67 %
169 26-02-2020 04:08:18 10.3 C 67 %
170 26-02-2020 04:18:18 10.3 C 67 %
171 26-02-2020 04:28:18 10.3 C 67 %
172 26-02-2020 04:38:18 10.3 C 67 %
173 26-02-2020 04:48:17 10.2 C 67 %
174 26-02-2020 04:58:18 10.3 C 67 %
175 26-02-2020 05:08:18 10.3 C 67 %
Sensor: Nr:Datum:Temp:Feuchte:
G-T/H 176 26-02-2020 05:18:18 10.2 C 67 %
177 26-02-2020 05:28:18 10.2 C 67 %
178 26-02-2020 05:38:18 10.2 C 67 %
179 26-02-2020 05:48:17 10.2 C 67 %
180 26-02-2020 05:58:18 10.1 C 66 %
181 26-02-2020 06:08:18 10.1 C 66 %
182 26-02-2020 06:18:18 10.1 C 66 %
183 26-02-2020 06:28:18 10.1 C 66 %
184 26-02-2020 06:38:18 10.1 C 66 %
185 26-02-2020 06:48:17 10.1 C 66 %
186 26-02-2020 06:58:17 10.1 C 66 %
187 26-02-2020 07:08:18 10.1 C 66 %
188 26-02-2020 07:18:18 10 C 66 %
189 26-02-2020 07:28:18 10 C 66 %
190 26-02-2020 07:38:17 10 C 66 %
191 26-02-2020 07:48:18 10 C 66 %
192 26-02-2020 07:58:18 10 C 66 %
193 26-02-2020 08:08:18 10 C 66 %
194 26-02-2020 08:18:17 10 C 67 %
195 26-02-2020 08:28:17 10 C 67 %
196 26-02-2020 08:38:18 10 C 67 %
197 26-02-2020 08:48:18 10 C 67 %
198 26-02-2020 08:58:18 10 C 67 %
199 26-02-2020 09:08:17 10 C 67 %
200 26-02-2020 09:18:17 10 C 67 %
Sensor: Nr:Datum:Temp:Feuchte:
G-T/H 201 26-02-2020 09:28:17 10 C 68 %
202 26-02-2020 09:38:18 10 C 68 %
203 26-02-2020 09:48:18 10 C 68 %
204 26-02-2020 09:58:18 9.9 C 69 %
205 26-02-2020 10:08:18 9.9 C 69 %
206 26-02-2020 10:18:17 9.9 C 69 %
207 26-02-2020 10:28:17 9.9 C 69 %
208 26-02-2020 10:38:17 9.9 C 69 %
209 26-02-2020 10:48:17 9.9 C 69 %
210 26-02-2020 10:58:17 9.9 C 69 %
211 26-02-2020 11:08:17 9.9 C 69 %
212 26-02-2020 11:18:17 9.9 C 69 %
213 26-02-2020 11:28:17 9.9 C 69 %
214 26-02-2020 11:38:18 9.9 C 70 %
215 26-02-2020 11:48:18 9.9 C 70 %
216 26-02-2020 11:58:18 9.9 C 70 %
217 26-02-2020 12:08:17 9.9 C 70 %
218 26-02-2020 12:18:17 9.9 C 70 %
219 26-02-2020 12:28:17 9.9 C 70 %
220 26-02-2020 12:38:17 9.9 C 70 %
221 26-02-2020 12:48:17 9.9 C 70 %
222 26-02-2020 12:58:17 9.8 C 70 %
223 26-02-2020 13:08:17 9.9 C 70 %
224 26-02-2020 13:18:18 9.9 C 70 %
225 26-02-2020 13:28:18 9.9 C 70 %
Sensor: Nr:Datum:Temp:Feuchte:
G-T/H 226 26-02-2020 13:38:17 9.9 C 70 %
227 26-02-2020 13:48:17 9.9 C 70 %
228 26-02-2020 13:58:17 9.9 C 70 %
229 26-02-2020 14:08:17 9.9 C 70 %
230 26-02-2020 14:18:17 9.9 C 70 %
231 26-02-2020 14:28:17 9.9 C 70 %
232 26-02-2020 14:38:17 9.9 C 70 %
233 26-02-2020 14:48:17 9.9 C 70 %
234 26-02-2020 14:58:17 9.9 C 70 %
235 26-02-2020 15:08:17 9.9 C 70 %
236 26-02-2020 15:18:17 9.9 C 70 %
237 26-02-2020 15:28:17 9.9 C 70 %
238 26-02-2020 15:38:17 9.9 C 70 %
239 26-02-2020 15:48:17 9.9 C 70 %
240 26-02-2020 15:58:17 9.9 C 70 %
241 26-02-2020 16:08:17 9.9 C 70 %
242 26-02-2020 16:18:17 9.9 C 70 %
243 26-02-2020 16:28:17 9.9 C 70 %
244 26-02-2020 16:38:17 9.9 C 70 %
245 26-02-2020 16:48:18 9.9 C 70 %
246 26-02-2020 16:58:18 9.9 C 70 %
247 26-02-2020 17:08:18 9.9 C 70 %
248 26-02-2020 17:18:18 9.9 C 70 %
249 26-02-2020 17:28:18 9.9 C 70 %
250 26-02-2020 17:38:17 9.9 C 70 %
Sensor: Nr:Datum:Temp:Feuchte:
G-T/H 251 26-02-2020 17:48:18 9.9 C 70 %
252 26-02-2020 17:58:18 9.9 C 70 %
253 26-02-2020 18:08:18 9.9 C 70 %
254 26-02-2020 18:18:18 9.9 C 70 %
255 26-02-2020 18:28:18 9.9 C 70 %
256 26-02-2020 18:38:18 9.9 C 70 %
257 26-02-2020 18:48:18 9.9 C 70 %
258 26-02-2020 18:58:18 9.8 C 70 %
259 26-02-2020 19:08:18 9.9 C 70 %
260 26-02-2020 19:18:17 9.9 C 70 %
261 26-02-2020 19:28:17 9.9 C 71 %
262 26-02-2020 19:38:17 9.8 C 70 %
263 26-02-2020 19:48:17 9.9 C 71 %
264 26-02-2020 19:58:17 9.9 C 71 %
265 26-02-2020 20:08:17 9.9 C 70 %
266 26-02-2020 20:18:17 9.8 C 71 %
267 26-02-2020 20:28:17 9.8 C 71 %
268 26-02-2020 20:38:17 9.8 C 70 %
269 26-02-2020 20:48:17 9.8 C 70 %
270 26-02-2020 20:58:17 9.8 C 70 %
271 26-02-2020 21:08:18 9.8 C 70 %
272 26-02-2020 21:18:18 9.8 C 70 %
273 26-02-2020 21:28:18 9.8 C 70 %
274 26-02-2020 21:38:18 9.8 C 70 %
275 26-02-2020 21:48:17 9.8 C 70 %
Sensor: Nr:Datum:Temp:Feuchte:
G-T/H 276 26-02-2020 21:58:17 9.8 C 70 %
277 26-02-2020 22:08:18 9.7 C 70 %
278 26-02-2020 22:18:18 9.7 C 70 %
279 26-02-2020 22:28:18 9.7 C 70 %
280 26-02-2020 22:38:18 9.7 C 70 %
281 26-02-2020 22:48:17 9.8 C 70 %
282 26-02-2020 22:58:17 9.7 C 70 %
283 26-02-2020 23:08:18 9.7 C 70 %
284 26-02-2020 23:18:18 9.7 C 70 %
285 26-02-2020 23:28:18 9.7 C 70 %
286 26-02-2020 23:38:17 9.7 C 70 %
287 26-02-2020 23:48:17 9.7 C 70 %
288 26-02-2020 23:58:17 9.7 C 70 %
289 27-02-2020 00:08:17 9.7 C 70 %
290 27-02-2020 00:18:17 9.6 C 70 %
291 27-02-2020 00:28:17 9.6 C 70 %
292 27-02-2020 00:38:18 9.6 C 70 %
293 27-02-2020 00:48:18 9.6 C 70 %
294 27-02-2020 00:58:18 9.6 C 70 %
295 27-02-2020 01:08:18 9.6 C 70 %
296 27-02-2020 01:18:18 9.6 C 70 %
297 27-02-2020 01:28:18 9.6 C 70 %
298 27-02-2020 01:38:18 9.6 C 70 %
299 27-02-2020 01:48:17 9.6 C 70 %
300 27-02-2020 01:58:17 9.6 C 70 %
Sensor: Nr:Datum:Temp:Feuchte:
G-T/H 301 27-02-2020 02:08:18 9.6 C 70 %
302 27-02-2020 02:18:17 9.6 C 70 %
303 27-02-2020 02:28:17 9.5 C 70 %
304 27-02-2020 02:38:17 9.5 C 70 %
305 27-02-2020 02:48:17 9.5 C 70 %
306 27-02-2020 02:58:17 9.5 C 70 %
307 27-02-2020 03:08:18 9.5 C 70 %
308 27-02-2020 03:18:17 9.5 C 70 %
309 27-02-2020 03:28:17 9.5 C 70 %
310 27-02-2020 03:38:17 9.5 C 70 %
311 27-02-2020 03:48:17 9.4 C 70 %
312 27-02-2020 03:58:17 9.4 C 70 %
313 27-02-2020 04:08:18 9.5 C 70 %
314 27-02-2020 04:18:18 9.4 C 70 %
315 27-02-2020 04:28:18 9.4 C 70 %
316 27-02-2020 04:38:18 9.4 C 70 %
317 27-02-2020 04:48:17 9.4 C 70 %
318 27-02-2020 04:58:17 9.4 C 70 %
319 27-02-2020 05:08:18 9.3 C 70 %
320 27-02-2020 05:18:17 9.3 C 70 %
321 27-02-2020 05:28:18 9.3 C 70 %
322 27-02-2020 05:38:17 9.3 C 70 %
323 27-02-2020 05:48:17 9.3 C 70 %
324 27-02-2020 05:58:17 9.3 C 70 %
325 27-02-2020 06:08:17 9.3 C 70 %
Sensor: Nr:Datum:Temp:Feuchte:
G-T/H 326 27-02-2020 06:18:17 9.3 C 70 %
327 27-02-2020 06:28:17 9.2 C 70 %
328 27-02-2020 06:38:18 9.2 C 70 %
329 27-02-2020 06:48:17 9.2 C 70 %
330 27-02-2020 06:58:17 9.2 C 70 %
331 27-02-2020 07:08:18 9.2 C 70 %
332 27-02-2020 07:18:18 9.2 C 70 %
333 27-02-2020 07:28:18 9.2 C 70 %
334 27-02-2020 07:38:18 9.2 C 70 %
335 27-02-2020 07:48:17 9.2 C 70 %
336 27-02-2020 07:58:17 9.2 C 70 %
337 27-02-2020 08:08:17 9.1 C 70 %
338 27-02-2020 08:18:17 9.1 C 70 %
339 27-02-2020 08:28:17 9.1 C 70 %
340 27-02-2020 08:38:17 9.1 C 70 %
341 27-02-2020 08:48:17 9.1 C 70 %
342 27-02-2020 08:58:17 9.1 C 70 %
343 27-02-2020 09:08:17 9.1 C 70 %
344 27-02-2020 09:18:17 9.1 C 70 %
345 27-02-2020 09:28:17 9.1 C 70 %
346 27-02-2020 09:38:17 9.1 C 70 %
347 27-02-2020 09:48:17 9.1 C 70 %
348 27-02-2020 09:58:17 9.1 C 70 %
349 27-02-2020 10:08:17 9.1 C 70 %
350 27-02-2020 10:18:17 9.1 C 70 %
Sensor: Nr:Datum:Temp:Feuchte:
G-T/H 351 27-02-2020 10:28:17 9 C 70 %
352 27-02-2020 10:38:17 9 C 70 %
353 27-02-2020 10:48:17 9 C 70 %
354 27-02-2020 10:58:17 9 C 70 %
355 27-02-2020 11:08:17 9 C 70 %
356 27-02-2020 11:18:17 9 C 70 %
357 27-02-2020 11:28:17 9 C 70 %
358 27-02-2020 11:38:17 9.1 C 70 %
359 27-02-2020 11:48:18 9 C 70 %
360 27-02-2020 11:58:18 9 C 70 %
361 27-02-2020 12:08:18 9 C 70 %
362 27-02-2020 12:18:18 9 C 70 %
363 27-02-2020 12:28:18 9 C 70 %
364 27-02-2020 12:38:18 9 C 70 %
365 27-02-2020 12:48:17 9 C 70 %
366 27-02-2020 12:58:17 9 C 71 %
367 27-02-2020 13:08:18 9 C 71 %
368 27-02-2020 13:18:18 9 C 71 %
369 27-02-2020 13:28:18 9 C 71 %
370 27-02-2020 13:38:17 9 C 71 %
371 27-02-2020 13:48:17 9 C 71 %
372 27-02-2020 13:58:17 9 C 71 %
373 27-02-2020 14:08:17 9 C 71 %
374 27-02-2020 14:18:17 9 C 71 %
375 27-02-2020 14:28:17 9 C 71 %
Sensor: Nr:Datum:Temp:Feuchte:
G-T/H 376 27-02-2020 14:38:18 9 C 71 %
377 27-02-2020 14:48:18 9 C 71 %
378 27-02-2020 14:58:18 9 C 71 %
379 27-02-2020 15:08:18 9 C 71 %
380 27-02-2020 15:18:18 9 C 71 %
381 27-02-2020 15:28:18 9 C 71 %
382 27-02-2020 15:38:18 9 C 71 %
383 27-02-2020 15:48:17 9 C 71 %
384 27-02-2020 15:58:17 9 C 71 %
385 27-02-2020 16:08:17 9 C 71 %
386 27-02-2020 16:18:17 9 C 71 %
387 27-02-2020 16:28:17 9 C 71 %
388 27-02-2020 16:38:18 9 C 70 %
389 27-02-2020 16:48:17 9 C 70 %
390 27-02-2020 16:58:17 9 C 70 %
391 27-02-2020 17:08:18 9 C 70 %
392 27-02-2020 17:18:18 8.9 C 71 %
393 27-02-2020 17:28:18 8.9 C 71 %
394 27-02-2020 17:38:17 8.9 C 71 %
395 27-02-2020 17:48:17 8.9 C 71 %
396 27-02-2020 17:58:17 8.9 C 71 %
397 27-02-2020 18:08:18 8.7 C 70 %
398 27-02-2020 18:18:17 8.6 C 69 %
399 27-02-2020 18:28:17 8.9 C 70 %
400 27-02-2020 18:38:17 9 C 70 %
Sensor: Nr:Datum:Temp:Feuchte:
G-T/H 401 27-02-2020 18:48:18 9.1 C 71 %
402 27-02-2020 18:58:18 9.2 C 72 %
403 27-02-2020 19:08:18 9.2 C 72 %
404 27-02-2020 19:18:18 9.2 C 73 %
405 27-02-2020 19:28:18 9.3 C 73 %
406 27-02-2020 19:38:18 9.3 C 73 %
407 27-02-2020 19:48:18 9.3 C 73 %
408 27-02-2020 19:58:18 9.3 C 74 %
409 27-02-2020 20:08:18 9.3 C 74 %
410 27-02-2020 20:18:18 9.4 C 74 %
411 27-02-2020 20:28:18 9.4 C 74 %
412 27-02-2020 20:38:17 9.4 C 74 %
413 27-02-2020 20:48:17 9.4 C 74 %
414 27-02-2020 20:58:17 9.3 C 74 %
415 27-02-2020 21:08:17 9.2 C 74 %
416 27-02-2020 21:18:17 9.3 C 74 %
417 27-02-2020 21:28:17 9.3 C 74 %
418 27-02-2020 21:38:17 9.2 C 74 %
419 27-02-2020 21:48:17 9.2 C 74 %
420 27-02-2020 21:58:17 9.2 C 74 %
421 27-02-2020 22:08:18 9.1 C 74 %
422 27-02-2020 22:18:17 9.1 C 74 %
423 27-02-2020 22:28:18 9.1 C 74 %
424 27-02-2020 22:38:18 9.1 C 74 %
425 27-02-2020 22:48:17 9 C 74 %
Sensor: Nr:Datum:Temp:Feuchte:
G-T/H 426 27-02-2020 22:58:18 9 C 74 %
427 27-02-2020 23:08:18 9 C 74 %
428 27-02-2020 23:18:18 9 C 74 %
429 27-02-2020 23:28:18 8.9 C 75 %
430 27-02-2020 23:38:18 8.9 C 75 %
431 27-02-2020 23:48:18 8.9 C 75 %
432 27-02-2020 23:58:18 8.9 C 75 %
433 28-02-2020 00:08:18 8.9 C 75 %
434 28-02-2020 00:18:17 8.9 C 75 %
435 28-02-2020 00:28:17 8.9 C 75 %
436 28-02-2020 00:38:18 8.8 C 75 %
437 28-02-2020 00:48:17 8.8 C 75 %
438 28-02-2020 00:58:17 8.8 C 75 %
439 28-02-2020 01:08:17 8.8 C 75 %
440 28-02-2020 01:18:17 8.8 C 75 %
441 28-02-2020 01:28:17 8.8 C 75 %
442 28-02-2020 01:38:17 8.8 C 75 %
443 28-02-2020 01:48:18 8.7 C 75 %
444 28-02-2020 01:58:18 8.7 C 75 %
445 28-02-2020 02:08:18 8.7 C 74 %
446 28-02-2020 02:18:18 8.7 C 74 %
447 28-02-2020 02:28:18 8.7 C 74 %
448 28-02-2020 02:38:18 8.6 C 74 %
449 28-02-2020 02:48:17 8.6 C 74 %
450 28-02-2020 02:58:18 8.6 C 74 %
Sensor: Nr:Datum:Temp:Feuchte:
G-T/H 451 28-02-2020 03:08:18 8.6 C 74 %
452 28-02-2020 03:18:18 8.6 C 74 %
453 28-02-2020 03:28:18 8.6 C 74 %
454 28-02-2020 03:38:18 8.5 C 74 %
455 28-02-2020 03:48:17 8.5 C 74 %
456 28-02-2020 03:58:17 8.5 C 74 %
457 28-02-2020 04:08:17 8.5 C 74 %
458 28-02-2020 04:18:17 8.5 C 74 %
459 28-02-2020 04:28:18 8.5 C 74 %
460 28-02-2020 04:38:18 8.4 C 74 %
461 28-02-2020 04:48:17 8.4 C 74 %
462 28-02-2020 04:58:17 8.4 C 74 %
463 28-02-2020 05:08:17 8.4 C 74 %
464 28-02-2020 05:18:17 8.4 C 74 %
465 28-02-2020 05:28:17 8.4 C 74 %
466 28-02-2020 05:38:17 8.4 C 74 %
467 28-02-2020 05:48:17 8.3 C 74 %
468 28-02-2020 05:58:17 8.3 C 74 %
469 28-02-2020 06:08:17 8.3 C 74 %
470 28-02-2020 06:18:17 8.3 C 74 %
471 28-02-2020 06:28:17 8.3 C 74 %
472 28-02-2020 06:38:18 8.3 C 74 %
473 28-02-2020 06:48:18 8.2 C 74 %
474 28-02-2020 06:58:18 8.2 C 74 %
475 28-02-2020 07:08:18 8.2 C 74 %
Sensor: Nr:Datum:Temp:Feuchte:
G-T/H 476 28-02-2020 07:18:17 8 C 73 %
477 28-02-2020 07:28:17 8.1 C 73 %
478 28-02-2020 07:38:17 8.1 C 73 %
479 28-02-2020 07:48:18 8.1 C 73 %
480 28-02-2020 07:58:18 8.1 C 73 %
481 28-02-2020 08:08:18 8.1 C 73 %
482 28-02-2020 08:18:18 8.1 C 73 %
483 28-02-2020 08:28:18 8.1 C 73 %
484 28-02-2020 08:38:17 8.1 C 73 %
485 28-02-2020 08:48:17 8.1 C 73 %
486 28-02-2020 08:58:17 8.1 C 73 %
487 28-02-2020 09:08:17 8.1 C 73 %
488 28-02-2020 09:18:17 8.1 C 73 %
489 28-02-2020 09:28:17 8.1 C 73 %
490 28-02-2020 09:38:17 8.1 C 73 %
491 28-02-2020 09:48:18 8.1 C 73 %
492 28-02-2020 09:58:18 8.1 C 73 %
493 28-02-2020 10:08:18 8 C 73 %
494 28-02-2020 10:18:18 8 C 73 %
495 28-02-2020 10:28:18 8 C 73 %
496 28-02-2020 10:38:17 8 C 73 %
497 28-02-2020 10:48:17 8 C 73 %
498 28-02-2020 10:58:17 8 C 73 %
499 28-02-2020 11:08:17 8 C 73 %
500 28-02-2020 11:18:17 8 C 73 %
Sensor: Nr:Datum:Temp:Feuchte:
G-T/H 501 28-02-2020 11:28:17 8 C 73 %
502 28-02-2020 11:38:17 8 C 73 %
503 28-02-2020 11:48:18 8 C 73 %